GFSGL_500_spd_000.txt.gz
Wind_Speed
15 11 12 15 16 13 10 8 9 7 8 10 11 10 16 22 16 16 17 19 20 17 14 13 11 15 18 30 31 29 27 23 28 21 26 25 26 27 20 20 14 16 20
12 10 11 14 15 10 10 10 9 8 8 9 11 14 16 17 14 21 20 21 19 17 18 13 11 16 20 28 28 30 36 26 27 25 21 23 26 25 22 19 16 23 14
11 8 10 13 12 10 13 11 11 10 8 10 11 12 16 16 20 21 19 18 18 18 17 16 21 19 22 24 30 28 25 29 21 20 22 21 19 15 15 17 22 17 16
9 6 9 11 8 9 13 12 12 11 10 12 13 11 12 14 16 17 18 19 19 17 16 15 16 17 20 22 28 26 26 28 26 23 25 24 15 19 16 19 21 18 12
9 7 8 8 10 13 10 12 12 12 10 10 11 12 13 15 15 16 17 20 19 16 17 16 15 16 16 23 25 22 23 24 25 27 27 23 23 23 18 18 16 8 6
7 9 6 8 8 10 10 9 10 9 8 8 10 9 10 12 15 17 16 17 15 17 16 16 15 10 16 15 23 23 25 22 22 25 26 25 20 19 16 10 9 9 9
8 8 8 8 11 11 7 8 9 10 9 9 9 12 10 8 12 15 17 17 17 16 13 14 11 15 14 16 20 21 16 25 20 19 17 19 17 12 12 10 7 8 8
9 9 10 9 13 15 14 12 14 11 14 14 11 7 8 7 12 13 16 18 18 15 18 16 15 12 14 19 19 17 22 20 18 15 12 13 14 11 8 7 5 6 9
8 8 8 9 13 16 20 16 17 17 18 18 17 17 13 17 18 17 17 16 16 16 13 18 17 15 18 16 18 18 21 21 18 15 13 9 7 6 4 5 5 8 9
5 4 6 10 12 14 15 18 18 18 17 21 20 24 20 24 22 24 22 21 20 18 20 20 20 19 16 17 19 19 15 14 13 11 10 8 6 6 7 8 8 10 12
5 4 5 9 12 13 13 14 15 16 18 20 22 25 23 25 26 20 16 18 18 23 26 21 19 16 15 13 12 11 9 9 9 6 4 4 5 6 8 9 11 13 15
4 4 4 7 9 8 9 9 11 14 16 18 19 20 21 22 22 24 25 23 22 20 20 18 15 13 11 9 8 7 6 5 5 5 6 7 8 11 12 13 15 18 20
3 5 4 3 6 5 3 6 10 11 14 15 16 17 17 16 17 17 17 16 15 14 14 13 11 10 9 8 6 5 5 7 7 7 8 9 10 12 15 18 21 23 23
5 6 6 5 6 6 5 8 12 15 16 18 20 19 20 20 18 17 16 15 13 11 10 9 8 6 3 2 1 2 4 7 9 11 13 14 16 17 19 22 24 24 25
5 7 8 7 9 8 7 10 11 12 13 16 17 18 17 17 15 13 11 9 7 6 5 5 5 5 5 5 6 7 9 11 12 13 15 16 18 20 23 25 26 27 30
9 8 8 10 13 12 11 12 13 12 12 13 12 11 10 10 9 7 8 7 5 5 5 5 5 6 8 9 10 12 14 16 16 17 18 20 22 24 26 27 29 33 35
12 12 11 11 13 16 15 15 15 12 11 13 12 10 8 5 2 3 6 7 4 6 7 8 9 10 10 12 13 16 18 19 18 19 21 23 25 27 29 31 33 35 38
14 14 15 15 15 16 17 17 16 15 14 14 15 13 11 11 11 11 11 9 9 12 12 10 9 11 12 13 18 20 20 19 20 22 24 26 28 30 32 34 36 39 41
15 15 15 16 17 18 18 19 20 19 19 19 20 20 20 19 19 17 17 14 14 14 14 14 14 13 17 17 19 20 23 23 24 25 27 30 32 35 36 35 35 38 39
17 17 18 20 20 19 19 21 21 23 24 24 24 25 24 24 24 22 18 15 16 16 15 16 17 20 20 24 22 22 21 22 24 25 26 30 38 43 39 37 41 40 42
18 18 18 19 21 22 24 23 25 25 24 25 26 26 24 22 21 19 18 17 17 19 20 23 24 25 27 23 23 27 31 33 32 29 30 36 37 42 45 47 43 48 48
23 20 18 19 22 22 21 22 24 27 26 24 24 23 23 23 23 21 20 21 24 27 28 27 28 28 29 28 30 31 36 34 32 28 30 37 41 36 39 43 42 46 52
28 26 25 24 22 21 20 22 24 25 26 28 30 29 28 28 29 28 29 30 30 30 31 31 31 32 34 34 30 31 38 36 37 38 44 45 47 42 46 43 41 40 46
33 31 30 28 25 24 24 23 23 24 25 27 29 31 29 30 29 29 30 29 29 31 32 30 30 31 31 32 33 33 36 35 39 46 49 47 45 43 48 42 38 38 43
39 37 33 32 28 29 27 25 24 24 23 24 25 25 25 26 27 29 29 28 26 27 28 28 30 31 34 36 37 39 40 41 43 45 48 49 47 50 48 48 43 35 36
44 43 36 35 34 33 32 29 29 27 25 26 26 25 25 26 27 29 31 31 31 32 33 34 35 37 39 40 41 45 47 48 46 48 47 47 50 50 50 48 52 40 34

GFSGL_500_spd_003.txt.gz
Wind_Speed
13 13 15 18 19 15 11 3 6 7 9 7 10 12 15 18 17 15 14 12 10 12 13 12 12 20 26 25 25 24 27 23 17 16 20 21 20 18 15 17 18 17 20
12 13 14 17 13 12 7 5 8 9 9 11 12 13 18 13 15 16 15 14 14 14 11 11 13 19 27 23 25 17 23 23 26 22 21 16 21 15 16 19 11 12 17
10 11 13 15 11 11 7 8 8 9 10 11 14 15 13 13 18 16 16 16 14 12 11 12 13 21 26 30 29 25 27 15 22 19 20 20 24 23 17 11 15 13 18
11 11 11 11 12 12 12 10 10 11 10 9 10 13 14 15 20 16 15 16 17 15 18 18 17 17 26 32 24 21 21 15 21 23 14 17 22 15 11 11 13 12 13
10 9 8 7 11 10 7 9 10 10 11 10 8 8 11 18 18 15 15 15 15 17 15 15 16 16 24 28 27 26 21 23 14 18 18 18 14 14 8 8 10 9 8
10 10 9 6 7 8 8 8 9 10 9 8 9 7 9 13 17 17 18 15 14 15 15 15 13 15 24 27 24 28 26 20 15 13 16 16 13 17 11 5 11 7 5
9 11 11 10 7 9 9 10 12 11 10 9 11 9 8 10 14 17 16 15 16 15 13 14 13 19 16 23 23 20 21 18 20 20 18 15 15 14 12 9 6 4 4
11 12 13 12 11 13 12 12 15 14 13 10 6 6 9 11 11 15 16 15 14 12 12 11 16 15 17 17 18 14 15 15 16 16 11 10 12 13 9 4 3 5 6
9 11 13 13 16 17 14 16 16 16 14 16 14 14 13 14 11 13 15 16 16 11 12 12 11 11 16 14 16 18 20 19 17 16 14 12 9 7 7 6 6 6 8
8 10 12 13 15 17 16 16 18 19 22 24 25 23 22 20 16 16 13 14 14 12 11 12 11 14 14 17 17 19 19 18 16 15 13 10 7 6 5 7 9 11 9
6 9 10 12 13 14 14 16 18 21 25 25 24 24 23 19 20 23 19 15 20 20 22 19 14 15 15 16 15 14 13 12 14 12 9 8 8 8 9 10 12 13 12
6 7 8 8 10 10 11 12 16 18 21 20 23 26 26 25 25 25 25 23 24 24 23 21 19 18 17 16 16 15 13 10 8 9 10 10 11 12 11 11 13 15 16
6 6 5 5 6 8 8 8 11 15 18 19 19 21 22 22 21 21 22 21 20 19 17 16 16 14 13 13 12 11 11 11 11 11 10 9 9 10 11 14 17 17 19
3 4 4 4 4 7 9 10 12 13 15 17 19 21 22 23 23 23 22 21 20 19 17 15 14 11 9 7 6 5 6 6 7 7 7 7 9 11 14 17 19 21 24
4 5 4 4 7 6 10 13 14 15 17 19 19 19 19 19 19 17 15 13 12 11 10 8 7 5 4 3 2 3 5 6 6 7 8 9 12 15 18 20 23 24 25
8 7 8 7 8 9 10 12 13 14 16 16 15 14 13 13 12 12 10 7 6 5 5 3 1 0 2 4 6 8 10 10 10 10 11 13 15 18 20 22 23 25 27
12 12 10 10 11 11 11 13 13 12 12 11 9 8 8 8 6 4 4 5 4 2 2 2 3 5 5 7 9 12 14 14 14 13 14 16 18 20 21 24 27 30 32
11 13 15 14 13 13 14 14 14 15 13 12 13 11 10 8 6 6 7 8 10 8 8 10 10 9 9 8 12 14 13 16 19 19 19 20 21 21 18 24 29 33 38
14 14 15 17 17 17 16 15 16 16 15 15 14 15 15 14 15 15 15 15 15 12 11 11 10 11 11 11 14 15 18 17 15 17 20 21 23 22 23 27 35 41 40
16 17 18 19 19 20 19 18 17 17 18 18 19 19 18 19 19 19 18 18 15 14 14 13 12 13 16 19 19 22 19 19 20 20 25 31 32 33 33 34 36 37 37
21 21 20 22 22 20 20 20 20 20 21 21 22 21 21 21 20 19 16 15 16 17 15 18 21 21 21 22 22 23 21 24 27 30 31 30 32 32 32 37 43 45 42
26 26 25 22 23 25 25 25 25 25 25 25 26 24 23 22 20 19 18 19 19 20 22 26 27 27 24 25 26 26 26 25 26 28 32 36 37 43 34 40 38 44 39
29 31 30 28 26 26 25 24 26 25 25 26 27 27 26 24 24 24 25 25 25 27 29 29 28 27 27 27 26 25 26 26 26 31 34 36 39 43 44 45 49 49 41
35 32 36 35 33 30 28 26 25 25 25 26 27 27 28 30 31 32 31 33 32 30 29 28 26 24 24 23 24 26 28 29 31 34 37 39 42 43 44 46 49 45 39
39 39 38 40 39 34 31 28 26 25 23 23 26 30 32 30 29 29 28 29 31 29 26 24 23 24 27 28 30 31 33 35 37 38 39 41 43 46 46 45 46 43 52
42 45 43 43 44 41 39 35 31 27 26 26 25 25 26 27 25 25 28 24 23 26 26 26 26 27 29 31 33 36 37 37 39 41 43 45 45 48 46 46 44 51 50

GFSGL_500_spd_006.txt.gz
Wind_Speed
10 11 11 15 11 14 9 5 5 4 3 8 10 10 13 14 13 11 9 7 8 10 10 11 16 23 24 27 27 26 25 27 21 25 27 22 18 22 20 19 22 23 20
9 9 10 10 9 12 7 7 7 5 4 12 14 10 11 12 10 10 8 9 10 8 9 10 15 24 26 25 22 22 23 11 32 32 28 20 18 14 13 18 21 20 18
8 6 8 8 10 8 7 8 8 6 8 11 17 15 9 11 12 12 12 10 8 8 10 11 18 24 23 24 18 16 13 19 24 23 25 21 16 17 19 19 14 14 20
5 5 5 9 7 9 7 7 9 10 9 11 13 12 11 14 14 13 13 12 13 14 15 19 18 25 21 20 19 20 19 16 18 23 23 20 18 13 13 10 9 9 13
5 2 3 7 6 6 6 5 6 9 11 10 11 9 12 17 14 12 14 12 12 14 15 15 17 22 24 24 18 14 10 15 19 19 22 19 15 13 9 6 7 10 11
5 3 5 5 6 6 6 6 4 6 8 10 10 11 13 16 14 12 12 13 13 13 13 11 13 19 23 19 19 17 13 16 18 17 18 17 16 12 7 3 8 12 11
6 7 9 9 9 11 10 5 6 8 6 8 10 11 14 16 15 12 12 11 12 13 12 13 15 15 21 15 10 12 15 10 11 11 12 11 12 8 6 11 10 9 8
7 8 9 10 11 11 12 11 11 8 4 8 11 11 13 14 15 14 13 10 10 9 9 11 15 18 17 16 11 12 16 11 12 14 13 12 11 9 11 9 7 7 5
9 9 10 14 14 13 14 13 12 9 8 8 9 11 14 14 13 14 13 11 9 9 10 12 14 15 17 17 13 12 13 14 18 17 14 12 10 7 8 7 6 5 5
8 11 10 12 16 16 17 16 18 20 20 22 19 16 15 14 12 13 14 12 8 12 10 10 10 15 16 12 12 14 14 15 16 13 14 13 11 10 8 5 5 6 6
8 11 11 11 13 14 16 19 19 18 20 21 22 24 21 17 14 14 14 13 13 10 12 12 14 12 14 14 16 15 16 17 16 12 9 8 7 5 5 6 8 8 11
8 11 10 9 10 12 14 16 20 18 21 20 24 24 23 24 22 22 21 18 20 19 17 16 22 19 17 15 15 17 16 14 12 10 8 6 6 7 9 11 13 15 15
7 8 10 9 9 8 9 12 16 17 18 20 23 24 25 28 29 31 29 29 22 22 21 21 21 19 19 17 16 16 15 14 11 7 6 7 9 10 13 15 17 18 18
7 6 6 8 9 9 10 11 14 15 15 16 18 18 18 18 19 19 18 18 18 16 15 14 14 13 12 11 10 10 9 7 8 9 10 11 13 14 15 16 17 18 19
7 7 6 6 8 9 11 12 14 17 18 20 22 22 22 22 21 20 18 17 16 16 15 13 12 10 8 7 6 5 5 6 7 8 10 11 13 14 15 15 15 17 20
8 8 9 7 7 10 11 12 15 16 17 17 18 18 17 16 14 13 13 11 9 9 8 7 6 4 3 2 2 3 5 6 8 9 10 12 13 15 16 17 17 19 21
10 10 10 11 10 10 13 13 13 14 15 14 11 9 9 9 7 6 6 7 8 2 2 1 1 3 5 4 4 4 7 7 10 11 12 14 15 17 19 20 18 20 24
10 10 13 14 14 13 13 14 14 14 13 11 8 7 7 5 3 4 7 7 7 5 3 4 5 7 7 7 7 8 8 12 11 10 9 12 15 19 22 25 24 26 30
14 13 14 16 16 16 16 15 15 16 15 14 13 12 11 10 10 10 12 12 11 10 6 6 6 4 5 7 9 12 13 16 14 11 13 14 13 23 24 26 27 31 33
17 16 17 17 20 20 19 19 18 17 17 17 17 16 15 15 16 16 16 16 16 13 10 9 8 6 9 12 13 14 14 16 18 19 21 24 26 25 27 30 31 35 33
18 20 21 21 19 20 21 22 23 22 20 19 19 18 18 18 18 18 19 19 18 15 13 12 11 12 15 16 18 18 19 20 22 22 23 23 24 28 31 33 37 36 40
23 22 21 22 24 23 22 23 25 24 22 22 22 21 22 20 20 20 20 19 19 18 18 16 17 19 22 22 20 20 20 20 20 20 22 24 25 28 32 34 35 41 43
24 25 24 24 24 26 27 28 27 26 26 25 25 25 24 24 24 21 20 21 21 22 23 24 25 26 24 23 20 18 16 17 19 22 25 29 30 32 33 34 38 40 43
30 28 29 28 27 27 28 28 28 29 30 28 27 26 26 27 26 27 27 26 26 26 28 29 28 27 23 19 19 19 20 23 24 26 29 31 33 32 34 39 42 44 45
33 33 32 29 29 30 33 34 32 31 30 30 28 27 27 28 29 28 28 28 26 23 22 23 24 23 23 24 25 26 26 27 29 31 31 33 35 37 39 40 42 46 47
35 37 35 36 37 39 40 40 40 39 36 33 31 30 29 28 27 28 27 27 26 25 21 20 22 24 27 29 31 32 32 32 32 33 34 34 34 39 42 44 48 49 47

GFSGL_500_spd_009.txt.gz
Wind_Speed
9 11 11 12 8 6 3 3 2 3 1 3 3 4 5 5 3 3 6 7 9 9 10 12 16 15 13 14 15 18 21 25 30 28 22 23 18 12 18 16 20 23 20
9 9 9 7 4 1 3 1 2 3 3 8 4 5 5 3 1 2 5 4 8 10 9 12 16 14 12 14 16 17 23 25 24 18 24 15 18 15 18 20 24 25 24
7 5 7 4 2 2 3 3 1 4 4 11 9 6 4 3 1 6 3 4 6 9 9 11 14 18 15 14 11 17 16 14 18 25 20 24 25 17 19 21 24 23 24
6 4 6 3 1 2 2 3 4 5 7 12 14 5 7 7 6 5 4 7 12 10 9 9 18 19 16 13 13 2 11 18 25 25 18 17 16 19 17 18 19 21 20
3 2 4 4 3 2 2 2 4 5 7 11 11 5 11 11 8 5 5 11 19 16 12 9 15 16 18 13 14 17 15 20 19 20 19 20 18 20 16 14 16 15 17
1 4 5 2 2 1 3 3 4 6 6 8 9 9 13 12 9 5 6 12 16 12 10 11 13 10 13 15 19 15 17 21 22 22 17 12 15 15 14 14 13 13 13
4 6 6 4 5 3 3 1 5 6 5 8 8 10 13 12 10 6 7 10 14 16 17 12 13 13 13 11 13 18 19 20 21 20 14 14 14 13 11 11 12 10 10
5 7 8 7 6 6 5 6 5 3 6 9 10 10 12 13 11 9 9 10 11 13 18 16 16 14 11 9 8 10 13 14 13 14 18 13 11 4 7 10 13 11 10
7 10 10 10 7 7 8 9 6 4 5 8 11 11 12 15 13 10 10 8 10 15 17 19 15 14 13 12 13 14 8 10 13 14 16 13 11 12 12 12 9 8 6
7 10 12 13 11 11 13 14 14 14 11 11 12 13 13 14 15 12 11 9 9 12 15 16 17 15 15 15 15 14 13 15 15 14 14 11 10 12 9 8 7 4 2
8 10 13 12 12 12 11 11 13 14 17 14 14 13 15 15 16 16 11 9 12 10 10 12 14 14 13 16 15 13 16 13 12 12 13 13 11 9 6 3 1 3 6
8 8 10 13 12 11 12 16 16 16 16 17 17 14 13 13 13 13 11 11 10 11 12 14 16 14 15 15 15 11 12 13 15 11 9 7 5 2 1 4 7 10 14
9 8 9 9 10 11 10 13 15 18 21 27 23 20 20 19 18 18 20 21 18 17 18 17 20 19 17 17 18 18 15 13 10 7 4 1 2 4 7 10 12 15 17
8 8 8 9 10 11 11 11 13 14 15 17 18 20 22 26 26 26 24 23 21 21 20 19 17 16 15 12 10 9 7 5 2 0 3 5 7 9 11 13 14 14 14
8 7 7 8 10 11 13 12 12 13 14 15 18 21 22 22 22 21 20 19 17 16 15 15 13 12 10 8 6 4 3 2 3 4 6 8 10 12 13 13 13 15 15
8 9 8 9 10 12 12 13 15 17 18 20 19 18 17 16 16 15 13 12 11 11 10 9 8 7 6 5 4 3 2 2 3 5 7 9 10 12 14 15 17 17 17
9 7 9 9 11 12 13 13 13 14 15 15 14 12 11 11 12 11 11 11 7 6 6 5 3 2 1 2 3 4 3 2 4 5 9 11 11 12 13 15 19 23 26
10 9 10 11 11 12 14 13 13 13 13 10 9 7 6 5 3 3 4 4 4 2 2 1 2 3 3 2 2 3 5 7 9 7 6 6 7 8 12 18 19 23 26
13 12 12 13 14 14 14 15 15 15 13 11 9 7 8 7 6 6 6 5 5 4 2 2 2 2 1 1 2 6 8 11 9 8 11 12 14 17 20 21 21 24 24
13 13 13 13 14 16 16 16 17 17 17 16 15 14 13 12 11 11 11 11 10 8 5 4 3 4 2 5 8 10 12 13 14 16 15 16 19 18 19 21 24 26 31
17 15 15 15 15 16 18 20 21 20 20 20 19 18 17 17 15 14 14 15 14 12 7 7 7 8 10 12 16 17 17 17 18 19 21 18 18 20 22 25 25 28 30
22 19 17 17 17 16 19 19 20 22 23 23 22 21 21 20 19 19 18 16 16 13 11 11 12 12 14 16 18 18 18 18 17 17 18 19 21 24 27 28 31 29 33
27 26 23 20 19 18 19 20 21 22 22 24 25 23 23 23 22 23 22 21 18 17 16 16 16 18 19 21 20 19 18 17 18 21 22 24 25 26 27 30 32 32 35
28 30 29 25 25 24 21 19 22 25 25 26 27 27 26 27 26 25 25 24 24 23 22 21 22 22 21 20 20 21 21 22 24 25 26 27 28 29 30 31 32 35 37
33 33 34 31 29 29 27 25 26 27 27 28 28 28 29 28 29 27 26 27 27 26 26 24 23 23 23 21 20 21 24 25 27 30 31 29 30 33 32 32 33 35 39
36 35 35 36 36 34 34 32 29 28 28 29 30 31 30 31 32 32 30 29 29 30 30 30 28 26 26 25 24 25 27 28 31 33 33 29 27 29 31 35 36 38 41

GFSGL_500_spd_012.txt.gz
Wind_Speed
13 12 15 17 17 18 11 9 8 6 6 5 4 5 4 4 8 10 10 11 4 6 5 8 8 8 10 7 5 5 11 19 21 20 26 22 21 17 15 24 26 23 18
9 13 14 13 14 11 6 7 8 5 5 4 1 1 3 4 6 6 8 9 3 4 6 7 8 6 2 9 7 6 12 19 22 18 27 20 27 12 17 28 21 20 22
9 11 11 10 12 7 4 4 6 4 4 6 3 2 2 3 6 7 7 9 5 6 7 10 10 5 7 8 5 9 13 20 25 15 16 15 16 12 19 18 23 25 21
10 11 9 9 10 6 5 3 4 2 4 6 4 2 3 2 4 7 11 6 8 11 12 10 12 12 9 7 5 4 13 20 20 13 15 19 22 16 21 17 19 20 21
8 5 7 10 9 5 5 4 2 2 3 6 8 3 1 3 6 10 13 13 14 15 14 13 13 12 8 5 11 16 20 22 22 22 20 24 16 20 21 22 21 21 19
4 6 8 8 5 5 5 4 4 3 4 6 9 3 4 4 8 12 19 14 10 12 13 10 10 10 11 16 17 24 24 22 27 28 29 27 25 22 23 21 19 18 15
5 6 6 3 6 3 2 4 4 5 4 5 6 7 8 5 7 10 16 20 16 14 15 13 18 18 18 19 21 23 22 23 24 19 27 27 24 22 21 19 16 14 11
5 6 6 6 8 5 3 3 1 4 4 6 7 9 10 6 8 11 16 17 19 14 17 19 18 20 17 26 29 25 23 22 23 22 21 20 16 15 18 18 17 16 14
7 8 7 7 9 8 6 6 5 0 2 11 8 10 12 9 10 10 10 16 18 18 17 15 15 19 17 16 19 20 19 19 20 18 15 13 15 18 19 18 16 13 10
7 8 8 11 8 10 11 12 11 7 5 11 9 11 13 12 9 9 8 12 17 18 16 15 14 15 16 17 14 15 19 16 19 17 13 13 12 14 16 14 11 8 5
6 7 7 9 11 9 9 9 9 11 9 10 9 12 13 13 10 9 9 11 12 14 17 18 18 18 17 20 23 25 24 19 19 17 13 11 15 14 12 9 7 5 6
7 6 5 6 9 10 12 12 13 11 12 11 11 11 12 13 12 9 7 8 8 9 14 16 18 17 18 20 20 19 20 21 20 18 16 13 10 8 7 6 6 8 8
6 6 6 5 6 9 11 13 21 20 15 18 15 12 10 11 9 7 5 9 13 14 13 16 19 18 17 15 17 19 20 19 17 14 11 8 5 4 7 6 7 10 10
7 7 6 6 7 8 10 11 12 16 20 23 22 22 21 18 16 17 17 18 19 20 21 21 22 22 20 19 17 16 14 11 9 7 5 2 3 4 6 7 8 8 10
6 6 6 7 9 10 11 10 10 10 14 20 22 22 21 21 20 19 19 20 19 20 19 18 17 16 15 14 11 10 8 6 4 3 1 1 3 4 5 5 6 9 13
7 7 7 8 9 11 12 12 14 15 16 19 20 20 19 17 17 16 15 14 14 14 13 12 11 10 9 8 7 7 6 6 3 1 0 1 2 4 5 7 9 10 14
6 5 8 9 10 11 12 14 14 14 14 13 12 12 13 15 15 14 13 12 12 12 10 9 7 6 6 8 8 7 5 4 4 4 6 5 5 7 8 8 11 14 15
7 5 5 8 10 11 11 12 11 12 11 10 7 6 6 6 7 7 8 8 8 5 4 5 5 3 3 4 4 2 2 5 8 8 7 6 7 8 11 15 18 19 20
10 8 7 8 10 11 12 13 13 13 11 9 7 5 4 3 2 1 1 1 2 2 2 1 1 3 5 5 3 1 5 8 6 7 9 9 10 13 16 18 15 16 22
10 10 9 9 9 11 13 14 15 15 15 14 12 11 10 9 9 7 4 3 2 1 1 3 3 5 4 2 2 5 8 9 9 10 11 10 13 15 15 16 19 20 22
14 12 11 11 11 11 11 14 16 17 17 17 17 17 16 15 13 12 11 9 7 4 4 6 6 6 9 10 11 12 13 13 13 13 13 13 14 15 18 20 20 21 24
21 18 16 16 15 14 15 14 14 15 18 20 20 20 21 18 17 16 16 16 15 12 9 10 11 11 11 13 15 15 16 16 16 15 15 16 17 19 20 22 25 27 25
26 24 21 20 19 18 18 17 17 17 16 17 19 20 23 23 20 21 21 21 19 18 17 15 16 16 16 18 20 19 19 18 19 18 17 20 22 23 24 26 28 31 30
31 28 25 22 22 22 22 21 21 21 21 21 19 18 21 24 22 22 23 23 23 24 22 22 22 23 23 23 23 22 22 22 23 24 24 26 26 27 29 29 30 31 31
36 33 29 27 25 25 26 25 25 24 24 23 23 21 18 21 23 23 24 24 24 24 24 23 24 25 25 26 26 26 26 26 26 26 29 30 29 29 31 34 32 30 32
40 40 37 34 32 29 28 29 26 26 27 25 25 26 25 22 22 23 24 25 24 26 26 27 28 29 29 29 30 29 28 28 29 31 33 34 34 32 34 37 36 32 34

GFSGL_500_spd_015.txt.gz
Wind_Speed
12 16 15 16 17 16 15 15 13 12 11 11 8 4 3 6 10 15 11 11 7 4 5 6 8 9 8 10 9 10 10 14 15 17 21 20 26 23 17 23 27 20 19
13 11 14 14 13 13 12 12 11 9 9 7 4 2 3 7 11 13 8 6 3 4 6 7 7 7 3 6 10 15 15 16 17 19 21 24 24 23 26 24 25 22 24
9 12 12 13 10 11 10 11 10 8 7 3 2 2 5 6 8 10 8 5 4 5 6 8 10 8 12 15 13 15 16 18 20 18 23 25 31 22 25 28 20 20 23
12 12 11 8 8 9 11 10 7 7 5 3 3 5 5 5 9 8 6 7 6 5 6 9 10 8 11 14 11 11 14 18 18 19 20 15 16 16 16 16 18 18 22
8 6 8 7 8 8 9 8 5 6 4 1 5 6 5 7 11 5 11 10 12 11 11 10 10 8 10 14 10 16 19 22 14 14 13 16 15 17 22 15 23 27 24
6 7 7 6 5 6 6 4 5 4 2 1 3 3 5 7 13 10 7 10 11 14 14 15 11 18 17 19 20 20 15 19 18 23 17 22 22 20 24 26 24 22 15
8 7 4 6 6 4 2 4 3 2 1 1 1 4 5 7 11 12 11 15 16 17 18 20 18 18 20 23 30 33 31 38 38 32 29 29 27 27 23 21 20 18 14
6 4 6 8 9 7 6 4 2 1 1 2 3 8 8 9 14 16 12 14 19 22 24 21 20 21 23 29 29 27 29 36 36 34 30 26 26 24 24 22 19 17 15
5 8 9 10 12 10 9 8 6 1 2 7 5 10 11 9 13 17 14 17 22 21 21 21 26 28 28 29 28 23 28 26 28 28 27 26 24 24 23 22 21 18 15
4 7 9 9 10 10 9 9 8 6 5 11 8 12 14 12 12 15 15 15 18 20 21 20 19 18 20 23 27 22 17 23 24 22 23 22 23 22 21 19 18 15 12
3 6 8 11 13 14 12 9 11 10 8 9 10 13 14 11 11 11 13 14 14 16 18 18 18 18 17 19 21 26 23 21 21 21 22 24 23 22 19 17 14 12 9
2 4 5 8 11 15 17 16 14 14 10 10 12 12 13 9 8 9 11 12 11 15 19 21 18 23 27 26 25 26 25 23 22 24 23 21 18 18 16 12 10 8 6
2 3 4 6 10 13 18 23 17 17 13 12 13 12 10 9 7 7 8 8 13 17 17 20 20 22 24 22 22 23 24 25 24 22 19 16 14 13 10 8 5 6 4
2 4 4 5 8 10 12 17 19 20 20 18 19 19 16 13 13 13 15 14 16 15 16 20 20 18 20 23 22 22 21 19 18 16 15 12 10 9 8 8 5 4 6
2 3 5 6 7 8 9 12 15 17 21 22 25 26 25 23 23 22 22 21 23 23 23 22 21 21 21 18 16 15 14 13 11 10 9 9 9 9 8 5 4 4 5
5 3 5 7 8 8 9 12 18 21 22 22 22 22 23 21 20 21 20 20 19 19 18 16 16 14 14 13 12 12 11 11 10 9 8 7 6 5 3 1 3 7 9
6 6 5 7 9 10 11 13 15 17 18 16 15 15 15 17 14 13 16 17 16 15 14 12 11 11 12 13 12 13 12 11 9 7 6 5 2 1 1 1 5 12 13
8 8 8 7 9 10 11 11 12 12 11 11 11 12 12 11 11 11 11 10 9 9 8 8 6 7 9 9 9 8 7 7 5 3 1 0 2 3 4 6 8 6 10
10 8 8 10 11 11 12 12 12 11 10 8 6 6 5 4 5 5 5 4 4 5 5 3 3 3 7 6 5 3 2 2 3 4 3 4 5 6 9 9 8 7 8
11 11 9 7 8 11 12 12 12 12 12 11 9 7 5 4 4 2 1 1 1 1 1 3 3 3 7 7 4 1 5 7 6 6 6 6 7 7 8 9 11 13 13
12 11 10 9 9 9 11 13 13 13 13 15 14 13 12 10 8 6 5 6 5 3 3 5 7 6 8 9 10 9 8 9 10 12 9 7 9 13 14 14 16 16 18
15 14 13 13 11 10 11 11 12 14 16 15 17 18 16 14 13 12 12 11 10 9 8 9 11 13 13 13 14 14 14 14 15 14 14 14 15 16 16 18 21 22 22
22 20 18 16 15 15 13 13 12 13 15 16 18 21 19 18 18 16 16 16 15 14 13 13 14 16 17 18 19 18 19 20 22 21 20 19 20 22 24 24 25 25 25
27 24 23 23 22 20 19 18 17 17 16 15 15 17 20 22 20 20 20 18 17 17 17 18 18 19 20 22 23 23 23 24 25 25 26 26 26 26 26 27 30 32 28
30 30 29 27 28 26 24 21 19 19 19 19 20 17 19 21 22 22 23 23 22 21 20 18 18 19 21 23 25 26 27 27 27 28 28 28 27 28 29 29 30 34 33
38 36 35 36 34 32 29 28 24 22 20 20 20 21 22 22 23 24 24 24 23 23 23 23 22 24 24 23 24 26 29 30 31 32 33 32 31 32 33 34 36 35 35

GFSGL_500_spd_018.txt.gz
Wind_Speed
12 12 15 14 16 16 15 12 10 11 10 9 7 7 6 5 8 10 7 7 3 0 2 7 8 9 10 11 13 12 12 14 14 15 15 21 24 22 24 26 26 29 24
11 12 12 13 11 11 10 7 9 11 9 7 4 5 5 7 8 11 9 4 0 3 3 4 8 12 11 10 12 11 15 13 11 12 12 19 21 25 23 24 27 23 20
11 11 13 14 10 8 7 6 8 10 8 2 1 4 6 7 9 9 5 2 1 3 4 5 9 7 9 13 18 15 14 15 14 13 17 21 25 18 24 27 24 26 27
11 11 9 6 8 8 6 6 5 7 5 2 1 5 4 7 6 7 5 0 2 4 3 7 6 5 14 15 18 18 16 16 12 12 16 20 19 21 20 23 24 19 18
8 6 7 8 10 7 5 5 2 4 2 3 4 3 5 8 3 4 7 9 9 8 10 10 7 11 12 12 17 17 16 14 13 13 14 16 20 18 20 19 22 24 24
8 8 9 7 6 6 4 1 1 2 1 5 5 3 5 8 6 3 6 5 11 14 15 15 14 12 14 17 18 20 22 20 19 13 16 22 20 25 16 18 23 21 20
7 6 5 4 3 4 3 2 1 4 3 5 8 6 6 7 6 9 7 10 17 17 16 16 19 18 20 19 17 18 23 23 24 22 22 26 24 19 22 29 30 23 20
5 5 5 5 5 7 7 5 1 5 5 7 10 9 8 8 8 9 11 11 19 19 17 17 20 28 30 28 24 24 29 28 30 33 34 30 32 32 31 26 21 16 15
6 6 6 10 8 9 8 7 3 6 8 10 11 11 10 10 15 14 18 21 22 20 18 20 27 28 30 34 31 32 30 31 35 33 32 30 29 30 28 23 20 23 21
6 6 8 8 7 6 8 8 7 6 11 13 14 13 11 15 15 17 17 16 19 21 24 23 25 28 29 33 31 26 26 27 28 28 28 26 25 23 22 24 24 20 18
4 4 7 9 11 11 9 9 12 12 14 14 16 16 14 13 11 15 14 16 18 18 22 19 21 22 24 28 27 25 26 25 26 25 25 26 26 26 24 21 19 16 14
3 4 6 7 11 15 12 11 12 12 13 14 18 17 13 11 10 13 13 13 15 15 15 16 19 19 21 19 24 24 22 24 25 26 27 26 24 22 20 18 15 13 11
4 4 5 7 13 18 16 16 16 15 15 16 16 15 11 12 10 11 11 12 14 17 15 16 20 22 23 23 25 23 21 25 28 26 24 22 21 18 17 15 12 9 8
5 5 6 7 10 14 17 17 19 17 16 17 18 16 15 13 13 11 12 17 17 15 16 17 18 19 19 21 20 21 21 23 24 22 21 20 18 15 13 11 10 6 2
6 7 8 9 10 12 13 16 22 23 22 21 22 20 18 19 17 14 15 19 18 18 20 18 17 18 20 21 21 20 18 17 16 16 15 14 12 12 11 10 9 6 4
7 8 9 10 11 12 14 16 23 23 24 21 23 23 24 22 22 23 21 20 21 20 20 20 18 18 18 18 16 14 13 13 12 11 12 13 12 11 9 7 7 4 4
7 7 9 10 12 13 18 18 20 20 19 18 18 18 19 21 20 18 18 18 17 16 14 14 13 13 13 13 14 14 15 14 13 13 10 10 9 8 8 6 5 6 8
8 10 10 9 9 12 15 16 15 14 13 14 15 16 17 17 17 17 15 14 13 11 10 10 11 11 12 13 14 14 11 10 8 7 6 5 5 5 5 6 8 10 11
12 10 11 12 12 11 11 12 12 12 11 9 8 9 10 10 11 11 10 10 10 9 8 8 7 10 11 10 9 8 4 1 0 1 2 4 6 7 7 8 9 9 11
16 14 11 11 12 12 13 13 11 11 11 9 7 4 4 4 4 3 4 5 5 6 6 5 5 8 11 11 11 8 3 1 2 3 5 6 7 8 8 7 7 9 12
14 16 16 15 14 14 14 14 15 15 14 13 12 11 9 6 3 3 3 3 2 3 5 6 7 8 11 11 9 7 7 7 5 6 7 10 12 13 12 10 12 13 14
11 11 12 14 16 15 15 15 16 16 16 18 17 15 14 13 11 10 9 8 7 5 5 5 7 9 11 13 14 15 15 14 15 15 14 14 15 17 18 17 16 17 20
20 17 15 13 13 13 14 15 16 16 17 18 18 18 18 18 17 16 15 14 13 11 9 9 10 11 13 15 16 17 18 19 20 20 21 21 22 21 21 21 21 20 22
26 24 24 21 20 17 16 16 17 17 17 18 19 20 18 18 20 20 20 19 17 17 15 14 15 16 17 18 19 20 21 23 25 26 26 25 24 25 25 25 24 24 24
30 30 29 27 25 25 23 22 21 21 20 19 20 21 23 23 21 21 22 23 23 23 22 21 21 22 22 21 22 22 23 25 26 27 28 28 28 28 28 27 28 28 27
36 35 33 31 32 31 30 29 27 27 25 22 22 23 24 25 25 25 25 24 25 25 26 26 25 25 24 24 23 23 24 26 27 28 31 30 29 28 28 28 28 29 30

GFSGL_500_spd_021.txt.gz
Wind_Speed
13 12 11 11 10 14 12 12 11 7 10 9 7 6 6 7 11 12 11 8 4 2 3 5 4 5 9 12 9 11 14 14 15 17 17 20 23 22 23 26 27 24 25
9 10 10 10 12 12 9 10 6 6 10 7 4 3 6 7 10 10 11 7 3 2 3 5 8 10 10 11 12 13 12 13 14 14 15 19 19 20 21 22 22 28 26
10 11 12 11 10 9 10 7 4 4 6 5 1 3 6 7 9 8 7 5 2 5 6 6 8 7 10 13 16 13 14 13 10 13 13 18 22 19 21 21 20 26 22
10 12 7 5 8 10 9 6 5 4 6 3 2 4 4 7 6 6 5 3 2 3 3 7 6 8 11 17 17 16 13 14 12 15 13 22 24 24 26 21 22 22 20
11 10 9 11 10 8 6 5 5 5 3 4 3 1 4 7 5 2 4 4 1 3 6 4 7 11 12 20 17 16 18 18 16 16 19 23 17 20 24 26 21 21 19
12 11 10 6 5 4 3 3 5 5 3 6 5 2 3 7 6 2 4 3 5 12 11 12 10 12 13 19 22 20 18 16 15 17 18 19 20 20 24 24 17 17 14
11 7 4 5 3 3 2 2 4 6 4 6 7 4 5 4 5 4 6 7 10 10 10 7 7 11 14 18 20 19 17 16 18 21 23 24 18 20 17 21 13 22 20
6 4 7 5 2 4 4 3 5 7 5 6 8 6 5 6 4 5 4 10 11 11 15 16 13 13 16 18 18 18 17 17 19 23 25 23 25 18 24 25 26 22 20
3 4 3 4 3 1 1 1 7 9 9 10 10 7 3 13 10 10 12 13 13 14 17 17 19 21 20 20 16 16 18 17 21 26 25 25 30 34 31 25 24 22 21
4 5 6 4 5 3 2 1 6 11 12 13 12 8 6 15 16 14 11 13 17 16 20 21 24 28 32 29 25 20 19 19 22 26 30 32 32 29 26 27 28 25 23
5 5 5 7 7 5 4 4 9 15 14 15 14 9 15 16 14 12 12 12 15 20 21 22 24 23 26 27 26 24 24 23 24 25 26 27 25 24 24 24 23 21 18
7 5 7 8 8 6 6 7 12 16 15 17 15 12 16 12 14 12 13 14 13 13 15 19 20 19 20 20 21 23 24 23 22 24 26 27 28 26 24 21 17 14 13
5 4 7 8 10 8 9 9 11 13 15 19 17 12 10 9 9 11 12 12 13 10 13 15 17 18 16 15 17 18 19 22 23 24 26 25 23 21 19 16 14 12 10
6 6 8 9 11 12 11 11 11 14 15 16 15 11 12 10 9 8 13 13 13 11 11 15 17 16 18 18 16 13 15 21 24 23 21 20 18 16 14 13 12 11 8
7 8 10 11 11 13 15 16 14 16 14 13 13 13 12 10 10 12 15 17 14 14 15 17 16 16 16 16 15 16 16 16 17 16 15 16 15 13 12 11 8 6 2
7 9 10 12 12 13 15 19 20 19 18 15 13 13 15 14 15 16 15 14 15 15 13 13 13 15 16 17 17 16 14 12 11 11 11 9 9 9 8 6 5 5 5
6 9 11 12 14 17 19 20 19 20 21 18 18 18 18 18 19 20 19 17 15 15 14 13 13 13 13 12 12 12 12 11 11 9 8 8 8 8 6 6 5 8 10
10 9 11 12 15 17 16 15 16 16 17 15 16 17 17 17 17 17 17 16 15 14 12 11 10 10 10 11 12 12 11 9 8 7 7 7 7 7 8 9 10 11 12
15 14 13 14 16 17 15 14 12 11 12 11 11 13 14 14 13 12 11 10 10 10 9 10 10 12 14 15 14 12 9 7 5 5 5 6 7 9 9 9 11 12 13
13 14 14 14 15 16 17 15 13 11 8 7 6 6 7 8 9 9 8 7 7 6 6 6 8 11 14 15 14 12 8 6 4 4 5 7 7 8 9 9 11 13 15
13 12 13 16 17 17 17 17 16 16 14 12 9 6 4 4 3 3 3 3 3 4 5 5 5 6 12 13 14 12 8 5 4 4 6 7 8 11 12 12 15 16 17
15 14 14 14 13 16 19 19 19 18 17 17 16 15 13 10 8 7 6 6 6 5 3 3 3 6 7 10 12 13 13 12 11 12 11 12 12 13 14 16 18 19 21
17 16 15 13 15 15 14 15 18 20 21 21 20 19 18 17 17 16 15 15 13 12 12 12 11 11 11 13 15 16 16 17 18 17 16 17 18 19 20 20 21 22 22
24 22 20 18 17 16 14 14 15 16 17 17 19 20 21 21 21 20 20 20 19 18 17 16 16 17 18 18 19 19 21 23 23 23 24 24 24 25 24 23 23 23 23
30 28 26 25 23 22 22 21 20 18 18 18 19 19 19 19 20 21 22 22 23 24 23 23 23 24 24 24 24 25 26 27 28 29 30 30 29 29 29 29 29 29 28
34 31 30 29 30 29 28 26 26 25 24 24 23 22 22 23 23 23 23 22 23 24 25 27 28 29 29 30 29 29 30 30 30 32 33 33 30 29 30 31 32 32 30

GFSGL_500_spd_024.txt.gz
Wind_Speed
14 15 14 13 13 12 14 14 13 14 11 9 11 11 9 10 8 9 10 10 8 5 4 4 6 8 9 10 9 14 13 17 19 18 18 21 23 23 23 23 24 22 20
9 7 10 11 12 13 14 13 12 12 7 8 9 7 7 7 7 9 10 10 6 4 3 4 6 6 8 10 9 14 13 15 15 17 17 19 22 22 21 21 21 21 24
4 7 11 13 14 14 12 12 12 11 8 8 6 5 7 8 9 6 6 6 5 4 5 5 4 6 8 11 12 13 13 14 15 18 18 18 20 18 20 22 24 24 24
6 9 9 9 10 12 13 13 10 8 7 7 7 6 5 8 7 4 6 5 4 5 5 6 7 8 11 13 12 13 14 15 17 19 19 20 21 20 20 21 24 25 29
8 10 10 11 12 13 11 8 7 9 6 6 6 3 4 8 3 4 6 6 2 1 5 7 6 11 15 15 14 16 17 15 19 17 18 20 22 21 21 21 21 25 24
8 9 7 6 7 6 7 6 7 6 5 6 6 2 4 2 2 2 2 2 2 5 4 4 8 12 12 13 15 16 17 16 18 20 25 21 24 23 19 22 22 25 19
8 4 4 5 2 2 3 4 6 7 6 7 7 3 5 1 3 3 4 6 6 7 8 6 7 11 13 15 15 17 16 16 14 17 25 22 22 23 25 21 20 23 20
3 3 4 1 1 3 4 6 6 7 6 7 7 3 3 2 1 3 4 3 3 4 3 3 4 8 13 16 17 16 14 12 15 18 15 20 20 24 27 24 14 15 21
3 1 3 3 3 5 6 6 7 9 6 8 7 3 2 3 4 8 4 6 8 13 13 10 6 12 14 18 19 18 15 14 15 19 23 18 23 22 24 20 25 25 22
3 1 3 5 5 4 3 4 7 10 9 10 8 2 10 10 11 9 10 10 11 11 18 22 18 16 17 17 19 19 17 17 16 16 19 24 24 30 32 31 27 24 26
4 1 3 5 4 2 1 1 7 11 12 12 8 9 13 12 12 11 14 14 16 18 19 22 23 24 25 24 22 22 22 20 18 16 20 27 29 26 24 24 25 24 21
6 5 3 7 6 3 3 3 10 13 13 15 10 16 13 12 11 7 8 19 18 18 16 17 19 19 20 22 21 24 27 24 24 25 25 24 23 24 23 22 21 19 16
9 7 8 9 6 6 5 6 11 9 14 15 15 15 14 13 13 10 8 9 14 14 12 11 13 15 17 16 17 19 20 22 22 23 23 24 27 26 23 20 18 17 15
11 8 8 9 7 7 6 9 11 12 14 13 12 10 11 10 10 10 9 8 8 11 11 9 11 10 11 14 14 10 10 14 18 21 21 21 20 18 17 18 16 13 10
12 10 8 8 9 9 8 10 11 14 14 13 9 8 8 8 9 12 13 11 11 12 14 13 11 10 13 14 14 13 12 17 18 18 18 16 15 15 16 16 13 9 4
14 12 10 9 10 9 12 14 12 11 10 8 7 7 5 8 13 14 15 15 13 15 14 14 15 14 13 13 17 19 15 13 12 11 10 12 11 13 13 10 7 4 2
14 13 13 12 14 15 16 17 18 17 18 17 14 12 11 11 13 14 15 14 12 11 10 10 11 12 12 14 15 15 15 13 12 11 10 10 11 11 7 5 5 5 5
14 14 14 16 18 17 16 16 16 17 18 19 18 18 18 18 16 15 14 14 14 15 14 14 13 13 13 12 12 11 11 9 8 8 9 8 7 7 6 5 6 7 8
15 16 16 17 17 16 15 14 14 15 16 16 15 15 16 16 16 15 13 11 9 9 9 10 11 11 11 12 12 11 10 10 9 8 7 7 7 8 7 9 11 11 11
11 15 17 19 19 16 14 13 13 14 15 14 14 13 11 10 10 9 9 8 8 7 6 6 7 10 14 13 12 11 10 8 8 7 7 7 7 8 9 11 11 12 12
10 11 16 18 19 19 17 14 12 10 10 11 11 10 10 9 8 7 5 4 3 3 3 4 5 10 12 14 13 12 9 7 5 4 4 5 6 9 11 12 13 15 16
17 15 13 13 17 18 18 18 17 14 13 11 10 10 8 6 5 4 3 2 2 1 1 4 5 6 8 11 13 13 13 11 10 11 12 11 10 11 12 13 16 17 18
21 21 20 17 15 14 15 18 19 18 17 16 14 14 13 13 13 13 12 10 9 8 8 8 6 6 8 11 14 16 17 19 20 19 17 17 18 18 19 19 20 21 22
28 24 21 20 19 18 16 15 15 16 17 18 19 19 19 19 18 18 18 17 17 17 16 15 15 16 16 16 16 17 18 21 22 23 24 24 24 25 26 26 25 26 27
30 29 28 24 20 19 18 18 16 16 16 15 15 16 16 16 17 19 21 22 22 22 22 23 22 23 23 23 23 23 24 26 27 29 29 29 29 30 30 28 28 28 28
37 36 33 30 27 26 25 23 22 21 20 20 19 18 18 19 19 19 20 20 21 22 24 25 26 28 30 30 30 29 29 30 31 32 33 33 32 32 32 31 30 30 30

GFSGL_500_spd_027.txt.gz
Wind_Speed
13 14 16 17 17 17 17 18 19 19 17 16 16 18 14 13 12 13 14 12 11 9 6 5 4 7 6 12 12 14 17 19 20 21 23 22 21 21 20 23 23 21 21
11 12 12 13 16 16 17 17 17 16 15 15 16 12 11 11 12 12 12 10 10 8 5 4 5 5 9 10 11 15 17 19 20 22 24 25 22 22 23 21 20 21 16
10 10 12 13 15 16 17 16 15 15 15 16 13 11 10 10 11 12 9 10 9 7 5 2 5 10 9 12 9 16 17 21 22 22 22 22 23 22 20 20 19 22 22
11 10 11 12 13 13 14 16 16 16 15 13 12 10 8 7 11 6 5 6 4 5 4 5 6 8 10 13 13 14 16 18 21 22 22 21 22 21 21 21 23 22 24
9 9 11 13 15 16 16 15 14 14 14 11 10 8 5 8 6 3 3 5 2 4 7 6 9 7 9 10 11 13 15 17 18 20 21 21 24 23 20 21 22 23 22
8 8 11 9 9 10 10 10 10 11 10 10 9 6 3 6 6 4 3 2 4 7 6 8 7 11 11 10 10 12 14 15 18 19 20 21 22 20 19 19 24 19 19
7 7 6 7 6 5 6 6 6 7 7 7 9 4 5 4 6 5 3 6 5 5 5 6 8 9 10 11 13 12 13 16 16 16 22 21 22 23 21 16 20 25 18
4 5 3 2 3 6 7 6 5 6 7 6 6 5 5 1 5 1 6 3 2 4 2 4 7 10 12 15 16 18 17 14 16 19 18 22 22 19 21 23 25 22 18
5 5 1 4 6 8 8 7 6 7 6 4 7 5 4 1 5 5 6 7 10 6 5 7 9 13 16 17 18 17 16 18 20 21 15 20 21 23 23 18 14 13 22
7 4 1 4 6 7 6 5 7 9 7 6 5 2 7 8 6 7 10 9 10 11 9 13 17 16 19 19 17 17 16 15 17 17 20 17 20 23 23 20 26 27 29
6 3 5 4 3 1 2 4 7 11 9 9 4 11 12 12 14 12 13 15 14 19 19 17 16 16 16 17 19 18 17 19 17 18 17 18 16 23 23 26 26 23 29
6 4 2 2 4 3 2 2 8 10 10 9 8 12 12 10 13 14 16 16 15 20 23 23 22 19 16 17 17 17 21 19 19 19 18 18 21 22 21 19 20 21 20
8 6 5 7 9 6 4 7 12 12 13 8 14 13 10 9 10 14 17 14 13 15 16 21 25 26 23 21 24 26 28 30 30 29 27 25 25 26 27 24 22 21 17
11 9 8 9 9 7 6 9 11 15 16 13 10 11 10 9 9 11 13 11 8 10 10 11 16 21 23 21 18 19 21 25 26 24 25 27 27 24 21 20 18 14 12
12 11 10 10 10 9 9 9 13 16 18 12 9 9 9 7 7 11 13 12 9 9 9 12 12 16 19 21 19 17 17 20 22 22 23 23 22 21 21 18 14 11 9
13 14 11 10 10 12 12 12 14 14 13 11 8 6 7 8 11 14 14 15 15 13 12 13 16 17 16 19 21 20 19 18 18 19 18 17 17 19 20 16 12 10 7
14 15 14 12 12 14 15 16 14 13 11 11 13 13 12 14 13 13 15 16 16 16 14 12 13 14 16 17 21 20 19 18 15 14 13 13 14 16 16 15 13 10 8
14 16 16 15 15 16 17 17 19 18 19 18 16 16 16 16 15 15 13 12 12 14 16 14 14 15 15 15 15 14 13 13 14 14 13 14 15 15 15 13 11 12 12
14 17 19 18 15 14 14 15 16 17 18 20 19 18 18 19 19 17 16 13 12 11 11 12 13 13 13 12 12 12 12 13 13 13 13 13 14 13 13 12 12 12 12
13 15 18 19 17 14 12 13 14 15 16 17 17 16 15 14 14 13 12 11 10 10 10 9 8 9 11 12 12 13 14 13 12 11 11 11 11 12 12 12 13 13 13
14 14 15 18 16 14 12 10 11 12 13 14 15 15 15 14 13 12 10 9 8 7 7 7 9 10 10 11 11 11 9 8 8 8 8 8 9 10 11 12 12 13 14
18 15 16 15 17 17 14 13 11 9 8 9 11 11 12 12 11 11 10 9 8 7 6 6 7 10 13 13 13 12 11 11 11 9 9 9 11 12 12 13 14 16 18
24 22 19 16 16 17 17 17 16 14 13 11 10 10 9 8 8 8 8 8 7 7 7 6 6 6 8 11 14 16 17 19 19 17 17 16 17 18 19 19 20 21 21
29 27 26 23 21 20 18 19 22 22 21 20 18 18 17 16 15 15 14 13 12 12 12 12 12 13 13 13 13 14 17 20 22 23 23 23 22 23 24 24 26 27 26
31 30 28 28 28 27 24 22 21 22 22 22 23 23 24 24 24 23 22 20 20 19 19 19 19 20 20 20 20 21 22 23 24 25 26 27 27 27 27 27 28 28 27
31 32 31 31 30 29 28 28 26 24 23 22 22 22 21 21 21 22 22 22 22 22 22 23 24 26 27 28 28 29 29 30 30 32 33 33 31 30 29 30 31 32 30

GFSGL_500_spd_030.txt.gz
Wind_Speed
24 22 22 19 19 21 21 22 22 22 22 22 21 23 21 22 19 17 16 18 18 13 11 10 6 4 2 7 7 11 16 17 16 19 19 20 18 18 20 22 23 23 25
21 19 17 17 17 19 20 20 21 21 21 20 20 18 20 18 15 16 15 18 19 11 9 6 7 5 7 9 10 13 17 18 18 20 22 21 20 20 19 20 22 22 22
17 16 15 15 17 18 19 20 21 20 17 17 18 18 18 13 14 13 15 15 13 10 8 6 7 8 10 9 10 14 17 18 19 20 23 22 20 20 19 19 20 20 20
16 15 15 16 17 17 17 17 17 17 16 16 17 16 14 12 12 13 12 11 9 10 9 9 6 9 10 12 9 16 16 18 19 20 20 21 21 19 20 20 19 19 17
15 15 15 16 17 17 18 19 18 18 17 15 15 13 10 10 10 9 10 13 10 9 11 10 10 9 9 13 13 13 14 17 20 21 20 19 20 19 20 20 20 19 19
15 14 15 16 14 13 13 12 11 11 12 11 12 9 8 9 8 8 10 6 3 6 9 10 13 11 12 11 13 13 14 16 18 20 21 20 22 21 18 18 19 17 16
13 13 14 10 11 10 7 6 7 8 9 9 9 9 7 9 4 6 3 4 5 6 7 9 10 12 13 10 9 11 14 16 18 19 20 19 19 20 18 18 18 21 20
12 12 9 8 8 8 5 6 6 7 8 8 8 8 5 5 5 3 4 1 2 4 4 7 10 11 13 11 10 13 13 15 15 18 18 20 20 18 15 19 24 20 19
11 9 8 9 8 8 6 7 6 5 7 6 6 4 5 3 2 3 5 7 5 3 6 10 12 13 16 16 16 17 17 19 19 20 20 22 19 18 15 18 25 19 23
10 8 9 8 7 9 7 6 5 6 7 5 3 4 3 4 2 7 8 7 4 3 8 11 14 16 18 19 18 17 18 21 22 18 20 19 19 18 21 20 19 15 18
8 8 10 8 8 5 4 4 4 7 7 7 2 6 6 8 8 9 10 8 14 13 13 13 14 16 19 19 19 18 21 22 19 18 17 16 16 19 19 14 17 25 28
8 8 6 6 6 5 4 4 8 11 9 8 7 7 7 12 12 13 15 22 21 20 16 14 15 18 21 20 19 20 21 23 23 21 18 18 18 13 13 21 22 23 23
9 7 3 4 4 4 4 9 13 13 12 9 11 8 6 8 15 15 16 17 21 21 23 24 20 18 17 17 19 23 18 20 23 22 17 17 20 22 18 17 19 20 20
8 6 5 5 4 7 10 13 14 15 12 16 14 10 10 7 15 17 16 14 16 18 20 26 29 26 20 21 21 21 23 26 27 29 30 27 24 26 26 25 24 22 18
8 7 7 5 6 10 12 12 13 16 15 13 11 9 10 10 10 15 11 13 12 14 15 17 24 28 25 21 18 21 24 27 28 28 26 25 26 25 24 23 18 14 11
9 9 9 7 9 11 12 15 16 17 15 12 8 8 9 12 13 12 12 9 12 14 13 16 17 21 25 25 22 20 20 20 21 22 24 24 24 24 23 19 15 12 8
11 10 9 9 12 13 14 15 16 15 13 10 9 9 10 14 16 14 15 17 17 15 15 15 15 15 19 23 25 24 23 22 22 21 19 18 20 20 18 15 12 10 9
12 12 11 12 13 15 15 15 16 15 12 12 13 15 15 15 15 16 14 14 16 18 17 15 13 13 14 18 20 21 22 22 20 20 19 18 17 18 17 16 14 13 13
14 15 15 14 14 15 16 16 16 17 17 16 16 17 17 17 17 16 15 14 13 15 17 18 17 16 15 14 13 13 13 13 14 15 14 14 14 16 17 16 15 15 14
16 17 17 16 14 13 13 14 16 16 16 17 18 19 18 16 15 14 13 13 13 13 13 13 13 14 14 13 12 12 12 13 13 13 13 14 15 15 15 15 15 15 14
18 18 19 16 15 13 12 12 12 13 13 14 14 14 15 16 16 15 14 12 11 10 10 10 10 11 10 11 12 12 12 12 12 12 12 13 13 13 13 13 13 12 13
21 20 20 19 17 16 13 11 11 11 10 9 9 9 9 9 10 9 9 9 8 9 9 8 9 10 12 13 12 12 11 11 12 13 12 11 11 10 11 12 13 14 16
25 24 23 22 21 19 18 15 13 11 10 9 9 8 8 7 6 5 5 4 4 3 3 4 6 8 11 14 16 16 16 16 17 16 16 16 15 16 17 18 19 20 21
29 27 26 26 25 23 21 21 20 18 17 16 14 14 14 13 12 11 11 10 9 8 8 8 8 9 9 10 12 15 18 20 21 23 25 25 24 24 23 23 24 25 27
32 30 29 27 26 27 26 24 24 24 23 23 22 22 22 21 20 19 18 18 17 17 17 18 18 19 19 19 19 19 20 20 21 23 24 26 26 27 26 27 28 29 30
40 35 34 32 31 30 28 27 26 26 27 27 28 29 29 29 29 28 27 26 26 26 26 26 25 26 26 24 23 25 26 27 28 30 30 29 29 29 30 31 32 33 33

GFSGL_500_spd_033.txt.gz
Wind_Speed
25 25 25 25 25 25 25 24 24 24 23 22 23 25 23 22 20 22 20 20 19 20 16 13 9 6 6 4 2 6 13 19 17 13 15 15 15 17 16 17 16 18 21
25 24 22 23 22 22 22 21 22 22 22 22 23 21 20 17 19 19 19 19 21 19 12 12 7 7 7 5 5 9 11 15 17 15 12 14 13 13 14 17 15 15 20
21 20 20 19 20 20 19 21 22 22 22 21 18 17 16 15 19 17 18 20 18 16 13 11 8 9 10 9 9 8 11 15 16 16 13 16 15 14 13 15 17 16 18
18 19 18 19 18 18 21 22 20 19 19 18 17 15 14 16 16 16 20 18 16 15 13 13 9 12 11 11 9 9 10 12 12 14 15 16 15 14 13 14 16 16 17
17 17 17 17 17 20 21 20 20 19 19 18 16 13 13 15 14 17 18 17 14 15 12 12 11 10 12 13 11 9 14 14 12 14 16 18 15 14 15 14 14 17 16
16 16 17 17 18 20 17 14 14 13 11 10 10 11 12 12 14 16 14 14 8 5 9 9 11 11 12 14 12 11 12 14 16 15 16 17 18 16 16 18 17 15 13
15 16 16 16 18 14 11 9 7 7 8 8 9 10 10 11 13 12 13 11 7 5 6 9 11 12 13 12 12 12 12 14 15 15 15 17 18 18 16 16 15 15 18
15 15 13 17 11 10 8 7 7 8 6 7 8 7 8 10 11 12 9 6 4 6 7 9 11 14 14 12 14 13 13 14 16 16 18 15 16 18 17 17 18 17 14
14 12 14 13 11 11 10 9 9 7 6 7 6 5 7 8 8 7 5 3 6 5 9 10 13 14 14 12 16 18 18 17 18 17 17 17 17 17 15 16 18 18 15
13 12 13 11 9 11 11 10 9 7 6 6 4 5 7 4 5 5 3 7 6 6 9 14 14 17 17 14 16 17 17 18 19 22 21 19 17 17 14 21 23 21 20
12 12 11 11 11 10 9 7 7 8 8 6 4 3 3 3 3 4 5 4 4 8 11 15 18 18 18 17 17 17 19 20 21 22 21 19 18 14 14 22 20 16 20
11 10 9 10 7 6 6 6 7 10 9 7 7 5 5 6 5 8 13 10 12 13 12 14 18 18 16 17 15 16 22 22 19 21 18 17 14 16 16 9 13 17 20
10 8 9 6 4 6 6 7 11 12 12 8 9 6 9 9 16 21 17 16 13 12 14 14 15 16 16 17 18 19 20 18 19 19 19 22 20 18 13 17 20 23 22
8 6 6 3 3 5 6 11 13 12 10 12 10 7 6 10 18 16 15 17 15 17 17 17 17 17 17 16 18 16 18 21 19 22 21 21 19 24 24 22 21 21 20
6 4 4 3 4 6 11 12 12 12 11 11 10 10 8 10 16 14 13 13 14 17 20 21 19 19 20 18 14 14 17 21 21 20 23 28 27 27 27 25 23 20 17
5 4 5 4 5 8 13 13 15 12 15 11 8 9 8 11 13 11 13 12 13 15 15 18 21 23 21 19 17 16 17 20 23 24 26 26 26 23 23 21 18 15 11
8 7 5 5 7 9 14 15 16 13 13 6 6 6 8 9 9 11 15 16 14 15 16 13 13 21 23 22 20 17 16 17 18 18 18 19 19 20 20 18 15 12 9
11 9 7 6 6 9 12 15 16 13 9 6 5 8 13 13 11 13 15 15 16 17 16 14 13 15 19 22 23 23 23 21 21 20 19 17 18 19 19 17 15 12 9
15 12 11 10 9 9 11 12 13 12 10 11 10 11 12 11 12 13 14 12 13 14 14 14 14 15 17 18 20 20 20 20 18 17 15 14 15 18 18 16 14 12 12
17 15 14 13 12 12 13 11 11 12 14 15 14 14 14 13 12 10 10 11 12 12 11 12 14 16 17 17 15 14 13 12 12 12 13 14 14 16 16 15 14 13 14
19 19 16 14 14 13 14 15 14 14 15 15 15 14 13 13 12 12 12 12 12 12 12 11 12 11 10 10 10 11 12 13 13 14 14 15 15 16 15 14 15 16 17
21 22 20 18 16 15 15 15 15 14 13 12 12 12 12 11 10 9 9 9 9 8 9 8 9 10 11 11 12 11 11 12 12 13 13 13 13 13 13 14 15 15 16
24 24 24 22 20 18 17 16 15 14 13 12 11 11 11 10 8 8 7 6 6 6 6 6 6 8 9 11 11 12 13 13 13 13 14 15 15 15 15 15 16 18 20
22 22 24 24 22 22 21 21 19 18 18 17 17 16 14 12 12 11 10 8 8 7 7 8 8 9 10 12 13 14 15 16 17 17 17 18 19 20 20 22 23 23 23
28 29 28 27 27 27 26 24 23 23 21 20 18 18 16 15 15 15 15 16 15 14 14 14 14 13 11 12 13 14 16 17 18 19 20 21 22 24 25 25 26 26 27
31 28 27 28 28 27 27 27 27 26 26 24 23 22 22 22 22 21 22 22 22 22 22 22 22 21 22 22 23 24 25 25 26 26 27 27 28 29 31 32 33 34 34

GFSGL_500_spd_036.txt.gz
Wind_Speed
31 27 26 25 25 24 23 22 24 25 23 23 22 22 22 22 21 21 18 22 21 22 20 21 13 11 9 6 5 1 7 10 14 17 13 13 10 10 12 13 13 14 18
28 24 23 22 24 23 21 21 21 20 20 21 22 21 21 20 20 19 20 20 20 19 19 15 12 11 9 6 4 3 8 10 14 6 16 14 12 14 15 12 11 12 18
25 23 21 24 23 19 19 18 17 19 20 20 19 18 19 19 17 18 20 19 19 20 18 15 14 12 10 8 6 7 8 11 11 9 10 11 11 12 12 12 11 12 17
22 21 23 19 17 17 15 16 18 20 21 21 21 21 21 18 17 17 18 17 20 21 16 13 13 12 12 10 10 8 8 12 12 9 11 13 14 12 11 12 13 12 13
21 21 17 14 14 14 14 17 20 20 20 21 21 20 18 16 16 16 17 18 19 17 10 12 14 10 12 12 11 10 9 9 8 15 14 15 14 13 13 13 11 12 13
19 16 14 13 13 12 15 18 15 15 13 12 12 12 13 14 13 15 17 17 14 8 4 10 13 10 13 14 12 8 12 11 9 13 14 17 15 14 13 12 14 12 12
15 13 12 12 11 14 15 12 10 9 9 11 9 10 11 11 12 15 16 16 12 5 4 8 11 10 11 14 14 10 12 13 14 12 14 16 15 15 15 16 12 13 15
11 11 12 11 13 12 10 8 9 9 10 10 7 9 9 10 12 14 14 7 4 6 7 9 10 13 12 13 15 12 12 14 14 15 15 14 15 14 13 14 15 14 12
11 11 11 11 12 10 10 9 10 11 11 10 6 8 9 9 11 9 8 3 5 7 6 9 10 15 15 13 15 15 15 15 15 12 14 15 16 16 16 17 13 14 13
12 10 10 10 10 9 9 11 12 12 13 8 7 9 8 10 8 8 5 4 6 5 9 10 12 13 15 11 13 14 15 16 15 16 17 18 18 17 16 14 16 16 15
9 9 7 9 10 10 12 11 9 9 10 8 8 8 6 5 6 6 5 5 6 8 9 11 12 13 13 12 13 14 15 16 18 19 19 18 18 16 13 16 16 17 20
8 7 6 7 8 10 8 6 7 9 10 8 7 4 2 1 4 5 7 4 4 8 11 14 15 16 15 14 14 15 16 16 16 16 16 17 16 13 13 17 17 12 17
7 6 6 7 8 6 5 5 6 9 9 7 6 1 3 1 13 13 11 7 9 9 10 14 16 16 16 15 14 15 18 18 19 19 17 15 19 17 14 12 14 13 12
6 5 5 5 3 5 6 6 8 10 8 7 6 4 5 17 13 11 11 10 8 8 8 12 13 13 13 13 14 18 20 16 19 18 19 23 21 17 13 13 14 17 18
5 4 3 2 4 5 5 10 12 11 8 8 5 4 8 15 10 8 11 11 11 11 11 13 16 15 15 15 14 15 18 18 19 19 18 21 17 15 18 20 21 23 20
5 5 4 4 5 6 7 10 10 7 9 8 8 6 4 17 10 10 8 9 11 11 11 14 13 14 15 13 11 12 15 19 17 15 16 17 22 27 25 23 22 18 15
7 7 5 4 6 7 9 11 11 12 13 10 8 6 6 14 7 11 9 10 11 11 10 13 15 13 12 12 12 11 12 14 11 12 16 19 20 20 22 21 19 16 13
11 9 6 5 7 7 12 13 11 14 8 7 8 9 9 8 7 10 10 9 10 10 10 9 10 12 14 15 16 16 15 15 15 15 15 17 19 20 20 20 18 15 12
12 9 9 7 8 9 11 13 13 9 7 7 9 12 11 8 10 11 10 9 10 10 10 10 11 10 9 10 11 12 15 16 18 19 19 19 19 20 19 17 15 13 11
13 11 10 12 8 10 12 11 11 11 10 10 11 11 11 11 10 10 9 9 8 8 7 8 9 11 12 12 11 12 13 14 14 14 13 12 13 15 15 16 15 14 13
18 15 12 12 11 12 12 12 12 12 11 12 12 12 11 9 9 9 8 8 9 9 9 11 11 12 13 13 13 13 13 13 13 13 14 15 13 14 15 16 15 14 15
23 19 15 14 12 13 13 13 14 15 15 14 13 13 13 12 10 11 10 8 8 8 8 11 12 11 10 11 11 10 9 10 10 10 10 10 10 11 12 13 15 16 15
24 25 20 16 15 15 17 17 15 15 15 15 14 14 13 11 9 7 6 5 4 4 5 3 3 3 3 4 4 5 6 6 7 7 8 9 10 12 13 14 14 13 14
22 21 20 20 17 12 11 11 12 12 11 11 11 9 7 8 9 8 9 8 6 5 4 3 3 3 5 7 8 9 10 10 11 12 13 13 15 16 17 19 20 22 24
25 22 23 23 23 21 20 18 17 17 18 17 16 16 16 15 16 15 13 11 10 10 10 9 10 11 12 13 13 14 16 17 19 20 22 23 24 25 26 27 29 29 30
28 25 24 25 27 26 25 23 23 21 19 19 19 19 18 18 17 17 16 17 17 17 17 18 18 19 20 20 21 22 22 23 24 25 26 26 27 28 29 30 32 33 35

GFSGL_500_spd_042.txt.gz
Wind_Speed
42 39 39 39 37 33 29 28 28 29 26 27 29 28 24 22 21 23 22 21 22 22 21 21 18 17 16 14 11 9 9 6 10 8 8 11 13 20 20 19 16 17 16
39 40 39 35 31 29 27 27 27 26 26 28 27 23 20 20 20 21 22 22 23 22 21 20 17 18 18 9 8 6 2 5 7 7 12 13 10 13 23 19 15 15 17
39 38 35 30 27 25 25 27 26 26 27 25 22 20 19 19 20 22 22 23 23 21 20 18 20 21 17 13 8 5 6 12 9 1 7 14 11 15 17 17 16 16 20
36 34 30 22 23 26 27 26 26 27 24 21 18 18 20 22 24 23 23 24 23 19 18 18 22 20 12 13 10 7 8 12 9 3 8 17 17 16 18 18 17 20 23
35 30 24 24 26 26 25 26 25 22 18 16 19 21 21 22 23 20 20 19 17 18 18 18 17 12 10 13 12 11 8 10 12 9 11 15 18 20 21 19 19 25 23
29 25 25 26 24 24 25 23 21 18 18 19 16 15 17 17 18 16 14 15 16 17 16 16 14 16 13 15 15 15 11 10 12 12 13 15 15 16 17 17 15 19 21
27 28 28 25 24 24 22 21 18 18 18 15 13 13 13 14 14 13 13 14 17 18 17 14 12 16 18 16 16 15 13 12 13 18 16 16 15 16 17 19 18 20 24
28 27 26 23 22 21 20 19 18 16 16 14 12 13 11 12 12 12 11 13 11 10 10 9 9 19 18 17 18 17 12 13 14 18 18 17 16 17 18 18 20 19 18
27 26 24 22 21 22 20 17 16 15 14 13 13 13 10 9 10 9 10 9 8 7 8 7 10 10 10 14 16 16 13 16 15 18 19 21 18 18 17 18 16 16 17
25 24 23 22 21 19 16 15 14 13 14 14 14 11 9 9 9 9 7 8 7 6 7 9 9 10 11 8 12 15 12 17 19 18 20 23 21 19 17 16 15 18 18
24 24 22 21 18 15 14 14 13 13 13 13 11 9 9 8 8 8 7 7 7 8 9 10 11 10 12 11 12 14 13 15 19 19 18 19 18 17 17 18 19 18 16
25 21 19 17 14 14 13 11 10 11 11 9 8 7 5 4 6 6 6 7 7 8 10 10 11 10 12 11 12 13 13 16 18 16 16 17 17 18 17 17 16 16 16
20 19 16 15 14 12 10 9 10 10 8 7 6 5 3 3 2 2 4 4 4 8 9 9 12 11 12 13 14 15 14 16 15 15 15 15 14 16 18 15 13 14 14
18 16 16 14 12 9 8 10 10 9 10 9 6 3 6 8 5 4 3 5 5 8 10 12 13 13 13 13 14 15 16 16 17 17 17 17 17 16 17 15 18 20 21
16 16 13 10 9 10 10 10 10 12 11 10 4 9 14 9 8 7 5 7 8 9 12 13 12 13 13 12 12 12 12 13 15 16 17 15 13 9 11 21 21 17 18
15 13 11 10 10 12 10 10 12 12 12 10 8 15 10 6 9 10 9 7 9 12 13 13 13 11 11 10 9 11 10 10 11 10 10 12 14 8 7 16 17 15 16
14 12 11 12 12 10 9 14 14 12 12 12 10 9 10 4 8 10 10 8 9 11 14 14 13 13 11 10 10 11 10 9 11 9 9 11 12 11 10 14 19 22 22
12 10 11 11 12 14 16 17 16 14 13 13 10 8 11 7 8 8 8 9 11 13 11 12 13 11 9 8 9 11 12 12 10 11 11 11 11 13 14 18 22 21 18
11 11 10 10 13 15 16 15 17 14 11 10 9 12 12 11 8 8 8 7 8 8 11 12 11 11 11 10 11 12 13 12 11 12 13 12 12 16 17 19 19 17 16
11 11 12 14 13 15 15 14 17 12 10 9 11 12 12 10 9 9 8 9 8 7 10 11 10 10 9 9 10 11 12 13 13 12 14 14 15 16 17 17 17 16 16
12 11 13 13 14 16 17 15 14 11 8 10 10 10 8 8 9 9 10 10 9 9 9 6 7 8 9 8 8 7 6 7 8 9 10 11 12 14 16 17 18 19 20
13 13 13 13 12 14 14 13 11 10 10 11 12 12 11 10 10 10 10 10 11 11 10 9 9 8 8 7 7 7 8 8 9 9 9 10 12 14 17 19 21 24 26
16 12 13 13 13 13 13 12 13 16 16 14 14 14 13 13 13 11 12 10 9 9 9 8 9 10 10 10 9 8 9 9 9 10 12 14 15 17 18 19 21 23 27
19 16 15 18 14 13 14 14 15 17 16 14 13 14 13 13 13 12 11 9 7 7 7 6 7 8 8 8 8 8 9 9 11 12 13 14 15 17 18 20 21 23 24
18 16 16 13 15 16 16 17 15 16 15 14 12 11 11 12 10 9 7 7 6 7 7 5 3 3 3 4 5 5 7 9 11 12 15 17 18 20 22 24 26 28 30
20 22 17 17 21 17 16 17 17 15 15 13 13 12 11 10 9 9 8 7 7 7 8 8 9 10 11 12 14 15 16 17 19 20 22 24 25 26 28 29 31 33 35

GFSGL_500_spd_045.txt.gz
Wind_Speed
51 51 50 48 45 42 37 34 32 32 30 31 32 29 29 29 30 30 27 27 27 27 26 24 24 24 23 22 20 15 12 14 9 6 7 6 14 16 18 15 16 20 19
52 53 51 45 42 39 35 31 30 29 30 32 28 28 30 29 30 27 25 27 27 26 25 25 24 24 21 19 14 10 9 8 4 8 8 7 14 18 19 17 16 18 19
50 48 47 43 41 37 33 29 29 29 29 28 28 29 29 30 27 26 28 28 25 25 26 24 23 23 21 20 13 10 5 2 7 4 9 13 11 14 21 18 15 16 18
48 45 45 38 38 35 32 27 27 28 28 27 28 29 28 26 27 29 28 27 28 28 26 23 23 21 20 14 12 10 6 9 5 3 9 12 10 8 21 18 16 16 19
47 42 43 39 36 31 27 28 29 27 26 27 28 26 25 26 26 26 26 27 26 23 21 21 19 18 15 12 12 12 9 9 12 8 4 9 17 14 17 19 16 19 22
46 42 41 38 32 28 27 28 27 25 25 26 24 24 23 21 22 23 22 21 19 18 19 19 19 16 13 14 14 14 11 11 10 4 5 10 17 15 17 17 17 19 20
43 43 38 31 30 28 27 27 25 25 25 24 23 21 19 20 21 20 17 17 18 18 20 21 20 15 16 16 15 15 15 13 14 13 11 12 15 17 17 16 16 21 24
42 41 34 32 31 28 24 24 24 24 23 23 22 19 20 18 18 16 16 17 16 17 15 15 14 16 16 19 19 18 16 14 12 13 14 15 13 14 16 17 15 18 20
43 37 35 31 26 24 25 24 24 24 22 21 20 20 18 17 16 16 15 15 15 12 9 9 9 10 17 18 19 18 16 15 15 14 16 16 15 14 14 15 15 12 16
40 35 30 27 26 26 24 24 24 22 20 20 19 18 17 16 15 14 14 13 11 8 8 9 10 8 9 10 13 17 16 15 16 17 19 19 18 15 14 15 16 16 16
36 33 30 27 25 25 24 23 23 20 18 20 19 17 16 14 13 13 12 13 9 10 8 10 12 9 12 12 14 17 14 14 17 16 18 21 18 15 16 18 17 17 17
36 32 28 26 26 25 24 22 19 18 19 18 15 14 12 11 11 10 12 11 10 9 9 10 12 11 14 14 13 16 14 14 18 16 15 16 17 16 16 16 15 13 15
32 28 27 25 24 23 22 19 19 18 16 15 13 10 9 9 7 6 10 11 10 10 10 11 11 12 14 13 14 16 15 14 15 16 15 16 16 17 16 14 13 14 16
29 28 25 24 23 22 19 18 17 15 15 13 12 9 8 8 3 3 6 9 9 8 11 14 13 12 12 13 13 14 15 16 16 15 16 16 17 17 17 18 16 17 19
27 24 23 22 22 20 18 15 15 13 14 12 10 8 10 6 3 3 6 7 7 9 12 16 15 14 14 13 13 14 14 15 15 15 16 16 15 14 16 19 20 21 22
24 23 22 20 18 16 16 15 15 17 14 12 10 16 9 6 5 6 6 6 7 11 13 14 15 15 14 13 12 12 13 13 14 15 14 13 12 9 7 22 22 19 17
22 20 20 16 15 18 16 16 19 16 14 12 13 14 8 6 7 10 10 10 9 11 12 14 14 14 13 13 15 15 13 12 13 11 10 9 12 11 6 5 13 17 18
17 16 14 14 15 15 16 19 18 14 13 12 11 11 10 6 8 13 12 10 12 14 13 13 13 13 12 11 11 12 10 10 11 11 10 12 14 13 11 10 11 17 16
14 15 16 15 14 15 21 19 19 17 15 11 9 11 13 10 8 12 13 12 11 11 10 9 8 7 8 10 10 11 12 12 10 8 10 11 12 11 10 10 11 14 16
16 20 17 18 18 18 18 21 19 15 12 10 8 11 10 9 10 9 10 9 11 11 11 11 11 9 7 6 5 5 7 8 6 6 8 10 9 9 10 12 16 17 17
17 15 14 13 15 17 17 18 13 12 13 13 11 8 14 13 11 11 10 9 10 12 12 10 10 9 10 10 10 8 6 5 4 3 2 4 5 6 7 9 14 16 16
16 14 14 14 15 17 18 17 13 12 16 16 16 16 15 15 13 13 12 11 11 12 12 13 13 11 11 10 10 9 8 7 7 6 6 6 6 8 10 14 16 18 20
16 17 15 14 15 16 15 14 15 16 15 15 17 18 17 15 13 12 12 12 11 10 10 11 10 10 9 8 8 8 8 7 7 8 9 10 12 14 16 17 19 20 23
15 16 17 17 15 16 16 17 19 19 18 16 15 14 14 15 14 12 11 9 8 7 7 7 5 4 4 5 6 6 7 8 9 9 11 13 14 15 17 17 19 19 21
15 16 15 15 16 14 14 15 18 18 17 16 14 13 13 11 10 9 8 8 7 6 6 6 5 4 3 2 3 5 6 8 9 11 14 14 17 19 20 21 23 25 26
17 14 15 17 16 16 15 14 15 15 16 15 14 12 10 10 10 10 9 7 7 5 3 3 4 5 7 9 10 11 14 16 17 18 20 22 24 25 28 30 31 32 34

GFSGL_500_spd_048.txt.gz
Wind_Speed
59 58 56 56 52 50 49 47 46 43 42 39 37 38 34 32 28 28 30 32 31 30 30 30 30 27 26 25 27 25 24 18 18 14 12 9 10 12 14 11 16 20 18
57 57 55 55 55 54 48 45 42 39 38 35 35 32 31 27 29 30 31 31 29 30 30 28 27 26 25 24 25 24 21 15 14 11 8 7 6 12 11 11 11 17 20
56 54 57 59 58 53 47 42 39 40 36 33 32 31 29 29 30 30 30 29 30 31 30 30 28 27 25 24 23 24 15 12 7 5 7 6 5 9 10 12 10 13 18
56 58 59 58 55 51 47 42 40 38 32 30 31 30 29 29 28 29 29 30 31 30 30 29 27 27 25 22 23 19 12 9 7 4 7 10 8 7 15 17 13 14 17
59 58 56 56 53 52 46 39 38 32 29 29 29 28 29 28 28 27 28 29 29 28 28 26 25 22 21 20 21 13 14 14 12 7 6 12 14 7 11 19 16 15 16
60 56 54 51 51 48 41 36 31 29 29 30 28 28 27 27 25 25 26 26 26 26 24 22 20 20 20 18 16 13 15 13 14 7 4 9 15 13 11 15 15 14 16
55 53 50 51 47 42 37 33 31 31 31 28 27 26 26 24 24 24 24 26 25 22 20 21 21 23 21 19 18 16 17 13 13 12 5 5 9 16 13 14 13 14 16
53 47 46 46 43 38 34 32 33 31 28 27 25 23 24 24 23 22 24 23 20 20 20 20 21 20 20 18 17 17 17 15 12 14 10 6 7 9 10 11 10 10 15
48 45 45 42 40 35 33 33 29 28 26 24 23 23 24 23 23 23 22 19 18 18 17 16 16 12 15 18 19 20 17 17 14 13 14 14 13 12 12 11 12 11 15
48 47 45 39 38 34 34 33 29 25 24 24 23 23 22 22 23 22 18 17 17 16 15 14 12 7 7 17 23 20 20 16 13 13 15 15 16 13 12 12 13 12 12
49 46 44 41 40 35 35 28 25 24 23 22 22 22 21 22 23 18 17 18 16 13 14 11 10 8 9 10 12 19 20 16 14 14 14 15 15 13 11 11 11 12 13
48 45 39 40 37 32 28 26 24 22 21 22 21 21 22 20 18 17 17 17 14 14 13 11 10 11 11 12 13 15 15 14 15 16 16 17 16 13 11 10 10 14 14
50 44 44 35 31 28 26 24 21 22 21 21 20 19 17 16 15 15 16 16 13 13 11 12 11 12 13 15 14 15 16 13 14 17 15 14 15 15 14 13 14 16 15
39 41 34 30 26 27 26 23 22 21 21 19 17 15 14 13 12 11 11 10 12 9 11 14 12 13 14 15 13 14 15 15 15 15 15 14 15 16 16 15 15 15 15
40 34 29 26 27 25 24 21 20 19 15 13 14 13 11 10 9 7 6 9 9 9 12 14 13 13 14 14 13 15 15 13 12 11 11 12 12 11 13 16 16 16 17
31 30 28 26 25 24 22 19 16 16 15 16 15 11 11 9 5 4 7 9 11 13 15 16 14 12 12 12 12 12 13 12 12 13 12 11 10 10 10 14 17 19 18
29 26 26 26 23 20 17 18 18 17 18 14 13 15 10 6 5 5 8 9 11 13 16 16 14 13 13 12 12 11 10 10 10 10 9 9 8 11 6 4 11 17 16
28 27 23 20 20 20 20 19 20 21 18 14 18 14 8 8 10 11 10 9 11 12 13 14 15 14 13 12 13 12 11 10 10 10 9 9 10 14 13 10 6 10 15
23 21 20 19 21 20 20 23 23 21 16 13 14 11 9 10 12 15 14 12 12 12 12 13 13 11 11 11 13 13 12 11 11 9 9 9 10 12 12 12 10 9 12
19 22 21 18 17 20 22 21 19 18 16 14 13 15 13 12 14 16 15 13 13 12 12 11 11 10 8 8 8 9 8 9 8 6 6 7 9 9 8 8 9 10 8
22 20 20 20 21 21 21 20 18 17 15 14 15 17 16 14 14 15 14 14 14 14 13 13 13 12 10 10 12 12 10 9 8 7 6 6 6 5 4 4 5 8 10
22 22 20 20 20 21 20 20 15 14 16 17 16 19 18 16 14 13 13 13 13 13 14 13 12 11 11 10 9 8 8 7 7 7 6 5 5 4 5 6 9 11 15
23 22 20 21 20 21 20 17 12 16 19 19 21 21 17 16 15 13 12 12 11 10 11 11 11 10 9 8 6 5 4 3 3 3 4 5 6 7 9 11 13 15 18
20 21 21 22 21 19 18 16 14 15 17 16 15 14 15 15 14 13 11 9 9 8 9 8 8 7 6 4 4 3 4 4 5 7 8 10 11 12 13 14 15 15 23
19 19 19 21 20 18 16 15 16 17 17 16 15 13 12 11 11 10 9 9 8 7 7 7 5 4 4 4 3 2 1 2 4 6 8 10 12 13 16 20 23 23 26
17 17 16 17 18 18 17 16 16 15 14 13 12 11 10 10 9 8 7 6 6 7 6 5 3 0 3 4 5 7 9 11 12 15 17 19 21 24 26 28 30 30 31

GFSGL_500_spd_051.txt.gz
Wind_Speed
68 63 59 57 57 56 53 52 51 51 46 43 39 36 37 37 37 35 36 33 34 32 30 30 29 29 29 29 28 27 26 27 28 24 22 19 15 13 12 11 11 14 13
67 65 60 57 54 51 52 54 53 50 44 39 36 35 35 36 36 36 34 33 33 30 30 29 29 29 29 30 28 27 26 25 26 21 18 12 10 7 9 10 8 12 15
67 63 60 58 56 55 58 57 54 48 40 37 34 36 35 35 36 34 32 32 30 31 29 28 29 31 30 31 29 27 24 24 18 16 11 8 3 5 9 10 7 10 15
68 63 59 57 58 59 59 56 51 45 39 37 37 36 35 36 34 33 31 29 31 27 26 28 30 30 30 29 26 24 21 19 14 11 8 8 8 5 8 10 8 7 11
68 63 59 58 58 58 57 51 47 44 39 36 34 35 35 34 33 30 28 30 27 24 27 29 29 29 27 25 21 20 20 16 14 13 8 8 12 8 7 13 12 9 10
67 64 60 62 58 53 51 48 46 43 37 35 33 34 35 35 29 28 29 25 23 26 27 28 27 24 23 22 19 18 15 15 16 20 13 11 13 13 4 13 14 12 12
64 63 61 58 53 50 50 48 44 40 35 33 33 35 35 30 28 29 25 23 24 26 27 26 23 24 23 22 21 18 17 15 16 16 10 8 7 12 7 10 14 13 11
62 60 59 54 49 47 48 44 41 38 36 33 35 36 31 28 28 25 22 23 24 25 25 24 24 23 22 22 22 20 18 17 16 15 13 8 8 9 9 10 10 10 10
60 56 52 49 47 49 46 41 38 35 35 34 35 30 29 28 25 22 22 23 24 25 23 22 20 20 18 16 17 18 18 18 18 15 14 12 10 9 11 11 10 9 9
56 50 49 44 47 46 45 41 39 34 33 33 29 28 28 24 22 22 22 24 24 23 21 20 19 18 14 17 19 19 20 18 19 15 13 13 11 9 8 9 10 9 7
51 50 43 42 42 43 40 38 34 31 33 28 27 26 23 22 22 22 23 23 24 21 18 17 15 13 13 11 14 24 22 19 17 16 13 13 12 10 8 8 8 9 10
45 46 42 41 41 39 37 36 34 33 28 28 25 23 23 22 22 22 23 24 20 18 17 15 14 12 12 12 10 14 18 18 17 16 14 13 12 11 10 9 10 10 11
47 48 45 42 39 38 39 35 32 29 26 23 23 23 21 20 21 21 20 19 17 16 15 14 14 13 13 12 11 12 15 18 15 14 14 11 11 13 12 12 11 11 12
44 41 39 37 38 39 32 35 29 24 23 23 21 20 19 19 18 17 15 15 15 14 14 15 13 13 13 12 11 11 14 12 10 11 11 9 10 13 14 14 14 13 14
39 39 41 39 27 27 27 24 22 22 21 18 18 18 16 15 14 13 12 12 11 12 14 12 13 12 12 14 13 12 13 11 9 10 10 10 11 12 14 15 16 15 14
38 38 41 31 32 30 26 22 20 17 16 18 17 15 13 11 10 9 10 10 11 13 13 12 13 13 13 13 11 12 12 13 13 13 12 11 10 11 11 11 12 15 15
30 34 37 36 31 27 23 21 19 18 18 17 13 12 13 11 8 9 10 10 10 12 13 12 12 14 14 13 12 12 12 12 12 11 11 10 11 11 11 8 9 17 17
32 37 34 30 26 23 22 20 19 21 19 16 14 15 13 10 9 9 10 11 11 12 14 14 13 14 15 15 13 12 11 11 10 10 10 10 10 11 13 9 7 5 9
36 31 28 25 23 21 20 19 18 18 16 17 19 15 11 9 10 10 10 12 13 14 16 15 14 13 13 12 12 11 10 10 9 8 8 9 10 11 13 13 12 13 10
29 25 22 20 19 20 20 21 22 21 18 20 18 11 11 12 14 13 14 16 15 14 14 15 14 13 12 12 13 13 10 9 9 9 9 10 10 9 10 12 11 10 11
23 22 22 24 23 21 23 23 23 21 19 17 16 17 16 15 15 14 13 14 16 15 15 15 15 14 13 12 12 12 11 11 11 11 10 9 8 7 7 7 7 8 8
25 23 22 22 24 25 25 23 23 20 18 17 20 21 17 17 16 13 13 13 14 15 16 14 13 12 11 10 10 10 9 8 7 6 7 7 7 7 6 6 6 8 10
29 27 25 26 28 27 25 23 21 19 18 18 21 19 17 17 16 14 13 13 12 11 10 9 9 9 8 8 7 6 6 6 5 5 4 3 4 6 8 9 10 11 13
28 28 27 26 25 25 23 18 19 19 18 16 19 18 17 17 15 15 13 11 11 10 9 9 9 10 9 9 8 7 5 4 4 5 6 7 8 8 11 14 15 16 16
25 27 26 25 24 21 18 16 15 15 16 16 15 14 14 13 12 12 12 11 11 10 10 10 10 8 7 6 5 5 6 7 7 8 8 9 10 11 16 19 22 20 26
22 24 25 24 22 19 18 17 16 16 17 16 14 13 12 13 13 12 12 12 11 10 10 10 9 8 7 6 6 7 7 9 11 13 15 17 18 21 24 24 27 31 33

GFSGL_500_spd_054.txt.gz
Wind_Speed
74 72 70 67 64 59 57 60 54 52 49 48 45 43 44 39 35 36 36 33 34 36 36 34 32 31 29 28 27 29 29 31 33 29 28 28 24 18 15 11 9 9 9
76 74 71 67 64 61 58 56 54 50 47 46 44 43 37 34 33 35 35 34 35 36 35 32 31 31 29 28 29 30 30 31 32 26 27 22 17 15 9 9 9 8 10
78 76 73 69 64 60 56 54 52 48 45 44 41 38 35 33 34 35 35 33 35 35 32 30 31 30 28 29 29 30 30 29 27 23 19 15 12 10 7 8 7 9 11
82 78 74 70 64 57 56 54 51 49 45 41 38 36 34 33 35 36 34 34 36 33 31 30 30 28 28 29 29 30 28 25 23 23 15 9 9 7 6 9 8 6 8
81 80 74 70 64 58 55 53 53 49 44 41 37 35 34 33 35 37 35 36 35 32 30 29 26 27 27 28 28 25 22 22 23 18 15 10 8 10 9 9 8 6 6
69 78 71 68 64 58 54 51 49 45 41 39 39 35 33 33 33 34 35 35 33 30 29 25 27 26 27 26 23 22 21 20 18 16 17 15 14 13 11 11 15 11 9
56 72 70 67 63 59 53 48 43 42 41 40 38 34 33 31 31 33 35 33 29 29 26 26 25 26 25 23 23 22 22 20 17 17 14 14 12 11 13 8 14 12 9
49 65 66 65 63 58 52 45 43 43 41 38 35 32 31 31 32 35 31 31 29 27 27 24 25 25 22 23 22 23 23 22 18 17 13 12 8 9 13 7 9 10 10
51 61 64 63 60 55 51 46 45 45 41 36 33 31 32 32 34 31 30 29 27 26 25 23 25 23 22 22 20 22 21 19 18 17 14 14 10 10 12 11 11 10 10
50 59 62 58 56 53 50 46 45 42 38 35 31 30 32 32 31 29 29 26 26 26 24 24 23 21 23 21 21 19 16 17 17 17 14 12 11 10 9 9 11 10 8
52 58 57 55 52 51 49 46 43 39 35 32 31 31 30 28 28 27 25 24 24 24 23 23 21 22 19 19 17 17 19 17 17 16 15 11 12 11 8 8 8 9 10
54 57 54 51 48 48 46 44 40 38 35 31 30 28 27 26 26 25 23 22 23 23 23 23 22 19 17 15 13 13 18 25 19 16 15 13 12 12 10 8 9 9 8
52 52 50 47 45 43 43 39 37 36 33 32 29 29 27 24 22 22 21 21 21 21 22 20 19 17 15 14 10 9 8 21 21 16 15 13 13 11 11 10 11 10 11
50 47 45 44 43 43 39 36 34 34 33 33 30 25 23 21 20 19 19 19 19 19 19 18 14 12 12 13 10 10 10 13 18 14 13 13 12 14 14 13 12 12 12
46 45 44 43 42 41 37 39 40 37 29 25 25 22 21 19 17 17 16 16 17 16 16 14 12 12 12 12 11 10 11 12 10 10 13 14 13 12 13 14 14 14 14
45 43 40 39 36 35 29 32 32 26 23 22 19 18 17 15 14 14 15 15 15 15 13 10 10 12 12 11 12 11 12 13 12 14 14 13 11 10 11 12 13 14 15
39 38 37 41 36 32 29 24 23 23 23 20 18 15 14 14 14 15 14 13 13 12 11 9 10 11 12 12 11 12 13 13 14 14 13 11 11 11 12 11 11 11 15
38 34 34 38 29 25 28 25 27 25 21 17 15 15 14 14 14 13 12 11 11 11 10 10 11 13 14 13 13 12 13 13 13 12 12 11 11 12 13 12 11 10 8
38 36 34 24 26 26 25 25 21 17 15 17 16 15 15 15 13 11 12 12 12 13 15 13 12 13 14 14 13 13 12 11 11 10 10 9 10 11 11 12 14 15 11
31 34 29 26 26 25 24 20 18 18 19 17 19 17 15 12 10 11 12 14 15 16 15 15 13 12 12 12 12 11 10 10 9 9 9 10 10 11 11 11 13 13 12
29 29 28 27 25 23 23 23 23 21 18 22 21 16 14 12 12 12 14 15 15 16 16 15 13 13 12 11 11 11 11 10 9 9 9 9 10 10 10 9 10 9 10
27 29 28 27 26 26 25 26 25 22 21 23 19 16 16 14 12 11 13 14 13 13 15 14 12 11 11 11 11 11 10 9 9 8 8 8 8 7 7 6 7 9 11
29 27 26 25 25 26 27 26 24 21 20 19 19 19 17 16 13 10 9 11 13 13 12 12 12 11 11 10 10 10 9 8 7 7 6 6 6 7 8 9 12 14 16
24 25 25 25 26 26 25 23 22 20 18 17 18 19 17 16 15 13 11 11 11 11 12 11 11 10 10 10 9 8 8 7 8 8 8 9 10 11 11 12 15 18 19
25 25 26 26 23 23 22 22 19 16 15 13 18 17 17 14 13 13 12 12 11 11 11 11 11 11 10 8 8 8 8 9 9 9 9 10 11 12 14 17 20 23 26
24 23 24 24 25 22 19 18 18 17 15 15 16 15 16 16 15 15 15 15 14 13 12 11 11 11 11 10 9 8 8 8 9 11 14 16 18 20 23 25 27 29 29

GFSGL_500_spd_057.txt.gz
Wind_Speed
65 64 65 65 65 65 64 68 74 66 70 64 64 64 60 53 47 41 40 35 34 38 37 35 35 36 35 34 34 34 31 31 34 37 32 30 29 26 22 19 15 11 8
70 71 69 66 66 64 64 61 60 62 61 54 62 69 54 45 39 37 33 34 34 37 33 34 35 34 33 34 33 33 30 31 32 32 30 26 24 20 19 13 10 9 8
65 75 74 72 69 68 64 61 60 57 55 50 48 47 41 41 37 32 32 36 36 34 32 34 34 33 34 34 32 30 31 32 31 29 25 23 18 16 15 11 9 8 9
63 67 78 78 75 71 68 62 59 57 53 49 45 42 41 39 33 30 33 34 33 34 34 35 34 33 34 32 29 30 30 30 27 24 21 22 14 14 11 10 11 8 8
67 65 71 80 81 75 69 64 58 55 52 49 45 42 37 35 33 30 30 31 33 33 35 34 32 33 32 29 29 29 30 26 23 21 20 15 14 12 11 10 10 9 5
62 65 67 74 82 79 73 66 59 52 53 50 43 40 38 35 32 27 28 30 30 32 32 33 32 31 30 28 29 29 26 24 22 20 17 14 14 15 14 13 11 13 8
52 52 56 60 73 82 74 65 57 51 50 47 43 40 38 33 28 25 29 27 29 32 31 30 28 29 28 28 28 26 24 24 22 20 16 14 16 16 13 14 12 12 13
46 47 51 50 61 76 74 65 58 50 44 43 41 40 36 26 25 26 27 28 31 30 29 30 30 27 28 26 27 25 23 22 21 21 17 15 12 10 11 12 9 10 11
39 40 43 44 49 65 70 63 53 46 43 42 41 37 27 25 26 26 28 29 30 28 30 30 28 27 25 26 26 23 22 20 19 17 15 13 12 10 10 14 13 12 11
43 43 44 44 46 60 61 58 50 47 43 43 38 30 26 26 26 27 28 30 27 29 29 27 26 26 26 24 24 21 19 17 15 15 16 14 13 13 9 9 11 11 11
52 48 43 47 48 56 59 56 50 45 43 39 33 29 27 26 26 26 28 27 27 28 27 25 25 26 25 22 24 18 16 16 16 15 15 15 12 12 11 10 9 10 11
39 44 48 49 53 55 53 51 48 44 41 37 30 28 26 25 24 26 25 25 27 27 26 24 26 25 23 22 21 18 16 14 16 15 15 15 12 12 13 11 9 9 10
35 43 47 45 49 49 49 47 44 41 38 33 30 28 25 24 26 23 24 25 23 24 23 24 23 22 21 19 18 16 15 13 24 20 17 15 13 12 13 15 13 11 11
39 45 45 47 47 46 44 43 39 39 35 31 29 26 25 23 23 24 24 21 21 23 22 21 20 18 16 15 15 13 14 11 18 21 17 15 13 12 14 14 13 12 11
44 46 46 45 44 45 44 42 40 37 34 30 26 26 28 26 25 24 20 20 22 20 18 18 15 13 12 12 11 12 11 8 11 15 14 13 13 14 14 15 15 13 12
47 45 44 45 42 39 39 37 35 35 31 26 25 26 24 24 23 19 20 20 18 17 15 13 11 12 12 11 10 10 9 12 13 13 14 15 14 12 12 12 12 12 12
48 45 40 39 38 38 36 33 34 33 28 28 25 23 22 21 19 21 20 17 16 14 11 11 11 12 11 10 10 10 11 13 13 13 14 13 12 12 12 12 11 12 11
39 37 38 37 36 35 36 35 31 30 29 23 22 22 21 20 19 18 16 13 12 12 13 13 13 12 10 11 12 12 12 12 11 11 11 11 11 12 13 11 12 12 10
36 37 38 38 33 33 24 31 32 29 25 25 23 21 19 17 16 15 13 12 13 14 14 14 13 12 12 13 13 12 12 11 11 11 11 11 11 11 11 10 11 13 15
31 30 38 33 30 40 27 26 25 22 20 20 20 19 18 16 13 12 12 13 14 15 16 14 11 12 12 12 12 12 11 11 11 11 10 9 9 10 11 11 11 12 14
27 27 31 29 28 26 25 24 21 20 21 21 19 19 16 13 11 12 12 14 16 15 14 14 12 12 12 12 12 12 11 10 10 9 9 9 9 9 9 9 8 8 9
31 25 26 26 26 25 23 23 23 23 22 22 21 16 13 11 10 10 10 12 13 14 14 14 13 12 12 11 11 12 11 11 10 9 8 8 9 8 7 7 5 5 8
26 25 24 22 21 22 23 24 23 20 22 23 18 15 14 10 9 10 11 12 12 13 14 13 11 11 11 11 11 11 10 9 8 7 5 6 6 7 8 10 11 13 15
23 20 19 20 22 24 23 24 22 20 20 19 16 15 14 12 11 11 11 11 11 11 12 12 11 10 10 10 9 8 8 7 8 8 8 9 9 11 13 14 14 16 18
20 22 23 23 23 23 24 23 20 17 16 15 16 16 14 14 13 12 12 12 12 12 12 12 12 11 10 8 7 6 6 6 6 8 9 10 11 12 13 15 18 22 24
22 23 23 24 24 23 22 20 18 16 15 15 16 17 15 14 13 13 14 14 13 13 12 11 9 9 8 7 7 7 7 7 8 9 11 14 16 18 20 22 25 28 31

GFSGL_500_spd_060.txt.gz
Wind_Speed
53 54 55 55 55 54 55 54 50 49 51 55 73 58 45 40 40 42 46 46 38 38 37 34 33 34 36 36 36 35 32 33 34 36 31 32 32 28 25 22 20 17 14
53 53 57 58 59 56 55 55 54 52 52 49 49 50 55 49 46 47 51 41 35 37 36 33 33 34 35 35 35 32 31 33 35 32 31 30 28 23 22 18 16 12 11
55 58 57 58 63 62 60 59 56 54 54 53 51 47 55 55 52 47 40 43 37 36 33 34 34 35 34 35 33 31 32 33 30 32 31 27 23 22 18 16 13 11 11
54 57 58 58 58 62 65 63 60 56 55 54 51 46 44 46 42 36 36 35 36 33 33 34 35 34 32 33 31 30 31 29 30 31 29 24 23 21 14 14 13 12 11
56 57 60 61 60 58 65 68 65 60 54 53 50 45 42 40 36 35 33 33 34 33 33 36 34 32 30 29 29 29 29 30 30 29 24 21 21 14 13 13 13 11 9
62 61 60 58 59 61 58 66 69 65 58 51 49 46 43 39 36 32 32 32 35 34 35 33 32 29 27 26 26 28 28 30 30 28 23 21 18 16 15 16 16 13 12
67 66 63 62 60 59 63 60 69 67 62 52 48 46 42 37 35 34 33 34 35 35 32 31 28 24 24 24 27 27 27 29 28 26 23 21 18 16 16 15 14 14 12
72 65 57 55 59 57 59 60 61 69 65 55 47 42 40 38 38 37 33 35 35 32 30 27 24 23 22 25 27 26 27 27 27 25 24 19 16 15 11 12 10 10 10
50 55 49 52 52 52 55 59 61 67 66 55 45 42 40 42 39 39 34 35 32 30 26 23 22 22 21 26 25 26 26 26 26 21 21 16 14 14 10 8 9 12 11
33 40 46 41 40 44 49 49 60 66 65 54 44 44 42 42 40 34 35 30 29 24 22 21 23 23 25 24 24 26 24 25 22 20 16 14 15 14 13 10 8 10 10
31 34 38 39 39 38 39 46 55 61 61 51 47 46 45 39 35 30 29 28 23 22 22 23 22 25 24 23 25 25 22 20 20 15 16 15 15 11 12 11 9 9 10
41 44 40 41 36 34 40 41 49 58 58 52 48 45 37 35 30 29 26 21 20 22 20 20 25 23 25 24 25 25 20 18 16 16 12 13 14 12 12 12 12 12 11
40 34 34 43 41 39 43 49 57 57 50 46 44 37 34 31 28 25 21 20 20 21 20 23 23 24 24 24 22 21 19 16 16 16 20 15 15 14 12 13 14 12 12
20 24 29 29 43 42 45 51 53 50 46 43 38 35 31 27 25 22 20 20 17 19 21 23 25 24 23 20 19 18 17 16 16 14 13 14 14 14 13 14 15 14 13
21 26 28 36 46 52 57 57 51 47 42 38 36 30 27 25 24 22 19 18 19 22 24 23 21 19 18 17 15 14 14 14 13 14 17 16 14 13 13 15 15 15 14
29 38 47 51 52 54 56 53 49 45 42 38 35 31 27 25 23 21 18 20 22 22 21 18 17 16 15 14 11 11 11 9 9 12 19 17 15 15 15 14 14 14 14
52 56 55 52 47 49 50 55 47 47 39 34 30 28 26 27 24 22 21 22 23 20 16 16 13 13 12 11 11 12 11 9 11 13 14 14 14 13 12 12 11 12 13
52 48 50 44 43 33 46 39 39 30 27 29 30 25 21 19 21 21 22 22 19 16 15 14 12 11 10 11 11 13 11 10 11 9 8 9 11 12 11 11 11 12 12
44 29 33 30 29 33 33 33 32 33 32 29 26 24 22 21 21 20 19 18 17 16 17 17 15 14 13 12 12 12 11 11 11 11 11 11 11 11 10 10 10 10 11
30 35 33 30 31 32 31 28 30 29 29 30 26 24 23 21 19 18 18 16 15 15 15 15 15 13 12 11 11 12 11 10 10 10 10 10 9 9 9 9 10 11 12
32 32 30 28 23 23 26 29 33 28 25 22 21 20 18 18 18 18 16 15 15 14 15 16 13 13 13 11 11 11 10 10 9 9 8 8 8 8 9 9 11 10 9
25 27 26 26 29 29 27 28 27 25 25 22 20 20 19 18 16 14 13 15 16 15 14 14 12 11 12 11 11 10 9 9 8 7 7 8 8 9 8 7 7 6 5
30 26 28 34 28 29 29 27 26 22 21 20 21 20 18 15 14 13 13 13 13 15 15 15 14 11 9 9 9 8 9 9 8 8 9 7 6 3 3 6 8 11 12
26 25 26 27 26 24 23 22 21 23 23 24 21 17 16 15 14 14 13 14 14 15 15 13 11 10 9 8 7 7 7 6 5 4 3 3 5 7 9 11 13 15 16
18 19 20 21 21 22 21 22 21 21 22 20 15 16 15 13 12 12 12 12 12 12 12 12 10 9 8 8 7 7 6 5 3 3 4 6 8 9 11 14 17 20 22
16 18 19 19 19 20 23 22 20 19 17 15 14 14 13 13 11 10 10 11 12 12 11 10 10 10 10 9 8 7 6 6 5 5 5 7 11 14 18 21 25 27 29

GFSGL_500_spd_063.txt.gz
Wind_Speed
42 44 45 47 47 46 44 43 44 40 39 47 54 67 60 51 40 43 49 45 42 26 29 25 25 32 34 35 31 31 31 31 32 29 30 28 28 31 30 25 23 23 17
48 46 46 47 49 49 48 46 43 42 41 38 40 41 46 49 42 46 42 39 36 26 29 26 32 37 35 32 30 31 31 30 32 28 28 26 28 29 27 24 19 20 14
48 48 47 46 48 51 51 50 48 46 43 41 41 40 39 43 42 39 38 41 33 29 31 33 35 32 32 33 30 32 31 31 31 28 25 26 28 25 24 23 16 16 14
50 49 51 51 49 47 49 52 50 50 47 44 41 42 41 42 38 35 32 28 29 33 32 35 32 30 31 29 31 33 29 30 29 26 26 27 26 22 22 17 14 15 14
53 47 49 51 50 50 49 47 51 53 51 50 45 42 43 43 38 31 26 24 28 32 31 33 32 29 30 30 32 30 27 28 27 25 25 25 24 24 21 17 16 15 14
59 59 59 58 58 57 51 51 50 53 54 55 51 48 42 40 36 32 28 27 31 32 34 33 29 29 30 31 31 24 26 27 24 25 25 24 22 23 21 18 19 19 15
60 60 62 62 63 62 59 54 53 55 55 55 55 53 44 41 38 35 32 30 34 37 36 32 29 30 30 30 27 25 26 26 24 24 26 25 22 21 20 17 18 18 13
72 72 69 70 68 67 64 61 54 54 56 55 55 57 48 44 43 39 37 37 37 37 35 31 29 29 28 27 25 25 25 22 24 24 27 25 21 22 19 16 15 15 12
57 58 62 67 67 67 70 66 60 56 53 55 55 60 54 46 46 44 41 39 38 37 32 30 28 27 27 26 25 25 21 23 22 24 25 20 19 21 18 14 11 11 11
53 58 62 62 60 62 68 69 65 56 57 55 53 58 55 48 45 45 44 40 37 35 30 28 27 27 28 25 25 23 20 22 22 24 24 21 18 19 17 15 14 12 8
39 38 42 45 48 46 52 57 58 54 51 49 53 52 54 50 47 48 44 41 35 30 28 26 26 28 26 25 21 22 21 20 22 21 18 16 16 16 16 16 14 11 8
39 40 40 43 36 33 41 48 57 56 50 49 48 51 55 49 50 47 42 35 31 27 26 26 28 27 25 22 20 21 20 21 22 21 20 19 17 17 16 15 13 12 11
39 42 43 38 36 37 33 36 39 43 47 49 52 52 54 49 49 43 36 32 29 27 26 28 28 23 21 20 20 19 21 21 21 22 18 18 15 17 17 13 12 12 10
40 38 35 37 40 41 35 32 36 42 52 54 51 59 51 49 44 37 34 31 27 26 28 28 23 21 19 19 19 22 22 21 19 20 17 21 21 17 17 13 12 13 12
22 27 24 35 41 44 40 35 31 38 49 56 59 52 50 42 35 34 32 28 28 28 26 22 19 16 18 20 20 20 19 18 17 17 15 15 15 15 15 13 13 13 12
21 24 24 29 36 39 44 40 41 50 62 61 54 47 43 38 37 33 30 30 28 24 19 16 14 17 18 17 16 15 15 15 15 15 17 19 20 16 15 13 12 12 13
18 22 24 27 31 42 47 48 53 63 66 63 49 43 41 34 32 31 30 28 20 15 15 13 16 15 15 14 14 15 14 13 12 11 14 18 16 14 13 9 10 10 10
31 33 36 43 53 56 54 58 61 57 59 41 38 38 35 34 33 30 25 19 17 15 14 15 14 13 13 13 15 15 12 12 10 9 10 11 12 11 9 9 10 10 10
50 53 54 51 53 54 48 52 54 36 42 41 38 36 31 27 24 23 22 20 17 15 15 15 14 14 14 14 16 14 13 11 10 9 8 8 7 7 8 9 9 9 9
45 46 49 49 42 38 32 38 40 47 40 36 33 29 27 26 24 23 22 19 16 16 16 15 16 15 15 15 13 12 12 11 10 9 8 7 6 7 7 7 7 9 10
39 38 39 41 37 37 36 41 39 39 37 34 32 28 25 23 21 20 17 17 17 16 15 15 15 16 17 16 14 12 10 9 8 8 7 6 6 6 6 7 7 7 6
32 33 33 32 30 30 29 32 30 28 30 27 25 24 21 19 18 17 16 16 15 16 15 16 16 16 16 15 14 11 10 9 8 7 7 6 6 6 6 6 2 2 3
27 26 28 25 24 24 24 25 27 26 25 24 22 20 18 18 17 16 16 17 17 17 17 19 18 16 15 14 13 11 10 9 8 7 6 5 4 4 4 1 2 5 8
22 25 26 27 27 28 30 26 25 24 22 21 19 18 18 17 17 17 16 17 18 19 19 20 18 15 13 12 12 11 10 9 8 8 7 6 4 2 4 6 6 8 11
25 29 24 27 26 25 24 23 20 20 20 20 20 20 18 18 18 18 17 16 16 18 19 18 16 14 14 13 12 12 12 11 10 9 7 5 4 4 6 9 12 15 19
19 20 20 20 19 19 19 20 20 20 21 20 19 20 19 18 18 18 18 18 18 17 17 17 16 16 16 15 13 12 12 11 8 6 5 4 5 7 10 15 18 20 23

GFSGL_500_spd_066.txt.gz
Wind_Speed
39 39 39 40 42 43 44 45 46 48 49 49 47 43 41 46 51 61 60 56 59 52 47 30 33 27 26 31 32 32 32 29 25 22 24 23 22 24 26 29 29 26 22
42 41 41 43 44 44 44 44 44 43 42 42 43 45 38 36 36 46 50 47 47 45 42 50 35 27 30 34 33 34 31 28 26 24 22 23 23 23 27 27 26 27 18
44 41 40 41 43 46 47 47 47 46 45 44 42 40 41 34 34 41 56 42 44 40 41 37 26 28 29 38 35 33 31 28 27 24 19 21 24 23 26 25 26 19 16
39 40 39 39 42 44 44 46 50 52 50 47 45 43 40 40 38 40 35 44 40 34 38 37 31 31 34 38 32 35 33 26 25 23 22 20 22 24 24 25 24 19 16
43 42 45 49 51 49 48 49 47 48 51 52 49 45 43 40 35 34 36 34 31 30 34 32 34 34 35 34 33 37 30 25 22 20 23 22 23 25 24 24 23 19 17
52 48 45 47 52 53 55 54 52 50 48 50 52 50 45 42 41 39 40 38 36 41 38 37 37 31 32 33 33 32 28 23 24 19 23 22 22 24 25 27 23 19 17
57 59 62 66 59 55 61 60 58 54 52 48 52 52 51 47 43 43 39 37 37 39 38 35 33 29 31 33 30 27 27 23 23 22 23 23 24 24 26 25 21 18 17
67 70 68 64 66 63 61 63 67 64 62 56 51 54 54 51 49 44 39 36 38 39 38 32 30 32 32 30 27 27 25 23 23 24 23 23 24 25 22 22 19 16 16
63 61 59 64 66 69 70 68 66 66 65 61 55 52 54 54 51 48 41 38 41 41 38 33 33 34 31 28 23 25 24 22 22 23 23 23 24 23 23 20 16 14 14
60 61 62 64 66 66 66 66 59 61 69 69 61 56 52 58 53 49 46 43 43 43 39 36 37 31 27 26 24 24 23 21 23 23 23 24 25 23 20 16 14 15 15
61 64 62 57 58 61 60 63 63 58 56 58 60 57 51 55 54 49 50 47 44 43 40 38 32 26 25 24 25 23 23 24 24 23 23 23 21 15 16 14 14 16 15
55 55 54 53 53 50 42 37 39 47 52 56 59 58 51 49 52 51 53 49 44 42 40 41 28 22 24 25 24 23 24 24 24 24 24 24 19 18 18 16 15 16 14
48 46 46 42 40 34 35 42 42 49 55 52 61 57 51 51 48 49 53 49 46 41 40 36 30 24 25 24 24 24 25 25 23 23 25 21 17 17 15 14 14 15 14
42 42 40 39 37 37 40 44 36 32 35 46 56 59 56 53 47 50 53 48 42 41 39 30 24 25 24 25 24 24 25 24 24 24 21 19 16 22 19 16 15 14 15
40 40 39 35 32 42 39 32 29 27 33 44 58 58 51 46 49 51 50 42 39 38 32 26 25 24 25 24 23 23 23 23 22 21 18 17 18 14 19 16 16 15 13
40 38 34 34 30 30 35 33 31 28 37 44 52 52 47 48 52 53 46 41 40 35 28 25 25 24 23 23 22 21 20 20 19 17 18 18 18 16 13 13 13 13 12
44 38 28 23 24 22 36 39 36 35 39 48 54 50 50 50 52 47 44 39 35 30 26 25 22 20 21 20 18 18 17 15 14 14 15 17 18 17 15 11 11 10 9
24 21 20 22 20 22 38 40 40 31 41 55 50 51 53 52 46 44 39 36 30 28 26 21 20 20 19 18 16 15 12 11 11 11 11 10 12 13 11 10 9 7 9
19 17 16 18 20 24 29 35 35 40 51 57 57 58 50 45 40 39 35 31 28 25 22 21 20 19 18 14 12 11 10 12 11 9 7 7 9 10 9 9 7 8 7
36 33 30 24 31 34 42 44 56 63 66 64 59 48 36 31 40 36 32 29 25 22 22 21 19 17 14 11 10 10 12 13 12 12 10 10 10 10 9 7 7 6 6
48 44 43 39 40 45 57 55 64 53 47 38 47 45 41 35 33 31 28 26 23 22 22 20 16 15 14 13 12 12 14 14 12 11 10 10 9 7 6 6 7 7 7
28 34 30 31 32 40 30 42 37 38 40 43 43 41 38 34 29 25 24 22 23 23 20 17 17 17 17 16 15 16 16 15 13 10 8 7 7 7 7 6 6 6 5
37 37 38 39 36 46 36 32 35 35 33 33 31 28 25 23 21 21 22 23 23 20 18 18 17 16 17 17 17 16 14 13 12 12 11 10 9 9 7 6 6 5 5
31 31 32 32 35 35 31 28 27 26 25 24 22 21 22 23 25 26 23 20 18 19 20 21 19 18 19 18 18 17 16 14 13 12 11 11 8 8 7 5 4 4 7
23 22 22 23 24 24 26 25 24 23 22 23 22 22 23 22 20 18 17 18 20 20 20 21 21 19 20 20 19 17 16 15 15 14 12 9 7 7 6 6 5 7 10
20 21 23 22 24 22 23 23 22 22 22 22 22 20 18 17 18 18 19 19 19 21 22 22 23 22 21 20 19 18 17 16 13 12 11 10 8 6 6 7 10 14 16

GFSGL_500_spd_069.txt.gz
Wind_Speed
39 39 41 46 49 51 52 52 50 48 49 47 48 48 46 42 43 37 41 40 41 41 43 41 44 39 41 30 26 31 32 30 28 26 26 27 28 26 25 24 25 26 23
42 41 41 41 43 44 45 47 49 51 51 49 47 46 45 46 44 44 41 36 36 45 40 40 40 39 38 36 44 36 31 34 28 25 27 27 28 27 24 23 25 24 23
42 40 41 43 44 45 45 44 44 43 43 44 44 44 43 42 40 42 41 32 40 44 35 35 33 41 38 37 36 32 30 33 27 25 26 27 29 26 24 22 24 25 22
48 43 44 46 48 49 48 48 47 45 44 44 43 43 42 40 37 37 37 33 30 41 38 37 40 39 39 36 34 32 34 34 28 26 26 27 28 26 25 21 25 25 22
52 54 44 47 51 49 49 49 48 47 47 47 47 46 44 42 39 39 37 37 35 36 40 44 48 46 38 37 36 34 37 31 28 25 27 27 26 26 25 22 24 25 23
50 53 51 49 46 46 46 44 43 42 44 46 47 48 48 47 44 42 39 38 37 37 37 40 46 47 44 41 43 38 38 33 25 23 25 26 26 25 24 23 27 26 21
49 53 53 49 53 47 47 48 47 43 42 46 46 46 47 49 48 45 43 39 40 38 37 36 34 37 40 43 40 40 37 32 23 23 25 26 25 25 23 24 27 21 20
49 52 58 54 56 58 51 49 48 53 53 53 51 49 50 49 50 49 46 45 42 43 38 40 38 41 41 43 42 40 38 26 20 25 26 25 25 23 22 25 24 21 19
61 57 60 64 63 65 67 63 61 63 61 60 60 59 54 53 54 49 50 47 46 44 39 40 42 42 45 43 45 42 35 22 23 25 24 23 24 22 22 26 23 20 15
66 65 61 63 68 71 72 71 64 64 60 61 61 64 67 61 57 55 51 51 48 46 42 40 43 40 42 44 38 33 23 21 23 22 22 24 22 19 21 21 15 14 12
69 61 59 59 60 61 64 67 66 64 65 66 63 61 59 62 58 54 55 53 51 49 46 41 42 41 43 37 38 30 21 19 23 22 21 21 20 19 21 20 17 13 11
71 69 65 62 61 61 60 61 59 62 65 62 59 58 59 63 63 55 51 57 56 51 48 42 42 41 38 39 33 24 17 21 22 22 20 21 22 20 20 19 17 13 11
68 66 65 64 58 56 61 65 61 57 59 51 54 60 52 53 59 58 53 59 59 53 50 45 43 40 28 34 32 17 18 20 22 21 21 20 21 20 19 16 14 11 10
53 56 57 57 54 52 48 49 48 40 39 33 33 33 55 45 50 57 57 57 58 53 49 47 40 36 24 29 18 15 18 21 21 21 21 20 22 19 19 17 13 11 11
42 38 39 44 45 44 42 40 39 42 42 35 35 38 42 50 50 56 53 52 51 50 49 43 33 34 33 21 15 16 18 20 23 23 21 22 20 17 17 18 14 12 11
38 35 31 33 34 35 36 36 34 35 39 38 39 42 45 47 52 52 48 45 47 50 44 35 34 34 26 18 17 19 20 22 23 21 21 19 19 16 12 7 10 10 10
44 39 35 34 35 35 31 27 32 35 33 30 35 43 52 54 55 52 47 45 49 46 40 36 36 26 21 18 18 19 21 20 19 19 18 16 17 16 11 10 8 9 9
22 37 40 28 27 29 33 32 30 25 24 23 27 37 53 58 52 47 46 46 44 42 39 35 29 24 20 18 18 20 18 17 15 14 15 14 14 14 13 12 10 10 10
15 26 30 25 20 24 26 22 24 30 26 26 39 49 50 47 44 42 41 40 40 40 35 30 25 21 18 18 17 16 15 13 13 12 10 10 12 14 14 12 12 10 10
24 18 15 16 16 15 21 25 28 31 34 37 45 45 44 42 39 39 40 38 40 33 30 28 23 20 18 15 14 13 15 15 12 11 12 11 13 14 13 13 11 11 12
45 39 34 30 22 20 23 25 25 32 44 48 46 45 45 45 44 39 40 34 36 32 28 24 21 18 15 16 17 16 15 14 15 15 13 12 12 13 13 13 12 11 11
42 40 40 33 29 27 24 24 35 43 46 48 47 47 48 49 39 35 36 35 32 28 24 22 20 19 19 20 18 16 17 17 16 15 15 15 14 13 13 11 10 10 9
28 29 34 37 37 34 31 32 39 44 46 45 48 49 35 38 38 33 32 29 26 23 21 20 20 21 21 18 17 19 20 20 19 19 17 14 13 13 10 9 7 6 6
31 33 33 33 35 40 37 35 36 39 37 39 40 36 35 27 31 29 29 27 25 23 22 22 22 21 19 19 21 21 20 20 17 15 14 13 11 10 10 10 8 7 7
31 30 32 31 32 31 31 31 32 31 31 32 24 24 27 28 27 26 26 24 23 22 21 21 20 20 20 23 24 23 21 18 17 16 15 13 13 12 11 9 9 8 7
15 17 19 22 24 25 26 26 26 26 24 24 25 25 24 23 22 22 23 23 22 21 21 22 22 22 24 25 24 22 21 19 18 16 16 15 15 12 11 10 8 9 11

GFSGL_500_spd_072.txt.gz
Wind_Speed
42 43 46 48 53 57 59 55 52 50 52 51 50 47 48 47 45 44 39 33 29 31 34 33 31 31 36 34 34 32 32 34 27 29 30 29 22 23 23 27 27 26 25
51 52 50 44 45 46 49 53 54 53 51 51 51 50 46 47 45 41 41 35 34 33 36 34 32 34 39 34 37 33 35 31 31 30 28 27 21 23 22 27 26 25 26
54 53 49 41 39 40 42 45 49 52 54 54 53 50 48 46 46 43 41 38 37 38 37 39 38 43 43 35 32 35 32 32 31 26 30 25 20 23 22 24 23 25 26
59 55 48 41 38 41 44 44 45 46 47 47 48 47 46 43 40 39 37 36 37 36 36 36 40 40 42 43 41 36 33 35 34 32 33 28 23 21 23 22 23 25 26
58 54 50 47 43 43 41 43 46 47 47 46 45 44 43 41 39 38 37 36 35 34 34 34 34 42 43 44 40 40 34 34 34 35 33 27 21 20 21 21 23 25 25
61 55 54 53 50 49 45 43 43 48 50 49 47 46 44 43 42 40 38 36 34 33 32 33 32 30 39 42 42 39 35 35 34 34 31 29 21 22 21 22 24 25 25
56 54 53 55 51 52 52 50 50 52 53 51 50 48 46 46 45 43 41 38 36 35 32 33 33 31 35 42 49 50 43 40 39 35 32 31 20 22 21 22 23 24 25
54 60 58 56 56 55 56 55 53 52 52 51 48 45 42 41 42 43 44 43 39 37 37 36 34 35 35 35 38 45 45 45 41 34 36 26 20 21 20 21 22 25 24
56 58 57 55 65 67 57 56 58 56 50 49 48 45 42 41 39 41 43 44 42 39 39 39 37 37 38 39 37 35 38 41 35 36 36 20 19 19 18 20 22 22 17
60 60 61 66 58 59 56 46 50 51 60 51 50 48 49 49 48 47 46 46 44 43 43 42 41 40 40 42 43 38 39 37 33 34 27 17 21 18 19 21 21 16 15
64 66 67 65 66 60 65 58 52 52 58 59 59 58 58 56 56 54 54 53 45 44 44 43 43 43 41 41 40 39 38 40 35 34 28 21 16 19 19 21 19 14 16
68 63 64 65 65 63 66 61 62 61 62 60 60 62 66 65 66 66 63 60 54 51 49 48 45 46 43 40 36 37 33 43 32 28 22 18 18 20 19 19 17 12 16
74 74 71 68 65 64 60 58 58 57 57 58 61 62 63 66 65 67 60 64 66 61 59 57 51 48 45 38 35 36 34 35 31 26 18 18 18 18 18 17 14 12 13
68 75 72 66 63 60 62 58 59 55 53 56 61 59 53 52 58 60 58 62 64 61 62 61 54 50 45 38 39 37 30 30 25 20 18 15 18 17 17 16 15 14 13
39 51 58 64 54 51 57 57 57 59 62 55 52 53 52 53 54 59 56 51 56 55 61 58 51 48 43 37 34 38 31 25 20 18 16 17 17 16 16 14 15 17 17
25 36 42 41 38 40 44 50 51 45 44 45 42 39 40 39 38 43 51 51 57 55 60 49 42 42 40 34 41 32 24 18 18 16 16 17 16 16 14 12 12 12 12
21 28 35 35 33 33 32 35 40 39 40 38 37 41 41 38 33 37 49 49 54 57 52 43 36 39 35 36 27 26 19 18 16 15 14 14 13 15 15 13 12 11 13
17 28 29 28 28 27 28 30 32 32 31 32 36 39 42 41 40 41 49 43 51 50 41 35 35 35 35 32 20 18 17 16 14 13 14 14 15 15 15 15 16 14 14
13 25 26 22 22 20 20 23 26 29 29 32 35 35 35 34 38 43 44 39 42 36 34 36 37 37 34 24 21 18 16 13 12 14 15 15 14 15 17 18 20 18 14
11 16 22 20 17 21 21 23 25 26 24 20 22 28 39 41 41 39 39 37 34 35 36 35 35 32 28 24 21 17 14 14 15 14 14 14 14 14 19 21 20 16 14
26 15 16 15 15 16 19 19 17 20 20 24 22 23 34 45 44 36 36 35 35 36 37 35 30 31 27 23 19 16 17 18 17 17 16 15 17 20 19 18 16 14 12
39 37 28 22 20 21 25 28 24 23 23 25 29 33 39 40 37 37 36 37 37 35 31 28 32 28 25 22 19 20 21 19 19 19 19 17 16 16 16 15 13 12 10
47 48 47 42 35 28 26 27 27 29 29 30 34 36 36 37 38 38 36 33 34 33 30 31 28 25 23 20 21 21 20 20 21 21 19 16 15 15 14 13 11 10 10
38 34 39 38 35 29 26 28 30 32 31 29 28 29 36 39 34 32 34 39 39 34 29 26 25 24 22 22 20 19 20 22 21 18 15 14 16 16 14 13 11 11 9
30 34 31 29 30 30 27 26 25 26 26 30 36 40 33 37 39 32 30 28 30 28 26 25 25 23 23 22 21 22 22 21 18 16 16 18 19 16 15 14 12 9 7
19 23 24 24 28 25 25 22 23 30 34 30 34 32 36 36 32 26 28 28 27 25 25 24 22 21 22 24 24 23 22 19 18 19 20 20 17 15 15 13 11 9 9

GFSGL_500_spd_075.txt.gz
Wind_Speed
55 54 52 47 47 50 55 58 57 57 57 55 51 50 51 49 46 46 47 48 46 43 41 38 34 30 29 32 32 29 30 30 27 28 29 31 29 33 31 22 23 23 23
58 56 55 51 52 53 54 55 58 60 57 53 51 50 50 49 46 43 41 41 40 40 40 36 36 33 31 29 30 32 34 33 33 28 30 32 34 33 32 24 20 22 22
64 66 64 56 58 57 52 49 47 51 55 55 53 50 50 49 46 42 40 37 38 39 37 36 38 36 33 35 37 39 37 38 33 29 33 33 33 32 32 21 17 20 20
59 63 62 61 60 57 53 49 47 45 43 48 52 53 53 51 49 46 43 40 37 36 36 37 36 36 36 36 37 43 43 39 39 34 27 29 29 34 33 21 15 18 19
59 62 63 64 62 59 54 49 43 43 41 41 43 45 48 50 51 48 44 41 38 35 34 34 34 33 34 36 35 38 44 38 37 30 28 33 28 25 23 18 15 19 20
63 63 66 68 65 58 55 50 43 41 41 43 40 40 40 41 41 41 39 36 34 33 31 30 30 32 33 34 33 35 43 45 46 50 35 29 27 26 26 19 16 18 20
67 68 67 64 64 62 57 53 48 45 45 43 41 39 39 39 39 38 37 35 34 32 31 31 32 32 32 34 35 31 38 46 45 34 35 38 24 30 30 18 17 17 20
64 60 63 60 62 62 59 55 49 50 47 47 41 38 39 40 40 40 39 37 35 35 35 35 35 34 35 33 31 33 30 32 43 41 38 38 38 33 28 13 16 17 18
62 60 58 59 54 60 68 61 52 53 50 48 47 44 45 46 44 43 42 41 41 39 38 37 36 35 35 36 34 31 31 31 28 37 41 44 39 30 20 12 17 16 16
64 63 60 56 54 56 59 56 55 55 53 48 49 47 48 49 47 45 42 44 43 41 40 37 37 37 36 36 36 33 32 31 32 28 35 34 35 30 21 17 17 14 15
72 69 66 66 62 57 57 55 52 57 58 52 51 52 49 49 48 45 43 42 41 38 34 33 37 39 37 38 36 34 33 31 31 32 29 35 25 24 21 17 15 15 15
76 75 71 67 62 61 60 57 54 53 55 50 54 56 51 51 51 50 49 48 46 43 42 37 36 38 39 36 36 33 32 30 31 32 30 28 26 27 20 17 15 16 16
84 81 77 73 69 66 63 60 58 53 53 50 55 50 47 46 50 53 50 51 48 46 45 45 36 41 45 45 39 35 33 32 31 33 25 23 25 21 17 16 15 16 15
44 77 83 77 72 69 66 62 60 59 58 59 60 56 57 53 50 55 57 58 56 52 56 53 53 48 49 51 46 41 38 32 32 32 34 34 24 19 18 16 16 16 15
32 36 60 71 69 70 67 62 59 59 57 56 56 60 58 58 57 53 55 56 58 57 62 67 64 59 56 53 50 45 41 31 34 33 38 21 22 19 18 18 16 17 17
29 24 28 42 58 66 66 67 63 59 55 57 59 56 57 58 52 52 59 60 57 52 57 56 62 59 57 53 49 44 40 32 33 41 22 23 20 19 19 17 16 16 17
29 25 25 28 34 48 64 62 53 55 58 59 60 58 55 55 55 55 52 50 53 57 51 43 47 57 53 47 43 43 37 32 36 26 27 21 19 19 19 17 17 15 16
20 23 25 25 21 25 39 46 47 48 50 55 59 53 53 54 50 50 48 45 44 42 46 47 44 45 39 37 40 36 30 33 28 24 21 19 18 19 18 17 17 17 19
9 11 15 17 22 27 35 39 40 38 38 40 45 44 41 41 42 40 35 28 29 29 43 44 42 39 35 38 35 29 24 23 21 21 20 19 19 20 21 17 21 21 19
17 15 12 12 15 17 17 18 20 24 27 31 33 34 33 34 35 38 36 32 28 36 37 36 35 34 35 34 30 26 25 21 20 21 21 20 20 16 17 22 22 22 20
20 18 19 19 17 13 13 16 19 21 24 27 31 29 31 34 36 33 32 30 32 29 32 33 33 31 32 33 32 28 24 24 23 22 20 20 20 21 23 24 22 22 18
22 19 16 12 11 12 15 14 11 16 19 22 25 27 29 27 27 28 30 39 32 36 33 32 32 34 34 30 29 27 25 25 24 22 21 20 18 19 18 19 19 17 16
39 28 24 21 20 19 17 16 16 17 19 20 25 31 31 31 30 32 36 39 37 33 33 33 31 30 27 30 26 26 26 25 25 24 21 19 16 16 17 17 16 15 14
42 41 35 32 30 26 23 21 20 21 23 25 34 38 38 34 32 38 37 36 35 34 32 30 27 27 28 24 24 26 25 24 24 22 19 17 16 17 18 16 15 14 14
36 38 41 35 28 24 21 18 19 23 28 31 36 37 35 35 35 33 35 32 32 35 32 29 33 29 26 25 25 24 25 25 22 20 19 19 20 19 16 15 15 13 14
25 27 28 32 30 27 21 18 16 16 17 20 25 27 29 29 29 30 31 31 29 28 30 31 28 26 25 26 26 25 23 23 21 21 22 22 19 17 17 16 16 16 15

GFSGL_500_spd_078.txt.gz
Wind_Speed
62 61 60 59 60 60 55 55 57 59 59 56 55 58 58 55 53 52 52 51 49 46 44 45 44 39 39 33 32 29 30 30 29 32 24 29 29 30 32 29 29 32 33
62 61 60 60 61 59 57 57 53 57 59 59 58 55 55 56 53 52 52 52 50 46 43 40 40 37 32 32 32 34 33 28 26 30 26 34 30 33 32 34 35 34 34
53 66 64 61 62 60 58 55 54 57 59 59 58 58 57 55 54 52 51 50 48 45 41 37 36 33 31 33 33 33 33 35 35 36 36 35 34 35 34 36 40 34 30
49 63 69 67 66 65 63 60 54 52 49 49 52 56 58 56 53 51 50 48 45 43 40 36 34 33 32 32 33 35 37 36 34 36 40 39 39 37 27 35 27 32 26
45 57 72 74 72 67 64 61 58 55 51 45 48 48 48 49 49 49 50 48 45 41 38 36 34 34 34 34 34 33 36 33 32 31 39 41 42 35 37 28 27 24 18
46 51 58 68 73 70 65 62 61 58 52 46 47 45 45 43 42 43 46 48 46 43 38 36 35 35 35 33 33 34 34 30 29 28 31 37 41 33 34 35 28 25 19
49 50 56 59 62 66 66 64 62 57 51 48 47 41 40 38 38 35 36 37 38 36 36 35 35 34 33 32 32 32 29 28 29 28 26 32 35 41 39 28 26 33 22
50 52 58 63 61 62 60 58 59 57 53 50 47 42 39 37 37 34 33 34 32 33 33 33 33 32 31 30 29 29 30 27 28 29 26 24 23 37 39 26 25 25 15
62 57 61 64 66 73 72 67 61 65 60 54 50 46 42 40 37 35 33 33 33 33 34 34 33 30 29 30 30 32 32 30 27 29 27 24 22 22 17 23 25 23 14
67 67 67 67 66 69 69 71 64 61 61 59 52 49 46 43 40 36 35 35 35 34 34 34 32 31 31 32 32 32 34 31 27 28 27 26 24 21 21 24 22 15 17
67 66 69 67 61 60 63 62 60 66 63 60 53 52 48 45 44 39 34 37 38 37 37 36 34 34 33 33 32 31 32 28 25 26 26 25 24 23 23 29 29 19 18
74 70 67 73 68 63 61 59 60 60 55 55 58 60 55 51 46 43 36 37 39 40 41 40 38 36 35 31 31 30 29 24 20 24 25 25 24 26 21 23 25 21 19
62 74 77 71 73 72 63 62 61 59 55 52 53 59 57 56 53 47 38 41 40 40 42 42 41 35 31 28 30 31 33 28 23 26 26 27 25 27 17 19 26 20 18
59 58 61 81 77 75 72 67 64 62 55 55 52 50 54 55 54 50 44 44 45 43 41 41 41 39 37 32 33 33 33 32 29 31 28 28 24 33 24 18 18 19 16
37 49 43 44 76 77 73 71 65 60 57 58 54 54 56 55 58 51 47 44 47 48 44 44 44 43 38 37 37 38 42 40 36 35 32 29 35 33 25 22 21 19 17
29 36 36 34 43 69 77 76 72 67 61 58 56 55 52 54 53 47 47 49 45 43 47 47 50 46 40 42 44 44 47 46 42 39 35 28 37 37 21 21 19 18 18
13 32 32 31 36 44 58 82 73 69 65 59 56 53 54 55 54 53 55 51 52 49 50 51 49 50 48 48 49 52 52 47 44 41 32 31 35 21 21 19 19 19 20
19 19 18 14 14 22 35 61 72 65 64 64 57 50 50 53 53 51 51 55 48 48 48 47 52 54 54 55 55 54 49 43 43 39 30 30 23 22 22 20 20 21 20
8 4 7 9 11 15 25 43 63 61 58 59 58 56 53 53 53 51 48 45 46 47 49 46 46 48 51 48 48 40 37 39 40 30 29 35 25 23 22 22 21 20 19
19 15 12 9 7 7 11 23 40 54 60 54 59 60 59 59 53 48 47 50 48 49 49 46 45 43 47 47 40 33 33 33 28 27 31 35 23 25 25 26 22 22 22
22 20 17 16 14 10 10 11 18 29 46 47 42 45 46 45 48 49 46 43 42 41 36 33 36 40 41 39 33 30 29 27 24 25 24 24 24 21 17 20 22 20 22
24 21 15 11 11 11 12 16 19 23 27 28 28 27 29 31 32 34 35 34 35 35 29 27 30 34 34 32 31 30 28 24 29 26 24 23 22 21 17 16 20 23 22
33 27 26 23 18 13 8 7 13 18 21 22 22 25 25 27 29 30 30 30 30 30 30 31 33 33 35 32 31 30 29 29 25 24 24 22 23 20 20 19 22 23 18
34 31 28 27 26 24 22 17 17 16 20 23 26 26 25 25 24 25 26 30 31 33 36 37 36 32 31 29 25 28 30 28 24 24 25 20 22 22 21 20 21 20 19
38 37 30 26 26 29 29 28 22 18 24 25 25 26 30 30 31 33 34 33 39 39 38 34 31 29 26 28 27 28 26 24 24 24 25 24 24 20 19 20 20 18 17
29 31 38 31 24 24 27 28 28 26 29 31 30 28 27 30 30 32 37 37 36 33 30 29 30 27 24 24 24 24 24 26 25 25 25 25 23 22 21 19 18 17 16

GFSGL_500_spd_081.txt.gz
Wind_Speed
57 58 63 63 66 63 64 67 63 63 65 70 53 54 59 56 51 53 51 51 50 50 48 48 44 42 41 38 38 35 35 29 26 27 27 26 29 33 26 31 29 32 32
56 52 56 60 61 60 58 58 59 61 58 79 78 57 57 55 53 50 50 51 51 49 47 46 44 42 40 36 35 34 35 31 28 29 32 31 29 34 26 35 33 34 33
58 54 52 57 62 60 60 58 58 65 57 28 36 51 54 51 50 49 49 49 52 51 50 46 44 42 40 37 36 32 32 31 28 28 30 34 38 34 39 35 35 37 33
54 53 49 51 56 62 63 67 69 49 43 46 48 52 53 53 52 53 54 52 49 48 47 45 43 41 38 35 35 34 34 31 27 27 30 32 35 39 40 42 37 36 32
47 51 49 47 53 57 64 69 53 51 59 59 57 52 53 54 53 54 54 53 51 47 45 45 43 41 38 36 35 35 33 31 28 28 30 31 32 33 35 38 39 36 30
55 50 50 47 55 56 61 65 66 66 62 61 52 49 48 45 42 46 45 45 47 47 46 44 43 38 37 36 34 33 32 31 31 30 27 28 30 28 29 35 33 31 33
52 50 50 50 51 56 63 73 75 70 68 64 57 56 50 47 39 41 41 39 40 43 44 44 43 40 38 36 34 33 32 30 28 27 24 27 26 25 21 24 27 34 29
59 54 52 54 56 55 61 74 78 74 69 67 55 53 51 49 36 41 41 39 37 34 33 35 36 37 36 36 34 33 31 29 28 24 21 25 25 25 19 20 28 21 19
66 60 56 54 56 56 61 60 77 80 73 68 61 56 52 47 41 42 40 38 36 33 30 32 34 35 36 35 33 30 28 27 24 23 22 24 24 23 22 19 17 18 15
64 68 65 58 53 58 54 66 61 71 78 68 63 59 52 43 47 42 41 38 37 34 31 31 30 31 32 31 29 26 24 24 23 24 22 23 24 22 20 20 22 15 11
71 67 71 70 62 60 60 55 62 57 63 65 62 57 54 50 51 44 43 40 38 36 34 31 31 31 30 29 26 24 24 24 24 23 21 20 22 22 21 17 19 17 18
34 68 70 73 71 64 59 60 52 61 60 63 62 59 56 52 53 46 45 42 41 39 37 36 34 32 30 28 27 26 25 23 22 24 21 19 21 22 20 21 19 18 16
35 37 68 72 72 71 64 62 56 60 58 67 67 61 58 57 49 47 46 43 41 37 36 40 37 34 33 31 31 28 25 24 22 23 23 19 20 20 21 22 23 19 17
30 35 39 66 70 70 63 61 62 58 55 65 68 62 59 54 53 48 44 44 39 40 36 37 39 37 36 36 33 30 25 23 22 22 20 21 22 21 22 25 32 20 20
22 28 37 41 63 68 68 61 58 57 54 50 58 51 49 46 43 48 50 48 47 42 42 37 38 37 34 35 34 32 30 28 25 24 21 23 25 23 25 29 24 19 24
12 26 26 30 40 54 63 64 60 56 59 56 55 54 51 49 47 46 47 51 48 46 45 44 41 39 36 34 36 34 34 36 30 27 26 26 28 26 27 34 17 21 20
6 6 16 25 36 34 41 46 61 63 57 61 56 52 52 51 47 46 42 47 49 48 45 46 42 40 39 36 38 38 38 34 30 31 33 33 29 30 29 37 15 22 20
21 21 17 17 20 28 36 39 46 63 71 62 61 57 58 55 49 48 49 47 46 47 45 48 44 43 40 38 38 40 42 40 36 35 35 37 36 32 31 25 14 19 18
14 11 8 8 11 16 22 29 38 45 64 68 62 62 57 52 51 48 49 48 47 44 45 43 43 45 40 41 40 41 42 40 39 38 37 37 35 30 29 25 19 20 19
20 16 9 1 7 14 17 19 22 37 58 66 67 61 59 58 54 49 47 49 47 46 46 46 45 42 40 40 41 39 39 40 43 41 41 35 31 30 32 22 22 23 22
21 18 16 13 7 2 7 8 13 17 22 34 59 60 54 53 52 51 49 50 49 48 48 44 45 47 46 43 41 40 41 40 39 41 41 27 24 33 27 27 26 24 22
31 30 25 18 13 11 11 9 7 10 16 29 47 51 47 49 51 51 48 43 40 41 43 43 46 46 46 44 42 40 38 36 33 35 30 23 35 28 23 21 22 27 29
28 28 28 23 14 11 9 10 10 10 12 20 40 43 40 39 38 38 41 42 43 45 45 41 39 40 43 41 42 43 40 37 37 32 27 29 23 17 20 21 21 19 21
27 29 29 30 30 21 13 11 14 14 12 12 16 23 28 29 28 29 31 31 32 33 35 34 30 28 30 31 33 35 38 39 33 25 26 25 23 19 21 20 18 18 17
34 28 26 30 31 26 22 17 16 15 14 14 15 18 21 21 22 24 25 26 29 28 28 31 27 27 31 35 37 37 34 31 23 23 26 23 22 22 23 22 18 18 20
30 25 36 29 28 29 27 22 18 14 13 13 13 16 17 19 20 22 23 26 26 25 27 28 32 37 37 35 34 31 28 26 26 23 19 17 20 21 22 22 22 20 19

GFSGL_500_spd_084.txt.gz
Wind_Speed
61 62 67 72 71 74 77 77 76 73 72 69 62 61 66 71 72 75 76 61 56 50 51 47 46 43 41 36 38 35 34 31 26 21 25 24 27 28 33 36 37 35 25
60 61 55 60 57 54 58 72 74 75 72 68 70 68 75 76 73 86 77 61 49 45 45 45 42 40 40 38 37 35 32 30 29 26 25 28 27 29 33 38 38 35 30
50 54 52 54 50 51 56 56 60 68 71 71 72 73 67 85 66 46 35 33 39 42 42 43 41 39 36 35 36 33 32 32 32 27 23 28 30 31 33 36 34 38 38
46 46 50 50 50 52 50 52 58 61 63 66 70 73 75 77 63 50 19 32 36 38 36 35 36 36 35 35 34 33 31 30 28 27 25 28 30 32 33 34 29 32 35
45 47 49 48 46 47 48 49 52 60 62 62 65 57 79 66 57 25 21 29 33 36 35 36 34 34 33 32 33 31 28 28 27 28 27 29 31 30 30 32 28 28 28
52 48 47 47 46 45 48 48 53 56 66 69 66 61 54 24 20 18 30 32 33 36 37 37 38 36 35 34 32 30 29 29 29 31 29 30 32 30 30 30 25 23 22
58 53 48 48 48 47 51 52 49 40 50 67 68 69 50 27 28 31 33 35 32 33 33 34 37 38 39 34 31 30 30 31 31 30 30 30 28 26 25 26 25 21 20
47 61 55 51 50 50 56 51 53 51 48 60 63 64 39 40 38 35 35 36 34 35 32 32 34 37 36 36 32 30 30 31 32 31 29 26 25 23 22 23 24 22 20
38 42 58 53 48 56 57 51 45 40 44 54 60 57 50 48 42 42 38 38 36 33 30 30 28 30 35 36 35 33 32 33 33 29 24 22 20 20 20 19 21 23 16
28 31 48 61 58 51 56 55 50 50 45 42 52 57 54 53 50 45 42 41 37 33 31 26 27 30 32 33 32 33 34 34 30 23 22 19 17 17 18 19 18 24 20
34 29 31 60 66 63 55 53 54 56 53 49 50 57 62 60 57 50 44 42 43 34 33 29 29 30 29 31 31 30 28 26 24 22 19 16 15 14 17 19 19 22 22
30 30 31 36 69 69 63 54 55 54 47 52 52 47 58 62 59 51 50 46 38 34 35 31 30 29 30 29 26 25 24 24 21 17 16 16 16 15 16 17 19 21 22
28 29 28 33 45 68 66 59 59 58 58 43 60 37 42 55 58 58 54 45 42 39 38 34 30 32 32 29 27 24 24 22 20 19 18 15 16 15 17 19 19 19 21
24 25 22 30 32 54 67 65 61 62 55 60 52 40 42 41 43 46 45 47 46 38 37 35 33 33 34 33 30 26 25 24 24 23 20 15 10 14 20 22 20 17 23
18 14 16 24 33 36 64 68 67 61 52 47 45 33 37 42 45 53 45 45 43 37 37 35 37 33 32 35 34 32 31 28 28 25 19 15 15 17 20 22 22 24 18
20 11 3 10 22 25 53 63 64 62 58 52 47 47 44 48 47 41 50 45 43 42 43 40 37 38 31 31 37 37 35 32 30 27 22 17 18 23 21 23 25 27 25
28 22 3 7 12 14 37 55 58 56 53 51 51 52 50 50 47 59 50 43 43 47 45 41 40 39 35 29 32 38 38 37 33 28 27 23 22 22 24 26 24 31 29
22 21 19 6 12 11 20 33 47 54 48 46 47 50 50 48 44 56 51 43 43 43 41 42 40 38 38 34 31 35 39 38 33 29 29 25 25 23 25 25 23 31 16
31 22 14 9 6 13 17 23 35 45 52 52 49 50 52 50 46 44 48 43 41 42 41 36 34 36 35 35 30 33 37 36 34 33 32 31 28 26 25 24 24 23 15
29 22 19 11 2 6 12 17 23 30 41 51 56 56 56 57 53 50 48 48 45 39 40 37 34 37 39 38 34 36 34 34 33 31 33 33 31 30 29 25 26 32 23
34 27 19 16 12 3 9 17 19 22 28 38 40 52 65 60 57 53 50 48 45 40 38 36 36 34 35 38 38 37 36 36 38 32 33 31 33 31 31 30 30 35 21
36 34 26 17 18 15 10 3 12 15 13 18 32 33 45 62 53 49 48 47 43 42 39 37 38 34 37 36 37 37 39 40 35 35 30 30 32 33 33 28 34 26 22
35 37 34 22 20 19 17 15 12 11 10 10 11 30 38 42 48 43 44 45 42 41 39 38 39 39 38 39 38 41 38 34 35 36 33 32 33 35 28 26 35 26 23
40 35 35 28 22 21 19 20 19 17 14 13 7 9 17 31 44 38 36 37 38 40 40 39 40 40 41 39 37 37 34 37 42 41 35 34 28 30 25 18 16 16 19
41 33 31 30 21 18 19 17 16 16 15 14 12 10 17 23 28 28 29 31 31 33 40 41 39 37 38 38 38 40 46 47 43 37 37 36 35 29 23 18 17 17 19
30 30 34 30 25 21 19 16 13 9 8 10 9 7 10 11 17 22 24 26 28 29 33 37 38 40 40 37 36 38 41 40 40 39 38 30 29 21 27 24 28 23 22

GFSGL_500_spd_087.txt.gz
Wind_Speed
52 55 59 60 64 68 71 80 83 81 79 73 67 68 67 69 66 59 64 65 70 65 65 58 54 53 55 60 52 49 40 28 25 23 25 22 22 22 22 27 32 36 36
57 58 59 62 64 64 64 74 74 83 84 79 71 70 70 71 67 66 72 73 68 65 57 57 56 48 51 52 51 50 35 32 28 22 22 22 22 22 24 26 30 33 36
57 57 55 59 63 62 54 66 74 71 78 83 79 74 74 71 74 68 74 69 62 31 53 67 55 44 49 46 46 42 32 31 26 24 21 22 24 23 26 28 32 34 35
61 56 52 52 56 58 50 49 52 54 58 70 82 78 75 72 74 70 65 63 58 50 23 56 48 33 41 39 36 33 32 29 28 26 23 21 25 25 26 29 31 34 32
67 62 59 53 47 53 43 45 46 49 53 56 69 78 77 70 73 72 69 71 66 61 49 47 25 20 29 29 33 33 33 33 27 25 24 22 26 27 27 29 31 31 29
57 46 43 54 48 46 44 48 45 46 52 55 58 59 63 70 70 68 67 65 54 60 51 44 19 17 25 30 29 26 28 29 25 23 24 24 26 27 26 30 29 27 27
44 51 43 43 42 44 46 50 46 45 51 52 51 55 59 61 62 57 61 50 45 35 30 15 12 20 28 28 27 30 32 29 28 26 25 25 25 26 28 29 26 25 24
42 40 39 39 39 42 49 50 47 45 50 50 48 50 59 62 56 69 40 44 44 36 20 14 16 22 26 29 34 34 30 30 28 27 26 26 27 28 29 27 26 19 21
44 41 38 33 33 37 52 50 48 44 48 46 46 46 48 56 52 55 49 22 26 19 13 15 19 22 25 26 29 31 31 31 29 27 25 26 25 26 27 25 22 19 20
35 34 32 31 27 28 55 51 47 45 44 40 44 53 35 32 39 54 29 21 21 20 22 22 21 24 23 22 25 29 33 31 30 28 25 25 24 25 24 22 18 18 21
37 34 28 27 26 28 46 50 47 44 41 44 45 28 45 45 41 47 37 27 29 27 26 23 24 24 23 19 23 27 30 32 30 28 25 24 23 24 21 17 17 16 21
46 34 27 25 25 32 35 53 47 45 46 45 42 17 36 34 42 38 33 34 29 26 23 25 25 20 19 18 22 25 30 31 30 26 25 25 23 20 17 16 16 15 18
45 28 20 19 21 31 32 52 47 49 50 42 36 30 31 31 33 33 36 36 29 29 26 22 25 21 21 20 22 24 26 28 26 26 25 23 20 16 17 15 15 16 17
41 32 18 15 17 25 33 48 54 49 44 41 35 40 33 28 31 37 35 38 35 33 28 27 27 24 23 20 21 23 26 27 27 26 24 21 18 17 18 17 16 18 20
38 38 14 12 16 22 27 35 59 51 46 41 43 37 33 32 35 39 34 34 40 38 34 30 28 27 26 23 24 26 28 29 28 27 24 21 19 18 14 15 15 17 21
40 36 18 9 9 19 25 32 54 57 51 44 41 41 47 40 45 38 26 32 34 39 44 35 33 31 32 30 25 27 28 31 31 28 26 23 21 19 18 17 18 18 19
43 34 27 12 4 9 24 27 47 60 59 52 46 38 40 45 41 30 41 30 38 36 43 41 38 33 34 32 29 27 28 31 31 30 27 26 24 21 17 15 16 17 20
44 32 26 16 13 6 10 29 41 53 59 58 49 43 36 37 34 32 37 40 34 34 41 41 41 41 36 32 33 28 26 29 32 33 32 30 28 24 20 15 18 20 23
47 32 22 17 12 10 7 22 34 45 58 58 51 47 45 45 44 39 34 34 35 40 41 38 42 38 36 36 33 33 28 25 27 31 35 33 30 28 23 21 20 20 23
48 35 25 22 15 6 6 10 21 25 50 55 53 50 49 50 49 45 42 35 32 39 40 43 47 43 38 36 37 38 34 30 28 30 30 32 31 28 26 25 23 19 25
44 37 30 26 23 13 1 7 12 24 28 40 51 51 47 50 51 49 43 40 36 42 44 45 46 42 37 37 39 39 35 32 27 28 30 33 31 29 30 30 27 25 23
39 32 32 28 29 22 12 5 11 16 22 29 37 47 49 48 46 43 43 42 40 42 45 42 40 40 35 37 39 36 39 34 29 29 32 31 30 29 28 26 26 26 25
33 35 31 30 27 28 22 13 6 14 19 24 30 40 48 53 53 50 48 46 44 48 47 45 44 42 37 35 36 34 38 41 40 34 32 32 28 27 26 25 26 25 31
32 30 30 31 25 23 22 21 12 5 6 11 16 23 35 43 48 54 54 47 46 43 43 44 45 39 40 39 38 36 34 38 40 35 36 36 33 29 28 28 29 33 21
28 32 36 31 25 28 25 19 16 16 11 9 8 5 12 34 31 35 45 49 39 40 40 42 42 42 40 35 35 36 35 38 42 40 42 37 33 31 31 33 32 15 12
25 26 32 30 27 29 26 22 18 14 13 12 15 9 8 12 25 26 38 40 35 36 38 40 39 40 37 37 38 36 38 36 41 42 37 37 36 37 35 37 30 18 15

GFSGL_500_spd_090.txt.gz
Wind_Speed
49 50 49 51 55 58 61 63 64 64 68 83 87 84 81 80 79 82 78 76 75 65 50 50 52 58 57 57 61 58 48 46 43 44 37 28 29 30 28 26 25 26 28
51 55 58 61 61 57 59 62 62 61 69 70 76 91 87 84 81 81 76 75 71 62 58 55 55 60 59 60 62 51 46 48 49 48 38 28 31 31 28 26 25 27 29
61 66 70 73 74 74 68 65 66 68 63 71 71 70 88 88 86 82 81 74 70 68 65 66 64 63 56 59 51 53 50 47 46 41 38 34 34 30 27 27 27 26 28
64 69 73 75 77 76 72 67 66 66 65 60 67 70 65 87 90 86 83 80 72 70 69 65 66 61 54 50 56 55 49 49 39 29 33 35 35 30 26 29 27 25 29
63 67 69 72 76 72 66 61 58 63 59 55 63 62 64 68 86 90 86 83 76 71 71 64 59 63 60 38 45 46 45 37 38 33 33 38 34 30 26 28 27 28 29
64 66 66 61 57 52 51 50 53 57 54 54 58 59 57 63 67 83 87 80 77 70 68 61 54 58 38 40 47 45 41 38 34 37 36 36 31 30 27 28 27 30 31
65 64 58 52 51 49 48 50 46 50 52 56 52 47 47 52 57 58 75 76 72 64 62 59 53 47 40 40 49 41 37 28 30 35 34 32 32 29 29 28 29 29 27
63 57 51 46 45 46 48 46 48 48 50 53 49 46 44 48 46 47 60 60 63 59 56 52 46 43 42 43 48 34 27 29 31 34 34 31 28 29 29 25 27 25 25
64 53 48 45 46 45 44 39 40 41 46 49 47 43 43 46 42 38 46 33 50 31 41 34 35 41 38 37 33 28 32 33 36 34 32 30 33 32 26 26 26 22 21
62 51 46 49 48 41 37 35 33 35 44 44 42 42 42 43 34 39 45 35 38 51 39 46 37 32 25 24 25 27 29 32 34 30 31 34 33 30 25 25 24 21 17
60 51 47 50 44 33 29 29 26 34 43 42 38 39 37 34 37 39 34 36 26 31 34 33 32 32 29 26 26 26 27 27 30 32 33 33 30 27 22 23 23 18 17
58 55 48 50 31 19 20 21 22 38 40 39 36 38 35 34 38 31 40 42 38 33 32 28 26 22 22 24 25 26 25 29 32 33 33 30 30 26 25 24 21 18 17
60 59 46 37 17 12 14 16 21 38 43 38 35 35 34 31 36 44 41 42 43 37 37 31 27 24 21 20 22 25 24 26 30 33 34 30 29 27 27 24 20 18 17
64 51 38 30 13 14 13 15 20 40 41 35 33 36 40 14 43 47 45 42 44 38 34 31 28 29 26 25 22 23 24 26 28 30 31 31 29 28 26 22 18 17 17
62 39 34 26 19 16 13 14 17 43 40 34 32 31 22 44 43 43 37 40 39 32 33 31 25 28 27 27 25 23 23 25 27 28 30 31 29 28 24 20 18 17 16
51 39 34 27 21 15 3 15 20 46 40 35 35 28 24 38 49 38 41 33 33 33 33 31 27 29 31 27 25 23 24 28 30 31 32 32 29 24 22 20 19 17 17
47 40 37 32 29 18 2 11 22 43 36 35 35 33 29 41 49 59 45 33 34 34 34 38 32 31 32 30 26 24 25 26 29 31 32 31 29 25 24 23 20 17 16
45 40 39 33 29 26 3 9 21 43 38 39 36 32 34 41 42 47 40 39 30 31 36 36 30 33 32 31 28 24 21 24 27 29 31 32 30 27 25 24 21 18 18
43 40 36 33 29 29 21 4 13 35 39 41 37 34 30 36 34 40 37 35 28 26 32 33 27 32 33 30 29 27 26 24 26 28 29 30 30 28 29 26 25 23 19
37 41 39 30 26 21 17 15 7 12 34 39 38 35 37 36 37 32 35 31 36 34 23 31 30 31 38 33 32 31 30 29 26 26 30 31 31 31 31 29 30 26 21
35 34 36 37 26 18 10 7 6 2 5 17 34 39 38 37 34 29 33 34 27 36 28 35 33 36 41 39 36 34 31 32 33 27 27 31 32 34 32 31 30 29 27
33 31 30 30 30 24 14 6 1 5 9 12 16 30 43 43 41 38 39 38 35 32 29 29 35 41 41 40 34 34 34 36 36 33 28 27 32 32 30 29 29 27 25
30 36 25 27 26 24 21 14 6 2 8 13 17 28 38 43 46 45 44 45 44 41 38 33 42 41 38 38 37 37 39 38 38 35 31 28 28 28 25 24 24 20 19
28 31 25 23 22 22 17 16 9 2 3 9 16 21 27 34 41 49 51 50 50 49 47 41 43 46 46 44 38 38 39 37 37 38 34 29 29 26 26 23 24 22 23
22 24 24 22 19 20 18 14 10 10 8 6 8 12 20 30 39 48 51 48 46 48 50 50 49 52 48 47 45 41 39 40 40 40 40 37 35 30 29 27 28 25 25
17 19 22 24 22 13 10 12 11 5 4 5 4 5 11 14 20 33 48 51 50 48 47 50 52 53 50 48 49 45 42 42 40 38 39 42 41 36 32 34 33 30 29

GFSGL_500_spd_093.txt.gz
Wind_Speed
52 54 56 57 59 59 58 58 59 63 66 69 71 70 66 67 71 85 84 84 83 83 85 85 82 80 57 40 43 52 56 54 52 40 43 42 40 36 33 28 29 28 26
43 43 47 47 50 54 58 61 64 67 70 74 77 79 76 72 68 72 83 87 87 86 83 79 82 76 62 55 48 57 54 53 56 51 51 47 40 32 28 25 26 28 25
42 44 48 53 58 60 63 67 72 75 78 78 76 79 80 79 75 71 71 81 88 88 87 82 74 74 66 58 59 53 60 56 70 49 52 49 43 30 27 30 30 32 27
42 47 52 56 60 64 68 72 76 79 83 82 77 74 77 77 75 75 71 72 78 88 88 83 74 70 65 64 64 54 46 55 47 51 54 51 49 41 29 29 33 32 30
47 51 56 61 63 66 71 73 77 77 72 70 65 65 69 72 71 74 72 60 72 77 88 85 74 69 65 66 65 49 49 47 42 51 57 59 49 38 36 33 37 34 31
50 56 60 63 63 68 71 74 72 65 61 62 55 54 60 62 61 63 68 63 67 64 78 83 76 69 67 65 58 55 45 44 47 42 53 44 34 35 32 32 36 34 32
53 59 60 63 66 67 71 71 62 57 58 56 52 53 51 51 54 58 52 57 61 62 63 73 78 68 65 60 51 50 44 42 38 52 49 41 38 36 31 33 36 34 35
56 60 63 64 68 73 74 66 56 52 53 52 51 50 47 47 50 46 49 47 50 62 57 61 68 68 60 52 49 47 42 35 32 37 37 38 40 40 36 34 36 37 35
56 60 64 67 74 77 73 60 52 51 48 47 45 49 47 47 42 45 38 36 38 43 45 42 49 60 50 49 45 45 41 33 37 44 41 38 38 36 33 36 37 36 35
56 61 68 77 81 65 52 49 46 38 33 36 37 38 40 33 36 35 32 37 29 28 38 33 35 50 45 41 48 47 45 41 44 41 39 38 35 37 37 35 34 35 32
58 66 76 67 53 47 38 30 23 22 27 30 30 31 26 34 35 36 32 34 41 39 35 35 35 38 42 41 44 49 50 48 41 36 35 37 39 36 33 30 34 31 24
59 69 61 50 46 38 24 19 15 17 21 23 20 23 28 31 31 32 32 25 49 46 33 37 42 40 46 49 41 44 38 33 34 39 39 37 35 30 30 29 29 24 20
59 61 51 46 42 35 23 20 16 13 14 17 20 27 29 27 27 30 33 36 37 43 42 40 44 52 45 40 38 34 33 32 32 32 33 33 30 30 28 25 24 22 20
57 53 49 44 42 35 24 17 10 8 12 21 23 27 27 31 30 25 24 35 48 56 56 39 44 40 36 34 31 30 31 32 31 32 31 31 30 28 27 27 24 23 22
55 52 48 43 41 37 20 9 2 5 21 21 24 24 25 26 25 30 33 46 37 39 39 42 43 38 33 34 35 34 34 32 30 30 31 32 31 30 29 27 25 25 24
52 52 50 42 41 31 14 5 4 11 23 21 19 19 21 23 28 30 44 50 42 44 42 43 40 32 27 26 29 31 31 30 30 31 30 30 30 30 29 28 27 26 25
48 48 51 40 40 28 14 9 3 18 22 20 21 19 16 10 23 37 48 57 49 42 44 42 34 29 27 26 27 27 28 27 29 31 33 32 31 31 31 30 28 27 23
45 46 45 43 34 36 24 16 7 23 21 18 15 9 16 36 42 47 37 41 41 37 41 36 34 27 24 23 20 24 26 25 25 26 30 31 33 32 31 28 27 25 21
41 43 41 41 33 29 33 24 11 21 19 21 20 18 13 38 42 43 34 37 33 30 31 38 34 28 26 24 23 27 30 28 27 27 27 29 30 31 32 30 28 26 21
37 40 40 37 35 25 22 23 17 13 17 18 19 19 15 24 30 30 44 31 29 32 29 31 35 36 29 27 27 28 32 32 29 29 29 29 29 32 33 31 29 25 23
32 35 36 37 33 29 18 15 14 12 14 17 20 19 16 16 22 23 40 31 31 30 30 33 33 35 36 31 32 34 36 34 31 29 29 30 30 30 32 30 28 27 26
27 28 30 32 32 28 23 15 9 9 9 11 19 24 24 20 22 28 31 30 41 35 30 32 35 38 32 35 35 37 37 35 34 33 29 28 29 30 30 30 28 28 27
21 24 25 26 26 27 20 18 12 4 2 6 13 21 27 30 31 31 31 27 32 35 30 37 40 31 35 31 35 39 36 33 33 33 31 28 27 27 28 29 29 28 26
19 20 22 25 24 23 19 15 11 9 6 4 10 15 19 29 36 40 40 37 37 38 36 33 37 35 35 37 41 39 35 36 34 32 30 33 32 29 25 27 28 26 23
22 17 18 22 23 24 20 14 13 7 5 4 3 8 15 22 26 31 38 43 48 45 44 42 41 39 33 37 42 38 36 39 37 34 30 31 34 29 23 24 24 23 19
22 21 21 24 23 19 21 20 10 5 10 7 8 7 9 11 16 24 34 43 48 52 54 54 51 49 44 43 44 42 39 41 39 36 31 32 35 32 27 26 24 24 24

GFSGL_500_spd_096.txt.gz
Wind_Speed
47 47 45 47 51 53 53 54 53 53 56 58 60 63 64 64 65 65 65 64 66 67 67 67 66 77 77 76 78 76 69 64 60 44 54 40 49 52 46 43 42 30 29
47 47 49 49 47 47 49 51 54 57 59 60 61 63 64 66 67 71 73 72 71 70 72 72 68 67 73 77 75 75 71 62 60 56 54 49 54 54 48 50 35 28 27
47 46 43 43 43 47 51 54 57 61 64 67 70 72 73 73 75 76 76 76 78 77 73 74 72 66 67 72 78 74 65 57 56 63 51 51 57 50 45 44 33 28 30
41 39 42 46 49 53 56 60 65 69 72 73 72 74 76 77 76 77 79 78 74 80 76 73 75 68 61 68 74 76 64 54 54 57 53 55 53 60 45 43 38 33 35
38 41 46 50 53 55 61 66 70 73 74 76 79 78 77 79 79 72 65 66 65 75 80 73 74 69 63 64 69 74 65 62 58 58 57 50 55 54 46 43 40 38 34
37 43 48 52 57 63 68 72 76 78 80 81 82 85 83 80 71 66 58 59 56 69 74 68 70 69 64 66 66 67 67 62 57 53 63 45 44 48 51 49 49 33 33
41 46 50 56 60 66 70 75 80 86 91 93 94 91 83 66 60 58 54 51 51 54 54 63 63 68 58 63 59 61 64 60 56 47 54 40 40 46 42 47 51 41 38
42 46 51 57 61 65 74 81 75 66 65 63 61 61 59 55 52 48 47 47 47 45 50 50 56 54 54 53 52 55 58 52 48 46 44 35 36 35 41 40 42 43 35
42 47 54 59 63 72 73 62 63 57 53 53 49 45 45 44 44 41 42 43 39 35 34 39 38 44 43 43 46 49 51 46 42 43 44 39 39 47 44 44 43 39 34
42 50 55 60 67 68 57 58 51 45 36 33 28 23 25 28 30 33 33 28 31 30 27 31 35 34 37 31 38 42 43 37 30 38 35 35 38 43 47 46 43 36 36
45 50 55 62 67 58 56 54 48 37 34 30 21 16 17 20 23 24 31 31 26 24 29 23 31 32 33 31 32 32 32 35 36 36 36 35 42 47 45 45 40 39 35
46 49 56 64 60 57 58 58 43 29 26 20 15 14 16 16 21 24 28 31 30 30 25 19 26 25 23 33 39 41 30 33 37 33 28 48 49 47 40 38 38 35 28
45 49 56 60 55 56 55 40 25 18 16 13 7 12 15 14 18 22 27 34 14 33 33 31 33 31 29 36 42 42 36 32 29 30 42 48 44 39 37 37 34 30 29
43 50 56 55 50 51 44 32 21 14 6 9 11 16 16 12 13 16 24 12 20 23 32 33 36 39 42 52 45 43 45 47 41 44 47 42 37 37 37 32 29 28 27
43 49 53 49 44 46 38 25 22 10 13 10 11 13 13 12 14 12 14 14 18 29 33 35 44 48 43 53 53 52 49 49 50 48 42 36 32 32 31 32 30 28 29
39 47 51 46 41 43 35 23 14 16 16 12 12 12 9 9 10 8 10 13 31 36 40 33 41 45 40 38 39 40 40 38 34 31 32 35 37 36 35 33 31 30 28
38 45 47 44 41 37 31 17 15 15 13 11 10 9 8 5 5 11 10 30 35 41 37 39 41 42 40 37 34 35 35 36 37 37 37 38 39 38 36 34 31 28 26
35 40 44 44 39 34 34 15 12 11 13 15 14 12 9 8 7 8 22 34 35 42 41 42 39 37 34 31 30 30 31 31 31 31 32 34 35 34 33 31 28 25 25
31 33 38 42 37 31 29 16 11 10 11 21 21 18 24 26 25 16 29 27 31 31 35 37 34 31 32 28 25 23 25 27 28 26 24 25 26 28 27 26 26 25 22
27 27 31 36 38 30 23 20 10 11 7 9 15 17 23 23 25 15 31 30 31 30 38 27 27 28 26 24 21 18 19 21 20 20 22 22 21 22 24 24 25 24 21
23 22 23 28 31 32 22 16 13 6 7 7 8 8 17 22 23 23 27 36 29 30 25 30 32 33 29 26 23 19 18 20 21 23 24 23 24 25 26 27 28 26 23
20 19 19 20 24 26 27 20 11 6 3 6 9 10 11 16 24 26 26 29 27 27 29 33 35 34 34 33 31 27 24 25 27 27 26 26 26 26 26 28 29 28 25
22 21 19 17 19 22 22 22 19 10 1 6 10 14 14 15 16 20 28 37 34 31 30 31 35 36 35 34 33 29 30 31 32 29 30 29 29 28 28 28 27 27 25
22 22 21 20 19 20 21 19 15 17 14 4 11 15 19 22 22 25 36 44 33 36 33 36 37 39 41 38 35 34 35 35 36 36 34 33 32 31 31 28 26 27 29
22 21 22 22 22 20 17 16 15 12 14 16 10 12 19 22 27 32 37 40 37 32 33 40 35 35 39 37 33 34 32 36 39 39 37 37 35 34 31 29 26 27 28
23 22 21 22 21 21 21 18 17 18 13 15 18 20 16 18 24 27 31 37 40 39 40 43 41 42 44 44 46 39 38 37 42 40 39 37 35 36 35 31 27 25 27

GFSGL_500_spd_102.txt.gz
Wind_Speed
41 42 43 43 44 46 46 44 45 43 44 46 48 49 50 54 58 61 62 61 61 61 63 62 63 62 62 61 58 55 53 54 49 48 49 44 44 50 44 43 51 50 46
39 41 41 41 42 41 42 39 40 44 47 50 50 48 49 50 53 56 58 61 63 64 65 65 64 66 66 64 63 62 58 52 52 50 49 49 44 42 46 43 42 47 44
37 37 37 38 39 36 39 42 44 45 43 43 46 50 54 59 62 63 65 66 68 69 70 71 72 72 70 69 67 66 63 60 56 56 55 53 49 44 41 44 39 41 43
35 34 36 34 34 37 36 36 38 40 43 48 52 55 58 61 65 69 71 73 74 76 77 77 77 77 76 74 71 70 70 67 61 57 58 54 52 50 44 40 41 38 37
33 33 30 32 34 32 34 37 40 44 47 51 56 61 67 71 75 78 81 82 84 85 85 86 85 83 80 79 75 72 71 67 63 60 60 57 54 51 46 37 38 37 34
31 29 29 30 31 33 36 40 42 47 52 58 64 69 73 77 81 85 88 88 87 86 83 83 84 84 83 84 80 75 71 67 61 61 59 57 57 51 47 43 38 41 38
27 28 26 28 30 34 37 41 48 54 59 65 70 74 76 76 78 77 76 80 82 77 71 68 68 71 73 70 76 73 72 67 61 59 54 57 58 50 46 42 42 41 38
27 24 25 27 30 33 40 47 52 58 63 67 68 69 72 69 66 65 61 56 52 54 58 60 61 61 64 63 69 69 68 65 59 54 52 53 50 47 48 45 43 44 43
21 21 24 25 29 37 43 49 55 59 65 63 64 66 65 58 55 48 43 41 44 45 46 47 48 51 57 59 63 67 63 61 57 54 54 55 53 47 45 43 47 42 36
20 19 21 25 32 37 45 51 55 61 59 54 58 58 51 43 36 33 30 32 28 22 24 26 28 31 39 45 53 57 62 52 54 53 54 55 55 51 47 42 42 38 35
16 16 20 26 32 40 47 51 55 54 48 48 47 44 35 26 22 22 21 21 22 22 18 18 19 26 27 34 41 46 45 45 46 44 47 48 49 54 49 46 41 42 36
13 15 21 26 34 40 45 49 50 42 42 39 39 36 30 20 14 12 10 14 14 13 14 16 16 17 23 28 32 37 42 41 42 43 44 47 50 49 47 48 39 43 35
13 16 22 27 34 39 44 45 41 35 38 33 34 29 27 23 21 20 14 10 6 5 10 11 17 21 22 23 28 35 41 41 39 44 46 46 45 45 49 46 44 41 34
13 16 22 26 32 37 41 41 31 35 33 30 26 28 31 25 20 16 17 10 7 11 7 11 18 17 18 27 31 34 31 40 41 39 39 40 47 50 49 46 41 37 31
14 17 22 24 29 34 35 31 30 32 28 25 23 23 24 23 16 12 17 8 10 13 9 13 12 14 12 20 28 29 31 33 35 37 41 46 48 45 44 39 38 34 32
17 19 21 21 25 31 31 27 25 29 29 24 24 23 26 25 20 21 14 11 10 8 10 10 10 10 16 22 25 27 32 36 37 38 36 38 39 37 33 43 49 46 51
18 18 19 17 22 26 28 26 22 24 26 24 17 21 23 24 21 17 16 12 7 8 7 10 14 15 14 18 26 26 22 44 32 33 31 35 35 42 45 47 55 53 45
17 16 15 16 17 21 25 24 19 17 22 18 15 17 23 23 18 16 19 21 18 14 12 8 10 15 20 25 28 33 31 27 21 38 45 39 44 45 44 51 45 33 27
12 13 14 14 15 17 20 21 18 12 15 12 10 10 15 14 14 16 12 11 14 15 10 5 15 24 18 20 16 16 20 16 22 32 35 37 41 39 37 36 33 32 28
7 10 13 14 15 16 16 17 17 12 12 11 5 6 8 11 13 12 11 9 13 11 8 5 4 25 27 20 19 17 16 32 36 34 31 31 29 29 29 28 28 28 28
10 10 11 13 15 15 16 15 16 13 9 11 8 5 4 1 4 5 6 4 7 10 14 14 12 16 24 25 26 28 30 30 28 28 28 29 29 22 21 24 26 23 20
13 14 14 13 15 16 14 14 14 12 12 9 9 11 10 10 12 14 12 6 4 0 1 3 7 9 14 16 22 22 17 17 18 20 19 19 20 21 20 19 19 21 22
16 16 16 15 15 15 16 15 14 14 11 10 10 10 13 13 13 10 7 12 8 8 7 7 8 9 10 11 15 18 21 22 22 22 22 23 24 25 25 25 25 25 26
19 18 18 17 17 17 17 17 16 15 16 15 12 11 12 15 16 15 14 15 19 16 13 14 13 13 13 16 18 20 22 24 25 26 28 30 30 31 31 31 30 29 29
21 22 22 22 20 20 20 20 19 19 18 18 16 14 13 13 18 21 21 23 21 25 22 18 16 17 21 24 21 18 21 22 23 24 25 26 27 28 29 29 30 30 29
24 24 25 25 24 23 22 21 21 22 21 20 20 20 18 17 17 21 26 28 27 29 34 32 32 29 29 28 28 28 27 26 24 23 25 26 26 28 29 29 30 30 30

GFSGL_500_spd_105.txt.gz
Wind_Speed
39 40 40 41 44 46 46 47 48 49 51 51 50 51 51 53 53 54 55 55 58 57 59 61 60 61 62 60 58 56 53 52 52 48 46 45 46 42 44 41 39 39 47
37 39 41 41 42 43 44 43 43 42 42 41 41 43 45 47 48 47 48 50 53 55 56 59 59 59 60 60 58 58 57 55 56 53 48 44 45 43 40 40 38 37 37
39 42 42 41 42 42 40 39 38 37 40 41 40 41 42 44 47 50 53 56 59 62 64 66 66 66 65 65 64 63 61 62 61 57 53 48 46 47 45 42 40 39 36
41 41 40 39 39 38 38 34 35 37 35 38 40 44 47 50 53 56 59 63 66 68 70 71 72 72 71 70 70 70 69 70 70 66 61 53 51 48 48 47 44 42 39
39 37 36 35 34 34 32 32 33 33 37 41 44 47 53 58 62 66 70 72 74 76 77 77 77 77 78 78 77 75 73 72 72 72 67 59 53 52 52 48 47 44 42
36 34 32 31 30 30 28 29 32 36 40 44 50 55 60 64 67 70 72 72 73 74 76 78 79 79 76 75 78 77 76 76 75 76 73 64 56 50 51 49 51 47 43
33 31 29 27 27 26 27 30 33 38 44 49 55 60 60 62 65 66 69 74 77 77 74 70 69 67 67 69 72 73 72 72 74 78 76 69 56 50 48 49 52 50 43
32 29 26 25 24 26 28 31 35 41 48 53 55 55 55 57 65 66 65 63 61 55 51 51 52 53 53 53 60 66 66 67 67 68 72 65 62 48 49 51 50 47 44
28 25 25 23 24 25 28 32 38 44 50 51 50 48 53 56 54 55 51 49 45 39 36 35 38 41 46 51 52 56 59 61 63 59 63 69 62 52 52 51 47 44 42
25 25 25 23 22 23 29 33 40 46 47 44 43 48 42 47 46 41 37 34 31 29 27 28 25 27 30 34 39 52 57 51 48 56 55 63 61 57 54 50 46 43 42
27 27 22 21 21 25 29 35 40 42 41 39 41 43 32 36 33 31 30 27 25 23 21 20 20 20 21 24 27 30 39 48 60 58 52 46 60 60 55 52 45 40 44
29 21 20 20 21 26 30 35 37 39 39 41 34 34 27 31 30 26 28 23 21 18 17 17 17 19 17 23 23 21 28 39 50 51 47 44 55 57 56 54 48 34 38
24 20 19 21 22 26 28 32 35 37 34 32 28 30 26 28 29 28 31 27 26 25 24 18 20 19 18 17 13 11 19 29 35 40 40 37 44 48 49 52 50 50 48
21 20 17 21 22 25 26 29 32 32 31 29 24 25 27 31 32 31 32 29 26 25 17 18 16 12 12 14 16 15 16 21 27 32 34 38 45 46 49 54 56 52 46
21 16 17 20 22 23 23 27 30 29 27 26 22 25 24 23 26 32 29 24 22 25 19 13 9 8 9 6 6 8 16 24 29 31 31 35 39 42 47 53 54 51 51
17 16 19 19 22 20 21 23 27 26 24 23 18 21 24 27 27 30 29 22 21 23 23 19 22 17 8 9 1 5 14 17 23 29 27 36 41 44 48 52 50 50 48
15 16 19 20 20 18 19 21 25 23 21 22 17 17 23 25 26 26 27 30 28 29 32 19 13 14 14 7 9 9 14 13 23 20 30 34 36 39 45 44 44 45 42
14 17 19 18 17 18 18 19 20 21 19 19 15 15 18 20 23 23 27 31 34 34 32 23 15 15 9 11 10 11 13 14 19 15 26 27 30 34 35 36 39 40 42
13 15 16 16 17 18 17 17 18 19 18 17 15 14 16 17 15 18 19 24 31 31 26 12 5 6 9 6 7 9 11 22 11 11 18 26 29 29 35 35 38 41 40
13 14 14 14 15 16 17 18 18 16 16 18 16 16 16 16 16 16 18 19 22 26 23 21 15 7 3 3 1 9 20 21 14 12 12 26 29 31 32 28 40 47 50
13 14 15 16 18 18 19 17 16 16 16 17 17 14 14 17 19 18 20 17 11 15 11 22 22 13 5 3 9 14 16 19 22 20 16 15 21 37 38 45 48 43 38
15 15 16 17 19 20 20 19 19 17 16 16 16 15 14 14 16 17 17 14 11 6 10 9 13 10 6 7 8 17 25 21 19 34 37 30 27 24 32 38 39 39 36
16 17 18 19 20 21 22 22 21 20 18 17 17 17 14 14 15 16 16 13 11 6 2 1 8 6 8 11 12 8 16 14 17 21 20 23 28 27 26 29 29 28 29
19 20 20 21 21 22 22 23 23 23 22 20 19 20 20 16 15 17 18 19 14 13 8 6 9 7 4 4 2 4 2 9 16 16 18 7 20 23 25 26 26 26 26
22 23 24 25 25 25 24 23 23 24 24 24 22 20 21 21 19 18 20 21 22 20 19 18 15 14 10 8 9 11 11 10 10 14 19 21 21 21 23 25 27 28 28
24 25 26 27 28 28 28 28 28 27 26 26 27 26 24 22 24 22 23 24 26 27 26 25 27 24 19 15 16 15 14 16 17 16 16 18 19 21 21 22 24 25 25

GFSGL_500_spd_111.txt.gz
Wind_Speed
44 45 44 42 40 39 36 36 36 37 39 41 43 44 46 47 46 43 40 39 41 43 45 46 48 50 52 54 54 52 52 48 45 44 40 43 42 39 37 36 38 33 33
41 41 40 40 39 39 38 39 39 39 42 44 45 45 45 45 43 41 40 42 40 43 45 46 47 49 51 53 54 55 56 53 49 43 44 43 41 40 36 34 36 32 31
42 43 43 42 42 40 40 41 40 42 45 45 44 44 43 42 40 40 41 42 44 46 49 53 56 57 59 61 63 63 63 61 58 55 51 50 48 48 47 37 35 34 33
40 41 42 42 43 42 44 42 42 43 44 44 42 41 41 39 39 41 42 45 49 52 54 54 55 56 58 63 66 68 69 69 68 65 62 57 55 54 53 47 38 38 40
39 39 40 41 40 40 40 40 42 43 43 43 40 39 38 38 39 42 45 49 51 52 49 47 49 49 48 51 59 69 73 74 74 71 68 67 64 59 59 53 43 42 42
37 38 39 39 41 41 41 42 42 41 41 39 38 35 35 37 39 45 46 47 47 47 45 45 46 47 54 54 55 58 65 66 73 74 70 69 68 65 64 60 55 45 46
38 40 40 41 43 43 43 41 38 39 39 36 34 34 34 38 41 42 44 42 44 42 45 49 49 49 50 54 51 49 49 49 51 60 70 70 68 67 66 64 60 53 49
37 38 38 37 36 36 35 35 35 36 34 32 32 32 36 38 38 38 38 37 37 43 49 51 52 52 53 52 47 47 43 39 37 39 51 63 71 67 67 66 64 59 53
38 39 39 38 36 33 32 31 32 31 30 28 30 32 34 34 34 34 31 34 36 45 48 50 45 49 50 46 45 42 39 35 34 35 34 39 57 69 69 67 64 61 57
39 39 38 37 34 30 30 30 29 28 25 25 31 30 31 30 30 29 33 30 34 36 39 36 40 42 41 39 37 40 34 30 30 28 30 33 37 53 67 66 62 57 56
36 36 36 34 30 30 29 28 26 24 24 25 29 29 28 27 24 26 28 32 37 34 36 35 28 38 36 35 32 31 31 30 28 30 29 30 36 39 54 66 59 58 56
33 32 30 29 28 28 27 27 26 23 23 25 25 28 25 22 21 25 29 33 38 38 40 29 29 36 31 27 27 29 28 28 30 30 31 33 32 38 43 54 59 59 51
32 30 28 28 26 25 26 28 26 27 22 21 24 25 24 20 20 25 27 33 34 36 30 24 26 25 30 27 24 21 20 25 29 29 28 26 29 39 38 49 45 47 44
31 28 27 24 24 27 26 24 26 19 19 20 21 21 22 17 16 21 22 19 26 20 18 24 28 28 25 30 24 22 17 15 15 16 15 15 23 30 33 42 55 45 45
28 25 22 22 22 20 19 23 22 17 17 19 18 19 21 17 15 17 16 21 29 30 22 23 31 31 23 28 32 30 27 21 13 6 12 18 19 23 27 32 39 46 49
22 20 20 20 22 23 23 21 16 18 17 18 17 19 17 15 14 16 17 22 26 31 34 22 24 23 21 27 26 25 21 24 14 16 16 9 15 22 22 27 36 44 47
17 18 19 21 22 24 22 17 19 15 17 20 16 17 19 19 18 19 21 22 23 27 29 19 22 25 24 25 21 22 18 13 14 10 12 12 11 13 16 21 26 34 40
17 18 22 22 16 9 12 15 16 17 17 16 20 17 18 20 20 20 21 21 20 24 24 22 28 28 28 23 18 19 16 16 8 6 6 12 15 15 17 16 29 35 38
10 9 5 5 7 8 11 13 14 16 18 18 17 18 17 19 20 19 20 17 15 18 20 24 27 33 26 24 15 14 14 16 12 13 12 17 17 18 17 21 29 30 38
2 3 4 7 8 10 13 14 16 16 17 20 20 19 18 18 19 19 18 16 12 13 16 20 20 25 23 26 26 24 16 11 13 10 15 16 19 19 20 21 25 27 30
6 6 7 9 11 12 14 16 17 19 19 19 20 21 21 20 19 18 19 16 12 10 10 10 16 17 15 22 20 23 24 21 14 12 16 17 19 20 20 25 26 28 31
6 8 9 10 12 14 16 18 19 21 21 21 21 21 21 21 19 18 18 18 14 10 9 7 7 9 13 14 15 22 24 20 18 18 12 7 15 14 21 27 19 22 26
9 10 12 14 15 17 18 20 21 22 22 23 23 22 21 20 20 19 17 18 17 12 11 11 4 3 6 7 10 10 9 16 20 21 21 7 14 18 21 22 18 15 19
13 14 15 17 18 19 20 20 21 21 22 22 23 23 22 22 21 20 18 17 18 16 13 14 12 7 5 3 6 5 6 9 17 16 12 6 7 16 21 32 26 19 13
16 17 17 18 19 20 21 22 22 23 24 24 24 24 25 25 24 23 22 20 19 19 16 17 19 15 10 8 4 5 7 5 13 15 18 16 16 16 20 21 15 24 31
18 19 20 21 22 23 24 26 27 28 29 29 29 30 30 30 30 30 28 26 24 22 21 21 19 23 19 15 13 9 10 10 18 20 18 18 14 9 13 17 19 29 27

GFSGL_500_spd_114.txt.gz
Wind_Speed
43 44 46 47 48 49 48 47 46 46 45 44 44 44 45 46 47 47 47 46 44 43 43 43 43 43 45 45 47 48 48 48 44 40 41 40 42 46 46 49 48 46 45
40 40 42 43 44 45 44 43 44 44 42 45 45 45 46 47 47 47 46 44 43 43 44 45 45 48 49 51 53 54 55 56 56 54 51 47 45 42 44 48 45 44 46
41 43 44 44 45 45 44 44 44 45 46 46 46 47 47 47 46 44 42 42 41 41 44 45 49 53 55 56 56 55 54 53 54 59 60 57 54 52 49 46 43 41 43
37 39 41 42 41 40 41 42 43 44 45 44 44 44 45 45 43 41 40 39 40 42 45 50 53 54 56 56 55 53 52 52 50 51 53 54 59 59 57 51 49 44 40
35 39 39 39 40 41 41 40 41 41 41 42 41 41 42 42 40 38 37 40 42 46 48 50 52 53 52 49 51 55 57 58 56 59 60 62 62 62 64 60 56 54 47
33 33 35 38 39 41 41 41 41 42 43 43 40 38 40 39 37 36 38 40 43 45 47 48 46 49 52 57 60 60 60 59 62 61 57 59 59 61 67 68 64 60 52
37 36 36 35 35 35 35 35 35 36 37 38 36 37 38 34 34 37 39 40 42 41 39 42 44 49 51 54 57 55 53 54 55 54 53 55 54 55 59 68 69 66 61
38 38 38 38 38 38 38 37 36 36 34 32 33 35 33 33 33 36 38 38 37 36 40 39 45 48 52 55 52 50 52 51 51 49 47 45 46 48 49 56 70 70 67
38 38 39 39 39 39 39 39 39 35 31 31 30 30 29 31 32 35 36 36 32 35 39 45 46 49 54 43 43 53 53 45 46 45 40 40 39 40 42 48 62 70 70
38 38 38 39 39 40 40 39 37 31 30 28 28 27 25 28 32 35 33 31 31 35 36 42 46 44 30 39 39 42 38 38 41 42 37 34 34 31 34 40 53 65 69
38 40 39 39 38 37 36 35 31 29 27 25 27 25 24 28 34 31 28 24 26 27 32 40 35 30 30 35 38 38 36 38 38 38 35 34 33 26 28 34 42 58 62
32 34 36 38 37 33 31 29 27 24 25 26 30 29 25 30 31 28 26 27 25 28 37 39 34 27 29 30 35 32 33 34 32 30 29 30 34 32 31 30 36 51 58
35 34 34 33 32 30 26 24 21 23 27 27 28 23 25 28 26 26 24 23 22 30 36 40 38 32 28 25 33 32 32 37 30 24 26 29 30 31 26 33 35 45 53
39 37 34 32 28 24 21 20 23 24 21 22 14 19 23 24 24 23 23 22 24 33 33 37 29 25 25 26 30 30 31 32 21 19 13 16 19 23 24 28 33 44 49
34 34 32 26 22 20 18 17 16 16 18 14 12 19 20 20 20 20 20 21 27 33 33 32 27 27 25 26 27 25 30 27 17 17 18 8 3 6 16 23 33 54 50
28 28 22 19 18 17 16 18 18 18 15 12 15 17 19 22 20 22 24 22 24 27 24 23 27 26 22 22 23 21 24 21 12 8 17 11 11 13 15 22 30 49 55
19 16 14 15 15 16 18 20 18 13 10 16 16 17 19 20 19 20 22 23 22 24 22 21 26 24 25 21 21 22 25 21 11 9 8 5 7 5 13 23 35 32 42
13 11 12 11 13 17 13 8 6 6 9 12 14 13 14 18 19 19 21 20 18 18 18 20 22 22 26 22 20 19 19 20 17 9 7 7 10 11 12 20 26 30 34
6 7 6 5 6 7 3 6 8 9 9 10 12 14 14 16 17 16 20 20 19 17 18 19 20 19 19 21 29 24 17 15 16 9 4 5 8 10 17 17 20 28 34
4 4 2 4 4 4 7 9 10 11 12 14 14 15 17 16 16 17 17 18 17 16 15 16 15 15 17 18 23 22 21 14 13 11 3 7 8 8 14 24 23 27 32
2 4 4 5 7 8 10 11 13 13 14 16 18 18 18 18 17 16 16 17 17 16 14 16 15 13 14 13 18 23 16 18 7 13 10 5 7 12 20 21 22 24 33
7 8 8 9 10 11 13 14 15 16 17 18 19 20 21 22 21 18 17 16 18 17 15 14 14 12 10 11 12 15 15 12 13 10 7 8 12 24 22 21 22 24 40
10 10 11 12 13 15 16 17 18 19 20 20 21 21 21 21 22 21 20 18 17 18 17 15 15 14 9 9 6 10 12 8 8 15 12 10 11 13 14 17 19 20 16
11 12 13 14 15 16 17 18 18 19 20 21 21 22 22 22 22 22 22 21 18 17 18 17 17 16 14 7 6 9 8 13 8 2 4 7 9 20 17 24 28 21 10
14 15 16 17 17 18 19 20 21 22 23 24 25 25 26 26 26 26 25 25 24 20 19 19 18 18 18 15 10 9 5 4 8 10 11 9 13 17 24 25 21 20 15
17 17 18 20 21 22 24 25 26 26 27 28 29 29 30 30 30 29 29 28 27 27 25 22 21 20 20 22 18 15 14 10 9 7 1 9 8 12 11 12 23 24 17

GFSGL_500_spd_117.txt.gz
Wind_Speed
29 31 34 39 42 44 46 47 48 47 45 45 45 44 44 45 45 48 50 50 50 48 47 47 45 45 45 44 45 45 46 48 47 47 49 46 44 45 42 44 47 49 52
27 34 37 41 44 45 45 46 46 47 48 49 47 46 47 48 49 50 50 50 48 46 44 43 43 43 43 44 46 49 52 54 54 54 55 53 49 46 49 49 49 49 49
27 31 36 40 43 45 47 49 49 48 48 48 47 49 50 51 50 50 47 45 45 44 42 41 40 40 43 46 50 52 53 53 53 52 51 52 50 48 48 50 52 52 51
28 30 33 37 40 42 44 46 47 46 45 44 45 45 45 46 44 43 42 42 42 42 39 38 40 42 46 49 50 48 48 50 53 54 54 55 57 58 52 52 46 49 55
28 31 31 32 32 34 38 40 40 41 42 43 43 44 45 45 44 40 38 40 39 36 37 40 43 45 46 44 43 44 47 50 50 53 55 58 61 63 63 62 57 50 48
32 35 38 37 38 38 36 34 34 35 37 38 38 39 39 39 37 35 37 36 34 36 39 42 44 42 42 44 45 49 54 54 55 49 49 49 55 57 60 61 60 55 50
35 37 38 41 41 40 40 38 37 36 36 36 35 36 37 34 31 33 33 32 34 38 39 39 39 38 41 44 51 58 57 52 46 48 51 58 58 57 56 57 56 52 47
38 39 41 42 42 42 41 40 38 37 38 38 37 37 36 32 30 29 30 32 36 37 37 38 36 38 40 44 51 49 43 44 44 47 50 55 59 52 49 50 49 49 46
36 37 38 40 41 41 40 40 39 39 37 37 36 34 33 30 28 28 29 32 35 34 31 34 34 37 39 48 50 47 43 44 47 49 50 52 52 48 45 42 41 43 40
36 37 37 38 40 40 39 38 38 37 37 35 34 32 29 27 28 27 29 31 33 29 30 34 33 35 43 53 49 45 48 44 45 48 48 48 47 40 41 37 33 32 37
36 35 35 35 35 35 36 37 37 36 34 32 31 29 25 27 28 27 30 32 28 29 32 33 36 38 44 54 47 47 50 43 44 43 41 39 37 32 34 29 29 30 33
33 34 35 36 36 35 34 34 34 33 30 28 26 26 26 28 29 30 31 29 26 28 31 34 36 37 44 48 44 45 44 42 41 40 31 34 30 28 28 25 28 25 25
36 37 39 40 40 38 35 32 29 26 26 26 25 25 24 23 21 24 27 26 25 29 32 33 36 43 45 48 45 44 39 36 39 35 27 32 28 24 26 24 27 26 22
41 44 44 41 37 35 32 27 23 24 25 25 26 22 20 17 18 20 22 23 24 26 30 34 39 41 42 47 45 35 30 32 37 29 25 32 26 21 20 23 25 24 26
42 40 37 36 32 30 26 23 21 21 19 18 20 19 18 16 17 18 20 20 24 27 31 35 38 36 36 38 36 31 28 32 34 29 24 28 22 15 7 14 22 21 24
35 35 33 30 27 24 22 18 19 20 18 20 19 15 17 18 18 19 20 19 21 24 26 28 32 33 29 29 32 34 31 29 30 24 22 17 14 10 7 9 17 20 27
29 25 23 20 17 17 17 18 17 16 15 18 13 11 15 17 19 21 21 21 21 22 24 24 27 28 26 25 31 30 29 29 32 21 20 14 14 12 6 7 10 18 33
20 17 15 13 10 11 13 14 13 10 8 9 12 13 14 16 17 18 18 20 21 22 22 22 24 25 23 24 26 28 24 28 26 20 21 14 11 10 4 4 17 24 48
12 11 11 6 2 7 8 8 5 4 9 11 11 12 13 14 15 16 18 19 21 22 22 21 23 23 24 23 24 28 22 27 24 21 21 19 13 6 5 9 13 26 40
5 7 8 9 6 7 8 4 7 7 8 10 11 11 12 14 15 16 17 18 19 21 23 22 23 22 22 20 20 22 21 29 18 21 16 13 13 2 9 11 16 26 35
9 9 9 8 8 8 9 10 10 11 12 13 14 15 15 15 16 17 18 18 18 20 22 22 22 22 18 20 20 20 21 21 22 25 23 16 9 7 14 12 15 25 30
8 10 11 11 11 12 13 14 14 15 16 17 18 19 20 21 21 20 19 19 20 21 22 22 22 21 20 16 18 16 19 14 13 21 24 11 9 9 14 12 16 20 23
14 13 14 14 15 15 16 16 17 18 18 19 19 21 21 21 21 21 21 21 21 21 20 21 21 21 21 17 15 15 16 11 8 12 19 9 7 11 18 19 29 24 27
13 14 14 15 16 16 17 18 19 20 20 21 22 23 24 24 24 24 24 24 24 24 23 21 21 22 21 19 15 14 13 8 11 13 11 9 4 9 18 19 15 16 31
15 16 17 17 18 19 20 21 23 24 24 25 26 26 26 27 27 27 27 26 26 26 25 24 23 22 23 21 18 15 14 11 8 4 6 8 10 9 17 19 25 20 19
17 18 19 20 22 23 25 26 27 28 28 29 30 31 31 31 32 32 32 31 30 29 28 27 26 24 24 25 22 19 16 13 10 7 6 5 5 8 17 18 12 19 18

GFSGL_500_spd_120.txt.gz
Wind_Speed
25 26 27 25 24 27 32 36 38 39 41 42 42 42 44 45 47 47 47 47 46 46 48 50 50 51 49 46 45 44 44 44 42 42 43 47 49 50 49 48 49 51 51
30 27 27 29 29 31 31 33 36 38 40 42 44 45 46 47 47 48 48 47 46 46 48 48 47 46 45 43 43 42 42 43 43 44 47 48 46 45 44 45 45 47 51
34 27 28 26 28 29 32 35 37 39 41 43 44 46 47 47 47 46 45 43 42 42 41 41 42 43 41 40 40 41 43 45 46 46 43 44 46 48 47 47 46 44 45
18 26 28 28 28 29 30 32 33 35 37 40 43 45 45 45 45 43 43 44 44 42 41 40 40 39 37 38 40 43 43 42 44 44 46 48 49 52 53 53 51 50 50
30 32 30 30 31 33 34 35 36 38 38 37 37 37 37 37 35 34 36 38 38 37 37 38 36 35 37 40 41 40 40 40 43 50 54 53 49 49 49 48 47 47 48
34 32 31 33 35 35 36 39 40 40 40 39 39 37 36 35 32 33 35 34 33 32 34 32 33 37 39 39 39 41 43 45 49 53 52 47 43 44 44 49 49 50 50
30 31 33 38 39 41 41 42 43 42 41 41 40 39 39 38 35 35 35 32 30 31 29 31 35 37 36 35 35 35 38 46 49 49 46 44 46 49 53 50 51 49 53
30 36 39 40 41 42 43 44 43 43 41 40 39 38 37 36 34 34 33 28 27 27 29 32 34 30 32 33 34 37 39 45 47 45 44 48 45 49 50 49 50 49 52
34 36 38 40 41 41 41 40 39 40 40 38 37 36 35 34 32 32 27 26 27 29 31 34 33 32 33 34 38 39 42 47 49 48 47 48 49 49 50 44 45 46 41
33 34 35 37 37 37 36 35 34 34 35 35 34 33 33 33 30 29 25 25 26 29 34 33 33 34 33 37 41 43 44 50 51 47 46 49 47 47 39 43 47 39 35
33 33 33 32 31 32 32 33 34 34 33 32 31 31 32 30 28 26 26 28 29 31 31 30 32 33 36 37 39 40 44 49 45 41 41 44 45 43 39 44 38 30 29
33 34 34 34 34 35 36 38 38 36 35 33 30 28 26 25 25 26 26 25 24 26 25 25 25 29 32 33 37 40 46 47 44 37 40 45 42 41 42 38 29 25 22
35 37 38 37 39 41 43 43 40 35 33 33 28 24 23 23 24 24 19 20 21 21 21 23 26 30 33 37 37 41 44 43 44 42 38 39 36 34 33 29 20 20 21
38 38 38 40 43 44 41 39 36 33 32 30 23 20 22 26 23 24 16 19 20 20 21 23 26 30 33 36 41 43 43 47 39 35 36 34 33 29 30 25 14 19 23
36 38 39 39 39 41 37 34 29 28 28 24 19 17 18 23 23 20 17 20 20 21 22 23 26 30 31 33 36 37 40 37 37 35 31 32 29 29 26 20 8 17 20
36 36 37 35 32 27 25 23 23 24 21 20 20 20 23 21 14 16 18 21 21 22 23 22 24 26 28 28 30 30 38 34 34 34 33 32 28 27 22 13 6 8 16
31 28 24 23 24 22 19 15 15 17 19 20 20 18 17 13 14 15 16 17 19 20 21 22 22 25 27 26 31 31 35 33 35 33 34 35 25 25 23 15 11 9 15
20 18 17 17 18 17 14 9 9 8 12 11 8 6 8 14 14 15 15 16 17 19 21 22 22 24 25 24 27 28 31 31 31 34 39 32 28 19 20 17 7 7 13
11 13 10 8 8 8 5 8 2 4 1 5 9 12 14 14 15 16 17 18 18 19 20 21 22 24 24 23 25 27 29 30 27 32 36 29 25 15 19 12 2 2 30
9 10 11 13 14 12 9 8 11 7 7 10 11 11 14 16 16 17 18 18 19 20 21 22 24 25 26 23 23 23 27 28 25 29 32 28 18 15 10 11 9 17 35
10 10 10 10 12 12 12 13 13 12 12 11 12 13 15 16 17 18 19 20 21 21 21 22 23 24 25 24 22 21 23 26 26 23 29 23 17 12 9 8 31 16 27
17 15 16 16 16 16 16 15 15 15 15 16 16 16 17 18 18 19 20 20 21 21 22 22 22 24 24 23 21 21 19 21 21 22 26 23 13 9 4 5 15 19 16
15 15 15 16 16 16 17 17 17 17 18 18 19 19 20 21 21 21 22 23 24 23 23 23 22 22 23 24 21 21 18 18 20 22 20 16 14 6 6 15 20 22 19
15 15 16 17 18 19 19 20 21 21 22 23 23 24 25 25 25 25 25 25 25 25 24 24 23 22 23 24 23 19 18 16 17 17 11 16 6 4 11 22 16 18 18
16 17 17 18 19 20 21 22 23 25 26 26 27 27 28 28 29 28 28 29 28 28 28 26 26 24 23 23 25 23 18 14 15 13 11 8 6 9 5 16 21 15 16
17 18 19 20 22 23 24 25 27 28 29 30 31 31 32 33 33 34 34 34 33 33 33 32 30 29 27 25 25 24 23 16 13 15 13 6 5 12 9 10 20 19 15

GFSGL_500_spd_123.txt.gz
Wind_Speed
20 17 16 17 19 19 15 19 23 26 29 30 32 33 34 34 36 38 39 41 41 43 43 43 43 44 45 45 45 45 44 45 45 42 42 40 42 44 46 48 50 52 52
13 15 21 19 21 19 24 26 25 26 27 27 29 31 32 34 36 38 40 41 41 42 43 42 42 42 42 41 42 43 43 41 41 41 40 43 44 44 45 44 44 45 45
17 19 22 23 27 25 27 27 26 25 26 29 30 32 34 36 36 36 38 38 39 40 40 41 42 41 41 40 41 40 38 39 39 39 41 41 42 43 42 45 48 49 49
19 21 22 22 24 26 28 28 28 30 31 33 34 35 37 39 38 36 33 32 32 34 35 38 38 35 34 36 36 35 37 38 39 39 38 40 43 47 49 49 48 46 46
24 25 26 25 26 27 32 33 35 35 35 37 39 43 43 41 39 37 36 35 35 36 36 36 33 32 33 32 31 34 36 37 37 36 37 42 47 50 49 52 52 41 41
26 30 30 27 30 32 33 35 38 39 41 42 42 42 41 40 39 37 36 38 38 38 37 35 31 32 30 32 34 35 34 35 35 38 40 41 40 42 45 46 47 45 40
34 33 34 34 32 34 37 39 40 43 44 44 43 42 40 38 38 37 37 37 36 38 35 31 30 31 31 33 35 34 34 37 40 40 40 45 45 48 47 45 43 42 42
27 26 31 34 34 35 37 40 42 43 44 43 43 42 40 38 37 36 35 36 35 36 33 28 28 31 33 35 33 31 35 40 41 44 45 46 48 49 44 42 41 43 43
25 27 30 34 35 37 40 42 43 43 41 41 42 38 38 37 36 34 34 34 33 33 31 29 29 32 35 33 32 32 33 37 40 41 41 43 43 41 40 41 44 44 42
26 28 31 34 36 38 40 41 40 39 38 36 36 34 33 33 32 32 32 32 30 30 30 31 32 33 31 30 30 30 32 35 36 36 40 44 41 39 41 42 42 42 40
30 32 36 35 35 37 38 38 38 38 37 36 37 36 34 32 30 30 28 27 27 28 29 31 29 30 28 29 31 32 31 34 36 35 41 38 35 39 39 41 42 41 38
33 32 33 34 36 37 39 39 38 38 37 37 37 35 32 32 30 27 24 23 25 27 26 27 28 28 28 30 31 30 32 35 36 39 43 38 39 36 39 37 36 36 34
30 32 35 37 39 40 38 37 39 41 41 40 37 32 30 30 26 25 22 24 25 23 22 22 25 25 26 27 28 31 33 36 38 43 43 39 38 36 35 33 33 33 23
32 35 37 38 37 37 40 40 39 38 37 34 31 29 29 25 23 22 24 23 26 22 19 21 21 23 24 25 28 31 35 38 38 42 42 39 37 36 33 32 28 21 9
32 34 35 36 36 35 35 33 33 30 29 27 26 26 22 21 18 18 21 21 20 19 21 21 22 22 24 25 30 31 34 35 35 40 37 39 42 38 30 26 17 11 6
32 33 33 31 30 28 28 25 27 23 21 20 20 19 18 19 19 21 18 14 17 18 19 19 19 21 23 24 26 28 31 32 33 37 37 40 36 36 25 20 14 9 8
27 26 25 22 23 23 21 22 22 14 11 13 15 16 18 17 14 12 9 12 16 19 20 19 20 21 23 24 26 27 29 31 33 36 37 41 41 32 19 20 14 5 11
19 17 14 15 16 17 17 15 13 12 9 6 5 2 1 3 5 9 11 14 16 18 19 19 20 21 23 25 25 27 30 29 32 35 33 40 34 27 20 24 11 4 8
15 13 10 8 11 11 13 11 7 8 6 10 12 10 10 9 10 12 14 16 18 18 18 19 21 21 23 25 25 25 27 27 30 32 31 40 25 23 17 17 7 3 9
15 14 12 11 11 12 11 12 13 14 13 11 9 9 9 11 11 13 15 17 18 20 21 21 21 21 21 24 25 25 26 24 28 29 35 36 22 22 20 20 12 13 21
15 15 12 12 13 13 14 15 15 16 13 13 13 13 15 15 16 17 18 18 18 18 19 19 20 22 22 23 23 23 24 22 25 28 34 30 14 15 16 20 12 12 19
16 13 13 13 13 14 14 14 13 13 14 14 15 15 15 16 17 18 19 20 21 21 21 22 21 22 23 23 24 23 23 21 22 25 28 22 8 11 11 5 10 14 16
12 13 13 14 14 14 15 15 16 16 17 18 19 19 20 20 21 22 23 23 23 23 24 24 24 23 22 21 22 22 21 20 18 19 18 16 15 13 7 9 12 12 16
13 14 15 15 16 17 18 19 20 20 21 21 22 23 23 24 25 25 25 26 26 26 26 26 26 26 25 23 22 22 20 18 15 18 16 15 8 6 5 9 13 12 12
14 14 15 17 18 19 19 20 21 22 23 25 26 27 27 28 29 29 29 30 30 30 30 30 30 29 28 27 26 23 22 19 15 17 16 13 3 2 11 13 14 13 13
15 16 17 18 20 21 22 24 25 26 27 29 30 30 31 32 33 33 34 34 34 34 33 33 33 32 32 31 30 28 25 23 18 15 17 15 10 7 6 11 10 13 17

GFSGL_500_spd_129.txt.gz
Wind_Speed
37 36 32 33 32 37 32 30 24 27 29 29 27 19 25 29 25 24 26 30 32 33 35 38 40 40 39 41 42 42 41 42 43 43 42 39 37 39 38 35 36 36 37
34 31 31 30 29 29 27 26 22 23 22 23 25 27 27 25 25 27 29 31 35 38 41 44 46 45 44 43 41 42 43 43 42 41 37 37 37 38 37 36 35 34 35
31 31 28 24 24 25 25 20 24 26 29 29 28 27 27 27 30 33 36 38 42 43 44 45 47 47 45 45 45 44 44 42 41 37 36 37 38 40 37 37 35 35 35
31 31 29 28 27 25 24 27 30 34 38 35 32 33 33 34 36 39 41 43 45 47 46 48 48 48 46 43 44 45 44 42 41 38 38 37 39 38 39 39 38 40 40
32 30 31 30 31 32 31 33 32 31 29 32 35 37 38 38 39 42 43 45 47 46 46 46 45 45 43 42 42 41 42 41 40 39 39 39 39 39 40 41 41 42 41
32 34 34 34 35 34 35 35 32 34 35 37 37 38 38 39 41 43 45 45 43 42 43 43 42 42 41 40 40 40 40 38 38 40 39 40 37 38 38 38 37 37 38
34 35 36 34 33 37 37 32 36 37 39 41 41 41 40 42 44 43 42 41 39 40 41 41 41 41 39 38 39 38 39 39 39 40 39 36 35 35 35 35 40 42 44
28 29 30 32 31 31 34 37 35 36 36 39 41 41 41 41 41 41 41 38 37 39 40 41 40 38 38 38 38 36 37 38 40 40 38 36 35 35 37 39 40 42 43
29 28 32 30 36 36 37 34 32 34 37 40 42 42 42 41 41 40 41 42 42 43 43 41 40 36 37 37 34 33 35 36 36 36 37 36 35 38 39 39 42 42 39
36 33 30 31 31 29 28 30 33 37 40 42 43 43 44 44 45 47 47 48 45 42 43 41 39 35 34 32 30 31 32 31 31 33 35 36 37 39 40 42 44 42 44
24 21 20 22 25 28 32 37 39 40 42 44 46 47 48 50 50 49 46 43 41 40 40 40 38 31 28 29 29 28 27 28 28 28 30 32 35 36 39 40 40 42 46
20 22 24 27 29 32 34 36 39 40 42 46 49 51 50 48 48 46 44 43 43 42 40 38 35 28 27 28 26 25 26 29 29 30 31 31 34 37 40 44 45 48 51
20 22 25 27 30 33 34 36 40 44 45 46 45 44 43 43 41 40 40 39 37 36 33 31 30 28 28 28 29 24 26 29 28 29 31 33 35 39 41 44 46 45 42
20 23 26 28 29 32 37 38 38 39 40 38 37 36 35 34 34 33 31 31 28 25 24 25 27 25 25 22 22 20 25 26 26 28 31 30 35 38 44 48 42 40 32
23 26 27 28 33 35 34 34 34 31 29 28 29 25 26 25 23 20 18 19 19 19 21 20 18 14 15 17 21 19 20 25 29 29 28 31 35 39 47 40 37 36 30
25 26 29 30 30 30 28 24 23 23 22 21 20 21 21 23 19 15 15 16 20 16 9 11 9 10 14 15 16 19 23 26 27 29 31 34 36 42 34 37 37 33 23
25 26 26 25 24 23 22 20 19 18 18 14 13 13 12 12 10 4 7 8 5 5 7 8 10 11 12 15 18 19 22 24 26 29 31 33 38 33 32 35 30 17 15
23 24 22 19 18 18 18 19 17 15 13 12 11 12 13 9 8 8 4 4 5 7 11 12 12 13 16 17 18 21 23 25 27 28 32 33 36 27 24 30 24 13 8
21 19 18 17 17 17 15 14 14 12 12 12 11 11 13 14 13 12 11 10 11 12 13 13 14 14 15 16 18 20 23 24 24 25 30 32 32 28 26 24 17 13 7
18 17 17 17 17 16 14 13 13 12 12 13 13 14 13 12 13 14 14 13 14 14 14 15 15 16 17 18 18 20 21 22 23 25 28 29 25 22 22 18 12 6 6
17 18 18 18 16 15 14 14 13 13 13 13 13 13 14 14 13 14 15 15 15 16 16 17 17 18 19 19 19 20 20 21 21 23 26 27 21 19 18 19 19 15 8
19 18 16 14 15 14 14 14 14 13 14 14 15 16 16 16 17 18 19 20 20 20 21 21 21 22 22 22 22 22 22 22 22 22 24 24 25 12 9 11 8 13 12
11 13 14 14 14 14 13 13 13 14 15 16 17 18 19 20 21 23 24 24 25 25 26 27 27 27 26 26 25 25 25 24 23 23 23 22 23 15 7 9 5 3 3
15 14 14 14 13 13 13 14 15 16 17 18 20 21 23 24 26 27 28 28 29 29 30 30 31 31 30 30 29 28 27 27 26 23 23 21 18 21 10 7 7 6 1
13 14 14 14 14 15 15 17 18 19 20 21 23 25 27 28 29 30 30 31 32 32 33 33 32 33 33 33 32 30 30 30 28 26 24 21 19 16 13 7 6 7 7
14 14 15 15 16 17 18 19 20 22 24 26 28 30 31 32 33 34 35 35 36 36 36 36 36 35 34 34 34 33 32 32 31 29 25 23 20 18 13 9 7 9 12